     2.11           OBSERVATION DATA    G (GPS)             RINEX VERSION / TYPE
teqc 2010Oct21 OPUS Account 20111027 14:31:18UTC            PGM / RUN BY / DATE
S 1524                                                      MARKER NAME
1221                                                        MARKER NUMBER
CSMIDDLETON NGS                                             OBSERVER / AGENCY
4624K01590 TRIMBLE NETR5 4.41                               REC # / TYPE / VERS
12236910 TRM41249.00 NONE                                   ANT # / TYPE
  -761595.3903 -5534138.0946  3067771.9662                  APPROX POSITION XYZ
        2.0010        0.0000        0.0000                  ANTENNA: DELTA H/E/N
     1     1                                                WAVELENGTH FACT L1/2
     5    L1    L2    C1    P1    P2                        # / TYPES OF OBSERV
    15                                                      LEAP SECONDS
  2011     8    13    18    41    0.0000000     GPS         TIME OF FIRST OBS
                                                            END OF HEADER
 11  8 13 18 41  0.0000000  0 10G01G07G28G19G17G13G08G26G11G24
 122489372.57116  95446278.41917  23308952.406                    23308964.070
 106747663.14518  83180026.29718  20313405.211                    20313411.559
 117626925.76017  91657373.21155  22383660.203                    22383667.309
 120170527.03617  93639387.37355  22867691.414                    22867697.461
 125272033.04116  97614622.69816  23838483.133                    23838494.590
 120145919.19817  93620235.27454  22863012.383                    22863020.910
 109652316.64118  85443391.22856  20866142.180                    20866149.516
 125913360.06216  98114346.16053  23960516.055                    23960526.023
 114258239.75817  89032416.02555  21742620.445                    21742627.625
 120391320.93217  93811442.79154  22909706.680                    22909716.535
 11  8 13 18 41 30.0000000  0 10G01G07G28G19G17G13G08G26G11G24
 122461304.315 6  95424407.068 7  23303611.391                    23303622.645
 106741989.926 8  83175605.588 8  20312325.414                    20312332.344
 117597608.810 7  91634528.82045  22378081.711                    22378088.156
 120264311.244 7  93712465.92645  22885537.344                    22885544.402
 125173121.492 6  97537548.886 6  23819660.781                    23819671.457
 120253392.689 7  93703980.67944  22883464.117                    22883472.672
 109595027.865 8  85398750.61146  20855240.656                    20855247.355
 125831769.339 6  98050769.01943  23944989.398                    23944998.977
 114226289.716 8  89007519.89745  21736540.258                    21736546.938
 120328093.463 6  93762174.70544  22897675.508                    22897685.508
 11  8 13 18 42  0.0000000  0 10G01G07G28G19G17G13G08G26G11G24
 122433681.248 6  95402882.719 7  23298354.133                    23298365.855
 106736730.149 8  83171507.092 8  20311324.547                    20311331.598
 117568380.311 7  91611753.44645  22372519.250                    22372525.883
 120358359.821 7  93785750.54145  22903434.695                    22903440.816
 125074384.932 6  97460611.520 6  23800871.297                    23800882.781
 120361021.598 7  93787847.27544  22903945.289                    22903954.246
 109537987.555 8  85354303.67146  20844386.375                    20844393.512
 125750594.880 6  97987516.32143  23929542.719                    23929551.707
 114194847.652 7  88983019.67445  21730557.000                    21730564.164
 120265131.548 7  93713113.63344  22885693.375                    22885703.129
 11  8 13 18 42 30.0000000  0 10G01G07G28G19G17G13G08G26G11G24
 122406483.161 6  95381689.449 7  23293179.305                    23293190.758
 106731879.647 8  83167727.484 8  20310401.711                    20310408.371
 117539257.330 7  91589060.24445  22366977.344                    22366984.117
 120452654.718 7  93859227.03645  22921378.711                    22921384.602
 124975840.001 6  97383823.430 6  23782119.055                    23782129.992
 120468803.267 7  93871832.84744  22924455.664                    22924464.594
 109481201.381 8  85310054.71846  20833580.234                    20833587.227
 125669854.559 6  97924601.89843  23914178.133                    23914188.387
 114163898.053 7  88958903.12145  21724667.930                    21724674.820
 120202419.602 6  93664247.17744  22873760.203                    22873769.504
 11  8 13 18 43  0.0000000  0 10G01G07G28G19G17G13G08G26G11G24
 122379721.236 6  95360836.004 7  23288086.633                    23288097.602
 106727441.045 8  83164268.825 8  20309557.375                    20309563.789
 117510228.601 7  91566440.48145  22361453.539                    22361460.164
 120547199.520 7  93932898.26645  22939369.828                    22939375.258
 124877480.176 6  97307179.549 6  23763402.336                    23763412.824
 120576733.158 7  93955933.91044  22944993.945                    22945003.215
 109424668.783 8  85266003.34046  20822822.055                    20822829.496
 125589541.827 6  97862020.57243  23898895.852                    23898905.055
 114133450.070 7  88935177.44745  21718873.695                    21718880.520
 120139968.433 7  93615584.02444  22861875.914                    22861885.332
 11  8 13 18 43 30.0000000  0 10G01G07G28G19G17G13G08G26G11G24
 122353399.785 7  95340325.792 7  23283077.352                    23283089.105
 106723418.146 8  83161134.089 8  20308791.484                    20308798.016
 117481295.561 7  91543895.27045  22355947.617                    22355954.695
 120641993.359 7  94006763.54845  22957408.781                    22957414.258
 124779309.847 7  97230683.341 6  23744720.805                    23744730.984
 120684810.474 7  94040149.85744  22965560.133                    22965569.242
 109368394.615 8  85222153.33946  20812113.859                    20812120.688
 125509661.724 6  97799776.37343  23883694.797                    23883704.563
 114103507.993 7  88911845.97445  21713176.141                    21713182.668
 120077783.293 6  93567128.09144  22850042.461                    22850052.117
 11  8 13 18 44  0.0000000  0 10G01G07G28G19G17G13G08G26G11G24
 122327521.388 7  95320160.820 7  23278152.852                    23278164.176
 106719813.162 8  83158324.968 8  20308105.609                    20308112.227
 117452457.894 7  91521424.37845  22350459.797                    22350466.309
 120737033.806 7  94080821.00245  22975494.719                    22975500.363
 124681331.020 6  97154336.319 6  23726075.844                    23726086.441
 120793032.692 7  94124478.70344  22986154.688                    22986163.426
 109312381.643 8  85178506.86646  20801454.875                    20801461.906
 125430216.991 6  97737871.41643  23868576.727                    23868586.383
 114074073.839 7  88888910.27345  21707574.789                    21707581.754
 120015867.994 7  93518882.45344  22838260.391                    22838269.926
 11  8 13 18 44 30.0000000  0 10G01G07G28G19G17G13G08G26G11G24
 122302085.602 7  95300340.725 7  23273312.656                    23273323.863
 106716625.439 8  83155841.021 8  20307499.070                    20307505.473
 117423712.936 7  91499025.73145  22344989.836                    22344996.770
 120832316.015 7  94155066.83244  22993625.742                    22993631.242
 124583543.599 7  97078138.498 6  23707467.766                    23707477.512
 120901394.358 7  94208916.20344  23006774.766                    23006784.230
 109256629.969 8  85135064.00346  20790845.938                    20790852.902
 125351208.528 6  97676306.44343  23853542.250                    23853552.156
 114045147.778 7  88866370.49545  21702069.914                    21702077.406
 119954223.470 7  93470847.82044  22826530.031                    22826539.527
 11  8 13 18 45  0.0000000  0 10G01G07G28G19G17G13G08G26G11G24
 122277094.212 7  95280866.955 7  23268556.727                    23268568.133
 106713856.195 8  83153683.143 8  20306972.250                    20306978.367
 117395059.399 7  91476698.32045  22339537.367                    22339544.055
 120927837.288 7  94229498.94744  23011802.578                    23011808.344
 124485949.713 7  97002091.441 6  23688896.453                    23688905.715
 121009892.748 7  94293460.25044  23027422.375                    23027431.285
 109201142.264 8  85091826.84246  20780286.914                    20780294.121
 125272638.890 7  97615083.35543  23838590.953                    23838600.578
 114016731.378 7  88844227.86745  21696662.789                    21696669.520
 119892852.829 6  93423026.59744  22814851.125                    22814861.605
 11  8 13 18 45 30.0000000  0 10G01G07G28G19G17G13G08G26G11G24
 122252549.924 7  95261741.531 7  23263886.375                    23263897.141
 106711507.625 7  83151853.078 8  20306524.891                    20306531.715
 117366497.557 7  91454442.34745  22334102.328                    22334108.555
 121023595.623 7  94304115.79545  23030025.227                    23030030.672
 124388551.801 7  96926197.111 6  23670361.781                    23670371.734
 121118525.419 7  94378108.93444  23048094.313                    23048103.387
 109145921.918 8  85048798.00446  20769778.695                    20769785.500
 125194511.319 7  97554204.77944  23823723.875                    23823733.543
 113988827.651 7  88822484.71945  21691352.977                    21691359.543
 119831759.750 7  93375421.67744  22803225.805                    22803235.137
 11  8 13 18 46  0.0000000  0 10G01G07G28G19G17G13G08G26G11G24
 122228454.641 7  95242966.003 7  23259301.461                    23259311.660
 106709581.668 8  83150352.322 8  20306158.344                    20306165.430
 117338026.992 7  91432257.51145  22328684.531                    22328691.191
 121119588.830 7  94378915.64344  23048292.492                    23048298.258
 124291352.594 7  96850457.598 6  23651865.500                    23651874.824
 121227289.952 7  94462860.35244  23068791.742                    23068800.371
 109090971.798 8  85005979.72146  20759322.023                    20759329.203
 125116828.674 7  97493672.90843  23808941.484                    23808951.227
 113961438.500 7  88801142.53145  21686140.922                    21686148.051
 119770947.702 6  93328035.74144  22791652.719                    22791663.539
 11  8 13 18 46 30.0000000  0 10G01G07G28G19G17G13G08G26G11G24
 122204810.568 7  95224542.056 7  23254801.836                    23254813.152
 106708079.921 8  83149182.118 8  20305872.875                    20305879.500
 117309646.882 7  91410143.13845  22323284.125                    22323290.660
 121215814.019 7  94453896.25444  23066603.086                    23066608.938
 124194353.885 7  96774874.322 6  23633406.680                    23633416.648
 121336183.416 7  94547712.25444  23089513.656                    23089522.723
 109036294.260 8  84963373.85246  20748917.523                    20748924.109
 125039594.138 7  97433490.20643  23794243.898                    23794252.656
 113934566.091 7  88780203.01445  21681026.914                    21681034.020
 119710419.778 6  93280871.19644  22780134.984                    22780145.672
 11  8 13 18 47  0.0000000  0 10G01G07G28G19G17G13G08G26G11G24
 122181619.704 7  95206471.235 7  23250388.906                    23250399.309
 106707003.983 8  83148343.670 8  20305667.742                    20305674.844
 117281356.821 7  91388098.90045  22317900.906                    22317907.160
 121312268.749 7  94529055.71544  23084957.250                    23084963.668
 124097557.460 7  96699448.627 6  23614987.000                    23614997.047
 121445202.818 7  94632662.22544  23110259.375                    23110268.641
 108981892.067 8  84920982.49846  20738564.789                    20738572.258
 124962809.898 7  97373658.34143  23779632.453                    23779641.449
 113908211.988 7  88759667.32945  21676012.602                    21676019.824
 119650179.073 7  93233930.42044  22768672.188                    22768681.977
 11  8 13 18 47 30.0000000  0 10G01G07G28G19G17G13G08G26G11G24
 122158884.549 7  95188755.556 7  23246062.391                    23246073.258
 106706356.452 8  83147839.087 8  20305544.828                    20305551.504
 117253156.990 7  91366125.01545  22312534.133                    22312541.105
 121408951.206 7  94604392.62844  23103357.289                    23103362.137
 124000966.640 7  96624183.189 6  23596606.500                    23596616.012
 121554346.362 7  94717708.98044  23131029.234                    23131038.215
 108927768.700 8  84878808.44346  20728265.703                    20728272.570
 124886479.883 7  97314180.45743  23765106.648                    23765116.180
 113882379.088 7  88739537.81345  21671096.086                    21671103.551
 119590229.905 7  93187216.85744  22757263.352                    22757273.801
 11  8 13 18 48  0.0000000  0 10G01G07G28G19G17G13G08G26G11G24
 122136606.060 7  95171395.715 7  23241823.250                    23241834.461
 106706137.297 8  83147668.310 8  20305503.547                    20305510.113
 117225045.462 7  91344219.94345  22307184.781                    22307191.582
 121505857.668 7  94679904.12744  23121797.195                    23121802.883
 123904582.174 7  96549078.526 6  23578265.219                    23578274.773
 121663609.813 7  94802849.15644  23151821.195                    23151830.672
 108873925.804 8  84836852.94646  20718019.758                    20718026.848
 124810605.423 6  97255057.55143  23750668.086                    23750677.008
 113857068.294 7  88719815.13345  21666279.617                    21666286.883
 119530574.176 7  93140731.94144  22745911.609                    22745921.637
 11  8 13 18 48 30.0000000  0 10G01G07G28G19G17G13G08G26G11G24
 122114785.102 6  95154392.411 7  23237670.391                    23237681.918
 106706347.127 8  83147831.805 8  20305543.445                    20305549.574
 117197020.560 7  91322382.37045  22301851.805                    22301858.445
 121602984.229 7  94755587.11744  23140279.031                    23140285.461
 123808405.096 7  96474135.455 6  23559962.477                    23559973.145
 121772989.536 7  94888079.94744  23172635.477                    23172645.398
 108820364.881 8  84795117.15646  20707826.836                    20707834.129
 124735188.368 7  97196291.07043  23736316.680                    23736326.121
 113832280.352 7  88700499.87745  21661562.766                    21661569.617
 119471213.949 7  93094477.28444  22734615.297                    22734625.395
 11  8 13 18 49  0.0000000  0 10G01G07G28G19G17G13G08G26G11G24
 122093423.350 7  95137746.927 7  23233605.469                    23233616.777
 106706987.646 8  83148330.899 8  20305665.195                    20305672.117
 117169081.580 7  91300611.73645  22296535.242                    22296541.824
 121700328.457 7  94831439.71944  23158803.508                    23158809.539
 123712437.163 7  96399355.373 6  23541700.523                    23541710.617
 121882482.507 7  94973398.96244  23193471.953                    23193481.109
 108767088.606 8  84753603.16746  20697689.219                    20697696.086
 124660231.158 7  97137882.88943  23722053.289                    23722062.195
 113808016.907 8  88681593.31245  21656945.750                    21656952.449
 119412152.041 7  93048455.06344  22723376.445                    22723385.789
 11  8 13 18 49 30.0000000  0 10G01G07G28G19G17G13G08G26G11G24
 122072522.649 7  95121460.694 7  23229627.852                    23229639.344
 106708060.143 8  83149166.605 8  20305869.273                    20305876.063
 117141227.930 7  91278907.60745  22291235.148                    22291241.398
 121797887.835 7  94907459.94645  23177369.063                    23177374.629
 123616680.734 7  96324740.099 6  23523478.969                    23523489.121
 121992085.794 7  95058803.94944  23214329.133                    23214338.090
 108714099.533 8  84712312.98546  20687605.445                    20687612.723
 124585736.322 6  97079835.00843  23707877.555                    23707886.512
 113784280.080 8  88663097.11345  21652428.922                    21652435.422
 119353391.795 7  93002667.90244  22712194.984                    22712204.211
 11  8 13 18 50  0.0000000  0 10G01G07G28G19G17G13G08G26G11G24
 122052084.977 6  95105535.264 7  23225738.813                    23225750.367
 106709566.518 8  83150340.395 8  20306155.680                    20306162.723
 117113459.295 8  91257269.71845  22285950.797                    22285957.195
 121895659.899 7  94983645.93144  23195974.164                    23195980.031
 123521137.932 7  96250291.282 6  23505297.266                    23505307.688
 122101796.681 7  95144292.77444  23235205.641                    23235215.406
 108661400.609 8  84671248.88446  20677576.875                    20677584.203
 124511706.649 6  97022149.61643  23693789.836                    23693798.574
 113761071.900 8  88645012.83545  21648012.375                    21648018.590
 119294936.803 7  92957118.61744  22701071.047                    22701080.230
 11  8 13 18 50 30.0000000  0 10G01G07G28G19G17G13G08G26G11G24
 122032111.692 7  95089971.702 7  23221938.422                    23221949.785
 106711507.603 7  83151852.923 8  20306525.094                    20306531.531
 117085774.766 7  91235697.36645  22280682.406                    22280689.465
 121993641.988 7  95059995.56144  23214619.172                    23214624.984
 123425810.907 7  96176010.597 6  23487157.578                    23487167.141
 122211612.086 7  95229863.01944  23256103.016                    23256113.328
 108608994.194 8  84630412.72246  20667604.680                    20667611.531
 124438144.678 6  96964828.66243  23679791.320                    23679800.383
 113738393.453 8  88627341.33445  21643696.414                    21643703.617
 119236789.601 7  92911809.15944  22690005.938                    22690015.238
 11  8 13 18 51  0.0000000  0 10G01G07G28G19G17G13G08G26G11G24
 122012605.161 6  95074771.835 7  23218225.891                    23218237.203
 106713885.245 8  83153705.616 8  20306977.570                    20306984.430
 117058174.105 7  91214190.37245  22275430.211                    22275436.691
 122091831.447 7  95136506.76645  23233303.984                    23233310.109
 123330701.056 7  96101899.144 6  23469058.359                    23469068.234
 122321529.077 7  95315512.45044  23277019.742                    23277029.629
 108556883.303 8  84589806.84446  20657688.867                    20657695.512
 124365053.240 6  96907874.34943  23665882.531                    23665891.047
 113716247.121 8  88610084.47645  21639482.484                    21639489.004
 119178953.776 7  92866742.32944  22678999.938                    22679009.496
 11  8 13 18 51 30.0000000  0 10G01G07G28G19G17G13G08G26G11G24
 121993566.342 7  95059936.445 7  23214603.563                    23214614.039
 106716700.749 8  83155899.510 8  20307513.383                    20307519.938
 117030655.955 8  91192747.67645  22270193.688                    22270200.598
 122190225.436 7  95213177.35744  23252028.211                    23252033.867
 123235810.577 7  96027958.625 7  23451001.102                    23451011.059
 122431545.196 7  95401239.10544  23297955.305                    23297965.105
 108505070.091 8  84549432.91846  20647828.539                    20647836.023
 124292434.374 7  96851288.30143  23652063.375                    23652072.906
 113694634.190 8  88593243.25845  21635369.625                    21635376.621
 119121432.094 7  92821920.28644  22668054.172                    22668063.785
 11  8 13 18 52  0.0000000  0 10G01G07G28G19G17G13G08G26G11G24
 121974996.971 7  95045466.802 7  23211069.422                    23211080.695
 106719955.093 8  83158435.355 8  20308132.313                    20308139.086
 117003219.759 7  91171368.84045  22264972.570                    22264979.070
 122288821.250 7  95290005.21044  23270789.664                    23270796.363
 123141141.167 7  95954190.367 6  23432985.258                    23432996.188
 122541656.527 7  95487039.97344  23318908.414                    23318918.520
 108453556.483 8  84509292.44946  20638026.102                    20638032.742
 124220290.420 6  96795072.28743  23638335.852                    23638344.066
 113673555.817 8  88576818.57345  21631358.516                    21631365.762
 119064227.216 7  92777345.11344  22657168.039                    22657177.945
 11  8 13 18 52 30.0000000  0 10G01G07G28G19G17G13G08G26G11G24
 121956898.768 6  95031364.340 7  23207625.617                    23207636.984
 106723649.739 8  83161314.292 8  20308835.609                    20308842.461
 116975864.765 7  91150053.27845  22259767.273                    22259774.074
 122387616.272 7  95366988.29844  23289590.086                    23289596.695
 123046694.591 7  95880595.740 7  23415013.672                    23415023.426
 122651860.794 7  95572913.23643  23339879.586                    23339890.043
 108402345.811 8  84469388.03746  20628280.484                    20628288.082
 124148624.087 6  96739228.42243  23624697.391                    23624706.137
 113653013.447 7  88560811.53545  21627449.297                    21627456.313
 119007342.128 7  92733019.12444  22646343.391                    22646352.633
 11  8 13 18 53  0.0000000  0 10G01G07G28G19G17G13G08G26G11G24
 121939273.227 7  95017630.174 7  23204271.000                    23204282.891
 106727785.891 8  83164537.252 8  20309622.852                    20309629.672
 116948589.948 7  91128800.18645  22254577.211                    22254583.297
 122486607.537 7  95444124.30044  23308427.438                    23308433.852
 122952472.678 7  95807176.185 6  23397083.602                    23397093.328
 122762154.617 7  95658856.26843  23360868.602                    23360878.520
 108351440.554 8  84429721.61146  20618593.922                    20618601.098
 124077437.822 6  96683758.65843  23611151.188                    23611159.750
 113633009.328 7  88545223.92945  21623642.414                    21623649.695
 118950779.795 7  92688944.63244  22635579.914                    22635589.863
 11  8 13 18 53 30.0000000  0 10G01G07G28G19G17G13G08G26G11G24
 121922121.343 7  95004265.070 7  23201007.445                    23201018.859
 106732364.433 8  83168104.924 8  20310494.227                    20310500.934
 116921394.659 7  91107609.05945  22249401.922                    22249408.633
 122585792.215 7  95521411.01344  23327301.281                    23327308.348
 122858476.961 7  95733932.875 6  23379196.586                    23379206.422
 122872535.084 7  95744866.82444  23381873.328                    23381883.633
 108300842.756 8  84390294.75046  20608965.461                    20608972.879
 124006733.540 7  96628664.44443  23597696.266                    23597705.137
 113613544.251 8  88530056.35545  21619938.289                    21619946.316
 118894543.130 7  92645123.91344  22624878.094                    22624888.273
 11  8 13 18 54  0.0000000  0 10G01G07G28G19G17G13G08G26G11G24
 121905445.329 7  94991270.790 7  23197834.117                    23197845.738
 106737386.994 8  83172018.599 8  20311449.992                    20311456.637
 116894278.332 7  91086479.47245  22244241.852                    22244248.891
 122685167.910 7  95598846.57044  23346212.320                    23346218.492
 122764709.637 7  95660867.545 6  23361353.313                    23361363.273
 122982999.206 7  95830942.56943  23402894.008                    23402904.035
 108250555.195 8  84351109.63846  20599395.930                    20599403.148
 123936513.848 7  96573947.86343  23584333.617                    23584343.199
 113594619.987 8  88515310.19345  21616337.641                    21616344.137
 118838635.146 7  92601559.31644  22614239.078                    22614249.746
 11  8 13 18 54 30.0000000  0 10G01G07G28G19G17G13G08G26G11G24
 121889245.876 7  94978647.854 7  23194751.547                    23194762.313
 106742854.468 8  83176278.951 8  20312490.188                    20312497.270
 116867239.932 7  91065410.61245  22239096.719                    22239103.316
 122784731.488 7  95676428.54044  23365158.633                    23365164.434
 122671172.224 7  95587981.346 6  23343553.586                    23343563.395
 123093544.010 7  95917081.17643  23423930.453                    23423940.566
 108200580.060 8  84312167.97146  20589885.914                    20589893.313
 123866780.888 7  96519610.50343  23571063.898                    23571073.246
 113576237.704 8  88500986.34845  21612839.461                    21612846.313
 118783058.481 7  92558252.86644  22603663.609                    22603673.230
 11  8 13 18 55  0.0000000  0 10G01G07G28G19G17G13G08G26G11G24
 121873524.915 7  94966397.779 7  23191759.844                    23191771.227
 106748767.949 8  83180886.863 8  20313615.516                    20313622.309
 116840278.592 7  91044401.79545  22233966.047                    22233973.117
 122884480.243 6  95754154.80344  23384140.570                    23384146.559
 122577866.426 7  95515275.638 6  23325798.070                    23325807.547
 123204166.262 7  96003280.11944  23444980.875                    23444990.953
 108150919.767 8  84273471.64446  20580436.008                    20580443.152
 123797536.874 7  96465654.15144  23557887.688                    23557896.371
 113558398.677 7  88487085.81945  21609444.406                    21609451.680
 118727815.918 7  92515206.79144  22593151.000                    22593160.227
 11  8 13 18 55 30.0000000  0 10G01G07G28G19G17G13G08G26G11G24
 121858283.485 7  94954521.347 7  23188859.375                    23188870.613
 106755128.703 8  83185843.289 8  20314826.047                    20314832.824
 116813393.295 7  91023452.23145  22228850.039                    22228856.664
 122984411.719 7  95832023.42044  23403156.695                    23403163.180
 122484793.995 7  95442751.754 6  23308086.867                    23308096.574
 123314863.010 7  96089537.13644  23466046.414                    23466056.762
 108101576.912 8  84235022.68146  20571046.063                    20571053.539
 123728784.092 7  96412080.58543  23544804.742                    23544813.098
 113541104.473 8  88473609.84245  21606153.336                    21606160.574
 118672910.609 7  92472423.48644  22582703.008                    22582712.277
 11  8 13 18 56  0.0000000  0 10G01G07G28G19G17G13G08G26G11G24
 121843523.128 6  94943019.810 7  23186050.898                    23186062.012
 106761937.552 8  83191148.874 8  20316121.719                    20316128.141
 116786583.662 7  91002561.61545  22223748.102                    22223755.078
 123084522.689 6  95910031.92344  23422207.289                    23422213.289
 122391956.543 7  95370410.984 6  23290420.055                    23290430.332
 123425631.138 7  96175849.75043  23487124.852                    23487135.055
 108052553.439 8  84196822.57146  20561717.227                    20561724.785
 123660524.788 7  96358891.55144  23531814.734                    23531823.887
 113524356.209 7  88460559.24945  21602966.445                    21602973.469
 118618344.982 7  92429904.86444  22572319.055                    22572329.043
 11  8 13 18 56 30.0000000  0 10G01G07G28G19G17G13G08G26G11G24
 121829245.220 7  94931894.177 7  23183334.023                    23183344.684
 106769196.001 8  83196804.795 8  20317502.773                    20317509.578
 116759848.786 7  90981729.25745  22218660.633                    22218667.445
 123184810.850 6  95988178.49244  23441291.781                    23441297.762
 122299356.005 7  95298254.826 6  23272799.047                    23272808.977
 123536468.032 7  96262215.96843  23508215.602                    23508226.711
 108003852.391 8  84158873.72146  20552449.789                    20552456.965
 123592761.181 7  96306088.77843  23518919.797                    23518928.250
 113508155.393 7  88447935.24845  21599883.734                    21599890.668
 118564122.336 7  92387653.50644  22562001.211                    22562010.457
 11  8 13 18 57  0.0000000  0 10G01G07G28G19G17G13G08G26G11G24
 121815451.516 7  94921145.871 7  23180708.719                    23180720.480
 106776905.600 8  83202812.260 8  20318969.820                    20318976.789
 116733188.504 8  90960955.02945  22213587.352                    22213594.188
 123285273.843 7  96066461.28144  23460409.539                    23460415.203
 122206994.395 7  95226284.830 6  23255223.094                    23255232.531
 123647371.044 7  96348633.65243  23529320.797                    23529331.313
 107955476.778 8  84121178.44446  20543244.383                    20543251.613
 123525495.822 7  96253674.25543  23506119.664                    23506128.254
 113492503.709 8  88435739.13645  21596905.297                    21596912.141
 118510245.489 7  92345671.58344  22551748.406                    22551758.102
 11  8 13 18 57 30.0000000  0 10G01G07G28G19G17G13G08G26G11G24
 121802142.792 7  94910775.456 7  23178176.367                    23178187.293
 106785066.694 8  83209171.537 8  20320523.453                    20320529.809
 116706601.701 8  90940238.05745  22208527.750                    22208534.559
 123385908.679 6  96144877.98444  23479559.367                    23479565.914
 122114873.315 7  95154502.262 6  23237692.586                    23237702.559
 123758336.114 7  96435099.71243  23550436.898                    23550448.012
 107907428.522 8  84083738.24346  20534101.148                    20534108.250
 123458730.789 7  96201649.58943  23493414.867                    23493423.418
 113477401.891 8  88423971.49445  21594031.820                    21594038.711
 118456717.057 7  92303961.17644  22541562.711                    22541571.563
 11  8 13 18 58  0.0000000  0 10G01G07G28G19G17G13G08G26G11G24
 121789320.917 7  94900784.418 7  23175736.094                    23175747.789
 106793680.843 8  83215883.851 8  20322162.094                    20322168.969
 116680087.757 8  90919577.85045  22203482.633                    22203489.453
 123486712.655 7  96223426.49644  23498741.664                    23498748.203
 122022994.356 7  95082908.364 6  23220208.609                    23220218.199
 123869361.122 7  96521612.47143  23571563.766                    23571574.711
 107859710.236 8  84046555.16746  20525020.727                    20525027.684
 123392468.233 7  96150016.46643  23480805.063                    23480814.141
 113462851.447 8  88412633.50545  21591262.945                    21591269.473
 118403539.977 7  92262524.50344  22531443.500                    22531452.672
 11  8 13 18 58 30.0000000  0 10G01G07G28G19G17G13G08G26G11G24
 121776986.571 7  94891173.245 7  23173388.844                    23173399.711
 106802748.887 8  83222949.843 8  20323888.109                    20323894.406
 116653645.641 8  90898973.62045  22198450.922                    22198457.703
 123587682.947 6  96302104.58444  23517955.547                    23517962.141
 121931359.123 7  95011504.370 6  23202770.984                    23202780.820
 123980442.787 7  96608169.37043  23592702.492                    23592713.551
 107812323.902 8  84009630.75346  20516003.180                    20516010.660
 123326710.272 6  96098776.52143  23468291.719                    23468300.563
 113448853.364 8  88401725.92845  21588598.547                    21588605.461
 118350716.955 7  92221363.75844  22521391.570                    22521401.148
 11  8 13 18 59  0.0000000  0 10G01G07G28G19G17G13G08G26G11G24
 121765141.408 7  94881943.287 7  23171134.750                    23171146.344
 106812272.095 8  83230370.515 8  20325700.055                    20325706.699
 116627274.949 8  90878425.04745  22193432.703                    22193439.402
 123688816.999 6  96380910.28244  23537201.109                    23537207.563
 121839969.486 7  94940291.748 6  23185380.164                    23185389.914
 124091578.317 6  96694768.24843  23613851.359                    23613861.699
 107765272.786 8  83972967.54646  20507049.805                    20507056.957
 123261459.194 6  96047931.57643  23455874.656                    23455884.152
 113435409.173 8  88391249.95145  21586040.695                    21586047.406
 118298251.084 7  92180481.29744  22511406.836                    22511416.578
 11  8 13 18 59 30.0000000  0 10G01G07G28G19G17G13G08G26G11G24
 121753786.290 7  94873095.164 7  23168974.648                    23168985.613
 106822251.228 8  83238146.447 8  20327598.805                    20327605.930
 116600974.447 8  90857931.16645  22188427.805                    22188434.570
 123790112.171 6  96459841.51644  23556476.984                    23556483.023
 121748826.956 7  94869271.690 7  23168036.094                    23168046.191
 124202764.568 6  96781406.63043  23635008.133                    23635019.879
 107718558.856 8  83936567.08246  20498160.617                    20498167.848
 123196717.057 6  95997483.19543  23443554.961                    23443563.816
 113422519.682 8  88381206.21345  21583587.875                    21583594.988
 118246144.901 7  92139879.12044  22501491.883                    22501500.938
 11  8 13 19  0  0.0000000  0 10G01G07G28G19G17G13G08G26G11G24
 121742922.684 7  94864630.030 7  23166907.313                    23166918.289
 106832687.317 8  83246278.451 8  20329585.453                    20329591.754
 116574743.781 8  90837491.70345  22183436.359                    22183443.012
 123891565.809 6  96538896.22144  23575782.883                    23575789.695
 121657933.331 7  94798445.567 6  23150740.180                    23150749.680
 124313998.720 6  96868082.35943  23656176.844                    23656187.656
 107672184.833 8  83900431.48346  20489335.531                    20489342.715
 123132485.766 6  95947432.87743  23431331.805                    23431341.270
 113410186.173 8  88371595.70045  21581240.438                    21581247.301
 118194401.494 7  92099559.62344  22491645.328                    22491654.699
 11  8 13 19  0 30.0000000  0 10G01G07G28G19G17G13G08G26G11G24
 121732551.986 7  94856548.986 7  23164933.820                    23164944.703
 106843581.572 8  83254767.474 8  20331657.664                    20331664.715
 116548582.323 8  90817106.16945  22178457.992                    22178464.680
 123993175.172 6  96618072.29744  23595118.406                    23595125.418
 121567290.339 7  94727814.767 7  23133490.695                    23133500.906
 124425277.630 6  96954792.98643  23677352.750                    23677362.879
 107626152.993 8  83864562.51246  20480576.055                    20480582.926
 123068767.572 6  95897782.38544  23419207.234                    23419216.379
 113398410.028 8  88362419.50745  21578999.734                    21579006.707
 118143023.591 7  92059524.92644  22481868.680                    22481878.008
 11  8 13 19  1  0.0000000  0 10G01G07G28G19G17G13G08G26G11G24
 121722674.872 7  94848852.566 7  23163053.961                    23163065.699
 106854934.651 8  83263614.017 8  20333818.445                    20333825.500
 116522489.170 7  90796773.85445  22173492.531                    22173499.199
 124094937.784 6  96697367.76444  23614483.297                    23614490.168
 121476899.618 7  94657380.535 7  23116289.844                    23116299.871
 124536598.441 6  97041536.23443  23698536.688                    23698546.531
 107580465.955 8  83828962.22146  20471881.969                    20471889.152
 123005564.629 6  95848533.37244  23407179.945                    23407188.898
 113387191.887 8  88353678.10845  21576865.008                    21576871.895
 118092013.365 7  92019776.74744  22472161.453                    22472170.852
 11  8 13 19  1 30.0000000  0 10G01G07G28G19G17G13G08G26G11G24
 121713293.301 7  94841542.250 7  23161268.422                    23161280.020
 106866747.896 7  83272819.135 8  20336066.688                    20336073.469
 116496463.742 8  90776494.31745  22168540.250                    22168547.176
 124196851.019 7  96776780.61344  23633876.992                    23633883.188
 121386762.795 7  94587144.155 7  23099137.727                    23099147.344
 124647958.173 7  97128309.80843  23719728.359                    23719738.531
 107535126.005 8  83793632.37246  20463254.172                    20463261.539
 122942878.984 6  95799687.45743  23395250.711                    23395259.895
 113376533.170 8  88345372.63245  21574836.609                    21574843.484
 118041373.651 7  91980317.27644  22462524.672                    22462534.301
 11  8 13 19  2  0.0000000  0 10G01G07G28G19G17G13G08G26G11G24
 121704407.476 7  94834618.246 7  23159577.773                    23159588.773
 106879022.029 8  83282383.391 8  20338402.500                    20338409.168
 116470505.585 8  90756267.20345  22163600.539                    22163607.453
 124298911.943 6  96856308.55544  23653298.461                    23653304.531
 121296881.596 7  94517106.955 7  23082033.813                    23082043.273
 124759353.909 7  97215111.45243  23740925.930                    23740935.984
 107490135.565 8  83758574.89146  20454692.766                    20454700.246
 122880712.563 6  95751246.10943  23383421.055                    23383430.086
 113366434.479 8  88337503.54645  21572915.063                    21572922.039
 117991107.384 7  91941148.80345  22452960.008                    22452968.746
 11  8 13 19  2 30.0000000  0 10G01G07G28G19G17G13G08G26G11G24
 121696018.943 7  94828081.745 7  23157981.570                    23157992.559
 106891757.971 8  83292307.495 8  20340825.930                    20340832.465
 116444613.190 8  90736091.32345  22158673.148                    22158680.035
 124401117.904 6  96935949.51044  23672747.172                    23672754.441
 121207257.429 7  94447270.033 7  23064978.852                    23064987.984
 124870782.600 7  97301938.74443  23762129.734                    23762140.922
 107445497.136 8  83723791.69146  20446198.641                    20446205.637
 122819067.508 7  95703211.02444  23371690.391                    23371699.023
 113356897.290 8  88330071.99545  21571100.125                    21571107.242
 117941217.239 7  91902273.39245  22443465.547                    22443474.660
 11  8 13 19  3  0.0000000  0 10G01G07G28G19G17G13G08G26G11G24
 121688128.965 7  94821933.719 7  23156479.930                    23156491.332
 106904956.729 8  83302592.222 8  20343337.586                    20343344.402
 116418786.396 8  90715966.56545  22153758.516                    22153765.113
 124503466.348 6  97015701.48344  23692223.758                    23692230.039
 121117892.051 7  94377634.796 7  23047973.250                    23047982.801
 124982241.513 7  97388789.61043  23783340.359                    23783351.766
 107401213.011 8  83689284.57746  20437771.156                    20437778.477
 122757945.523 7  95655583.52244  23360059.438                    23360068.035
 113347922.342 8  88323078.55645  21569392.070                    21569398.984
 117891706.049 7  91863693.28944  22434044.258                    22434053.824
 11  8 13 19  3 30.0000000  0 10G01G07G28G19G17G13G08G26G11G24
 121680738.679 7  94816175.084 7  23155073.734                    23155085.086
 106918619.387 8  83313238.444 8  20345937.523                    20345944.422
 116393024.852 8  90695892.64345  22148856.516                    22148863.031
 124605954.851 6  97095562.61244  23711726.469                    23711733.637
 121028787.043 7  94308202.417 6  23031016.742                    23031026.172
 125093727.907 6  97475661.83143  23804555.406                    23804566.977
 107357286.328 8  83655055.98346  20429412.445                    20429419.500
 122697348.963 7  95608365.44344  23348528.391                    23348536.898
 113339510.884 8  88316524.18345  21567791.688                    21567798.484
 117842576.753 7  91825410.75444  22424695.336                    22424704.293
 11  8 13 19  4  0.0000000  0 10G01G07G28G19G17G13G08G26G11G24
 121673848.719 6  94810806.308 7  23153762.570                    23153774.105
 106932746.452 8  83324246.534 8  20348625.945                    20348632.609
 116367327.537 7  90675868.76845  22143966.602                    22143972.617
 124708580.787 7  97175530.81044  23731256.742                    23731262.547
 120939944.061 7  94238974.217 6  23014110.594                    23014119.430
 125205238.531 6  97562552.96243  23825774.992                    23825786.730
 107313719.125 8  83621107.50346  20421122.023                    20421129.355
 122637279.902 7  95561558.38543  23337096.539                    23337105.973
 113331663.608 7  88310409.44645  21566297.703                    21566305.039
 117793831.678 7  91787427.60044  22415419.125                    22415428.293
 11  8 13 19  4 30.0000000  0 10G01G07G28G19G17G13G08G26G11G24
 121667460.211 6  94805828.261 7  23152546.836                    23152558.012
 106947339.256 8  83335617.540 8  20351402.617                    20351409.355
 116341693.740 8  90655894.39345  22139088.367                    22139094.828
 124811341.682 6  97255604.19044  23750810.695                    23750816.789
 120851365.020 7  94169951.688 7  22997254.258                    22997263.500
 125316770.689 6  97649460.82643  23846999.445                    23847010.824
 107270513.971 8  83587441.15246  20412900.109                    20412907.188
 122577740.014 7  95515163.67743  23325767.727                    23325775.746
 113324381.639 7  88304735.19445  21564912.563                    21564919.516
 117745473.775 7  91749746.15544  22406217.531                    22406227.078
 11  8 13 19  5  0.0000000  0 10G01G07G28G19G17G13G08G26G11G24
 121661574.404 6  94801241.934 7  23151426.938                    23151437.656
 106962398.115 8  83347351.707 8  20354268.273                    20354274.781
 116316122.578 7  90635968.82145  22134222.242                    22134229.262
 124914234.618 7  97335780.46144  23770391.164                    23770397.168
 120763051.111 7  94101135.743 6  22980448.328                    22980457.648
 125428321.143 6  97736382.99843  23868227.461                    23868238.875
 107227673.061 8  83554058.62846  20404747.992                    20404755.035
 122518731.190 7  95469182.79844  23314538.625                    23314547.508
 113317665.821 8  88299502.09345  21563634.305                    21563641.137
 117697505.272 7  91712368.14745  22397088.508                    22397098.363
 11  8 13 19  5 30.0000000  0 10G01G07G28G19G17G13G08G26G11G24
 121656192.157 7  94797048.006 7  23150401.969                    23150413.234
 106977924.413 7  83359450.101 8  20357223.000                    20357229.773
 116290613.885 8  90616091.94045  22129367.844                    22129374.582
 125017256.974 7  97416057.54544  23789995.859                    23790001.633
 120675004.210 7  94032527.876 7  22963692.914                    22963703.129
 125539887.410 6  97823317.48143  23889457.922                    23889469.000
 107185198.947 8  83520961.91546  20396665.227                    20396672.199
 122460255.560 6  95423617.37844  23303410.992                    23303419.746
 113311516.806 8  88294710.68345  21562464.492                    21562471.035
 117649929.132 7  91675295.87344  22388035.430                    22388044.488
 11  8 13 19  6  0.0000000  0 10G01G07G28G19G17G13G08G26G11G24
 121651314.637 6  94793247.357 7  23149474.594                    23149485.129
 106993918.678 8  83371913.157 8  20360266.133                    20360273.563
 116265166.817 8  90596263.07045  22124525.367                    22124532.164
 125120406.345 6  97496433.62144  23809624.016                    23809630.453
 120587225.599 7  93964129.040 7  22946990.000                    22946999.973
 125651466.427 6  97910261.90943  23910690.820                    23910702.465
 107143094.306 8  83488153.10646  20388653.219                    20388660.129
 122402314.956 6  95378468.88244  23292384.336                    23292393.672
 113305935.701 8  88290361.77145  21561402.313                    21561409.129
 117602747.803 7  91638531.25344  22379056.734                    22379066.367
 11  8 13 19  6 30.0000000  0 10G01G07G28G19G17G13G08G26G11G24
 121646942.325 7  94789840.369 7  23148642.438                    23148653.328
 107010381.734 8  83384741.496 8  20363399.180                    20363405.938
 116239780.451 8  90576481.50045  22119694.930                    22119700.977
 125223680.288 7  97576906.77544  23829277.094                    23829282.766
 120499716.958 7  93895940.582 6  22930337.656                    22930346.738
 125763055.153 6  97997213.86543  23931925.859                    23931937.578
 107101361.053 8  83455633.69146  20380711.484                    20380718.520
 122344910.832 6  95333738.39444  23281461.430                    23281469.988
 113300923.043 8  88286455.81545  21560448.008                    21560455.168
 117555963.776 7  91602076.19145  22370154.586                    22370163.438
 11  8 13 19  7  0.0000000  0 10G01G07G28G19G17G13G08G26G11G24
 121643076.268 7  94786827.882 7  23147906.313                    23147917.527
 107027314.406 8  83397935.768 8  20366621.547                    20366628.070
 116214454.363 8  90556746.89845  22114875.234                    22114881.824
 125327075.812 7  97657474.64944  23848951.719                    23848958.359
 120412480.082 7  93827963.882 7  22913737.070                    22913746.000
 125874650.828 6  98084171.27243  23953161.328                    23953173.867
 107060002.020 8  83423405.88346  20372841.188                    20372848.672
 122288045.635 7  95289427.88844  23270640.242                    23270649.133
 113296479.922 8  88282993.65845  21559602.828                    21559610.074
 117509579.940 7  91565932.98844  22361327.500                    22361337.203
 11  8 13 19  7 30.0000000  0 10G01G07G28G19G17G13G08G26G11G24
 121639717.594 7  94784210.746 7  23147267.820                    23147278.898
 107044717.272 8  83411496.435 8  20369933.258                    20369939.699
 116189188.125 8  90537058.93745  22110067.727                    22110073.797
 125430590.586 6  97738135.45844  23868650.539                    23868656.633
 120325515.969 7  93760199.724 6  22897187.969                    22897197.219
 125986250.680 6  98171131.83343  23974398.664                    23974410.797
 107019019.297 8  83391471.28946  20365042.406                    20365049.961
 122231720.682 7  95245538.33144  23259922.336                    23259930.660
 113292606.750 8  88279975.60545  21558865.945                    21558872.883
 117463598.708 7  91530103.49245  22352577.789                    22352587.313
 11  8 13 19  8  0.0000000  0 10G01G07G28G19G17G13G08G26G11G24
 121636867.007 6  94781989.518 7  23146725.172                    23146736.426
 107062591.363 8  83425424.279 8  20373334.102                    20373340.934
 116163980.749 8  90517416.83745  22105270.711                    22105277.023
 125534222.236 6  97818887.31644  23888370.805                    23888377.031
 120238826.407 7  93692649.509 6  22880691.719                    22880700.684
 126097851.588 6  98258093.27143  23995636.195                    23995647.789
 106978415.614 8  83359832.05746  20357315.555                    20357322.809
 122175937.964 7  95202071.29744  23249307.539                    23249315.926
 113289304.376 8  88277402.33545  21558237.266                    21558244.309
 117418022.820 7  91494589.86045  22343904.742                    22343914.449
 11  8 13 19  8 30.0000000  0 10G01G07G28G19G17G13G08G26G11G24
 121634525.394 7  94780164.904 7  23146279.398                    23146290.918
 107080937.533 8  83439719.979 8  20376825.477                    20376832.602
 116138831.655 8  90497820.15745  22100484.469                    22100491.625
 125637967.922 6  97899728.03944  23908113.781                    23908119.871
 120152412.869 7  93625314.357 7  22864247.625                    22864256.453
 126209450.821 6  98345053.41043  24016873.430                    24016884.719
 106938193.409 8  83328490.08746  20349661.664                    20349668.836
 122120699.463 7  95159028.33444  23238795.266                    23238804.500
 113286573.890 8  88275274.69445  21557717.914                    21557724.605
 117372854.731 7  91459393.98045  22335309.727                    22335319.410
 11  8 13 19  9  0.0000000  0 10G01G07G28G19G17G13G08G26G11G24
 121632693.823 7  94778737.723 7  23145931.086                    23145942.164
 107099756.171 8  83454383.812 8  20380406.703                    20380413.656
 116113740.368 8  90478268.51545  22095710.070                    22095716.773
 125741824.993 6  97980655.56644  23927875.992                    23927882.512
 120066277.105 7  93558195.659 7  22847856.734                    22847866.215
 126321045.402 6  98432009.92943  24038108.742                    24038120.734
 106898354.811 8  83297447.02846  20342080.789                    20342087.410
 122066006.662 6  95116410.59144  23228387.773                    23228396.926
 113284415.600 7  88273592.91145  21557306.992                    21557314.121
 117328096.964 7  91424517.84345  22326792.273                    22326802.242
 11  8 13 19  9 30.0000000  0 10G01G07G28G19G17G13G08G26G11G24
 121631372.750 7  94777708.335 7  23145679.523                    23145690.609
 107119048.059 8  83469416.434 8  20384077.672                    20384084.898
 116088706.239 7  90458761.41445  22090945.742                    22090952.500
 125845791.249 7  98061668.15544  23947660.289                    23947666.832
 119980420.205 7  93491294.253 7  22831518.219                    22831527.512
 126432632.701 6  98518960.82243  24059343.273                    24059354.453
 106858902.336 8  83266704.83946  20334573.258                    20334580.332
 122011861.189 6  95074219.32544  23218084.188                    23218092.980
 113282830.206 7  88272357.53345  21557005.414                    21557012.313
 117283752.242 7  91389963.56144  22318353.938                    22318363.723
 11  8 13 19 10  0.0000000  0 10G01G07G28G19G17G13G08G26G11G24
 121630563.057 7  94777077.417 7  23145524.859                    23145536.504
 107138813.964 8  83484818.410 8  20387839.000                    20387845.902
 116063728.738 8  90439298.43845  22086193.258                    22086199.691
 125949864.249 7  98142763.94444  23967464.805                    23967471.438
 119894844.130 7  93424611.684 7  22815233.742                    22815242.684
 126544209.882 7  98605903.82243  24080576.211                    24080587.504
 106819838.832 8  83236265.74646  20327139.375                    20327146.707
 121958264.957 6  95032456.05844  23207885.258                    23207894.012
 113281818.673 7  88271569.32645  21556813.352                    21556820.270
 117239822.954 7  91355732.98245  22309994.609                    22310003.785
 11  8 13 19 10 30.0000000  0 10G01G07G28G19G17G13G08G26G11G24
 121630265.481 7  94776845.539 7  23145468.266                    23145479.668
 107159054.439 8  83500590.195 8  20391690.711                    20391697.535
 116038807.178 8  90419879.05445  22081450.711                    22081457.203
 126054041.296 7  98223940.81644  23987288.523                    23987295.816
 119809550.201 7  93358148.950 7  22799002.813                    22799012.074
 126655773.955 6  98692836.59343  24101806.172                    24101817.973
 106781165.943 8  83206131.03046  20319780.422                    20319787.684
 121905219.602 7  94991122.00544  23197791.016                    23197799.844
 113281381.350 8  88271228.55545  21556729.633                    21556736.762
 117196311.576 7  91321828.05745  22301714.672                    22301723.734
 11  8 13 19 11  0.0000000  0 10G01G07G28G19G17G13G08G26G11G24
 121630481.023 7  94777013.501 7  23145509.477                    23145520.855
 107179770.253 8  83516732.368 8  20395632.727                    20395639.582
 116013941.112 8  90400502.91245  22076718.906                    22076725.191
 126158319.807 7  98305196.73544  24007132.617                    24007139.191
 119724540.139 7  93291907.410 7  22782825.656                    22782835.230
 126767322.404 6  98779757.13443  24123033.000                    24123045.605
 106742886.864 8  83176303.18046  20312495.914                    20312503.309
 121852726.904 7  94950218.61944  23187801.609                    23187810.574
 113281519.018 7  88271335.83545  21556756.211                    21556763.035
 117153220.717 7  91288250.81245  22293514.359                    22293524.539
 11  8 13 19 11 30.0000000  0 10G01G07G28G19G17G13G08G26G11G24
 121631210.213 7  94777581.703 7  23145648.508                    23145659.184
 107200961.966 8  83533245.376 8  20399665.477                    20399672.313
 115989129.718 8  90381169.37745  22071997.492                    22072003.945
 126262697.487 7  98386529.94844  24026995.234                    24027001.531
 119639815.158 7  93225888.012 7  22766703.172                    22766712.293
 126878851.892 6  98866662.86543  24144257.078                    24144269.313
 106705003.441 8  83146783.62646  20305287.359                    20305294.094
 121800788.470 7  94909747.09944  23177918.039                    23177927.051
 113282231.969 7  88271891.39245  21556891.617                    21556898.293
 117110552.846 7  91255003.15045  22285395.078                    22285404.813
 11  8 13 19 12  0.0000000  0 10G01G07G28G19G17G13G08G26G11G24
 121632453.556 7  94778550.559 7  23145885.102                    23145896.410
 107222630.137 8  83550129.665 8  20403788.992                    20403795.566
 115964372.300 8  90361877.89545  22067286.219                    22067292.875
 126367171.829 7  98467938.46944  24046876.805                    24046882.574
 119555376.388 7  93160091.659 7  22750634.703                    22750644.355
 126990359.86515  98953551.84953  24165474.820                    24165489.121
 106667517.753 8  83117573.99746  20298153.813                    20298161.441
 121749405.696 7  94869708.56844  23168141.047                    23168149.352
 113283520.670 7  88272895.58845  21557136.664                    21557143.859
 117068310.217 7  91222086.86545  22277356.445                    22277365.984
 11  8 13 19 12 30.0000000  0 10G01G07G28G19G17G13G08G26G11G24
 121634211.841 7  94779920.646 7  23146219.383                    23146230.770
 107244775.770 8  83567385.978 8  20408003.063                    20408009.957
 115939668.590 8  90342628.26145  22062585.352                    22062591.578
 126471740.225 7  98549420.28043  24066775.352                    24066781.469
 119471225.580 7  93094519.682 7  22734621.539                    22734630.652
 127101843.55616  99040421.83253  24186691.945                    24186704.348
 106630432.609 8  83088676.48246  20291096.828                    20291104.047
 121698580.462 7  94830104.50344  23158468.547                    23158477.711
 113285385.921 8  88274349.04345  21557491.797                    21557498.758
 117026495.495 7  91189504.00445  22269399.227                    22269408.914
 11  8 13 19 13  0.0000000  0 10G01G07G28G19G17G13G08G26G11G24
 121636485.747 6  94781692.534 7  23146652.422                    23146664.102
 107267398.771 8  83585014.278 8  20412308.250                    20412315.148
 115915017.959 8  90323419.99245  22057894.500                    22057900.813
 126576400.169 7  98630973.42144  24086691.539                    24086697.637
 119387364.214 7  93029173.241 7  22718663.148                    22718672.398
 127213299.956 6  99127270.61543  24207901.742                    24207914.434
 106593750.602 8  83060093.09446  20284116.734                    20284123.648
 121648314.273 7  94790936.06044  23148903.414                    23148912.121
 113287827.988 8  88276251.96345  21557956.242                    21557963.480
 116985110.881 7  91157256.28945  22261524.023                    22261533.063
 11  8 13 19 13 30.0000000  0 10G01G07G28G19G17G13G08G26G11G24
 121639275.825 7  94783866.618 7  23147183.156                    23147194.691
 107290500.152 8  83603015.336 8  20416704.125                    20416710.980
 115890419.696 8  90304252.52045  22053213.359                    22053220.109
 126681149.335 6  98712596.08343  24106624.195                    24106631.184
 119303793.544 7  92964053.315 7  22702759.930                    22702769.457
 127324726.383 7  99214096.06944  24229105.672                    24229117.590
 106557473.924 8  83031825.55746  20277213.281                    20277220.508
 121598608.665 7  94752204.41944  23139444.734                    23139453.590
 113290847.422 7  88278604.78545  21558530.523                    21558537.680
 116944159.125 7  91125345.86345  22253731.141                    22253740.695
 11  8 13 19 14  0.0000000  0 10G01G07G28G19G17G13G08G26G11G24
 121642582.689 6  94786443.410 7  23147812.648                    23147824.164
 107314080.217 8  83621389.396 8  20421190.953                    20421197.992
 115865873.320 7  90285125.50145  22048542.477                    22048548.578
 126785985.153 6  98794286.26844  24126573.938                    24126580.559
 119220515.058 7  92899161.072 7  22686912.258                    22686921.672
 127436120.180 6  99300896.09944  24250303.609                    24250316.098
 106521604.889 8  83003875.65646  20270387.313                    20270394.828
 121549465.067 7  94713910.71044  23130093.148                    23130101.785
 113294444.568 8  88281407.77145  21559215.836                    21559222.551
 116903642.382 7  91093774.40945  22246021.102                    22246030.324
 11  8 13 19 14 30.0000000  0 10G01G07G28G19G17G13G08G26G11G24
 121646407.027 6  94789423.426 7  23148540.227                    23148551.957
 107338139.564 8  83640136.920 8  20425769.602                    20425776.648
 115841378.220 8  90266038.42246  22043881.242                    22043887.824
 126890905.274 6  98876042.15843  24146539.484                    24146545.645
 119137530.319 7  92834497.710 7  22671120.883                    22671130.105
 127547478.319 7  99387668.33743  24271494.016                    24271507.055
 106486145.787 8  82976245.19046  20263640.078                    20263647.191
 121500884.948 7  94676056.09344  23120849.047                    23120857.496
 113298619.845 8  88284661.24545  21560010.070                    21560016.699
 116863563.034 7  91062543.79545  22238394.297                    22238403.543
 11  8 13 19 15  0.0000000  0 10G01G07G28G19G17G13G08G26G11G24
 121650749.296 6  94792807.024 7  23149366.023                    23149377.969
 107362678.544 8  83659258.185 8  20430439.086                    20430446.020
 115816933.872 8  90246990.89745  22039229.844                    22039236.094
 126995907.066 6  98957861.67443  24166520.367                    24166527.477
 119054840.520 7  92770064.182 7  22655385.828                    22655395.055
 127658798.143 6  99474410.72643  24292678.250                    24292690.441
 106451098.779 8  82948935.83446  20256970.828                    20256977.723
 121452869.765 7  94638641.65744  23111711.469                    23111720.262
 113303373.483 8  88288365.39145  21560914.430                    21560921.328
 116823923.375 7  91031655.78445  22230850.984                    22230860.164
 11  8 13 19 15 30.0000000  0 10G01G07G28G19G17G13G08G26G11G24
 121655610.087 6  94796594.669 7  23150291.672                    23150302.906
 107387697.821 8  83678753.697 8  20435200.133                    20435207.180
 115792539.743 8  90227982.50745  22034587.469                    22034594.395
 127100988.218 6  99039742.99643  24186516.984                    24186523.945
 118972446.808 7  92705861.370 7  22639706.867                    22639716.043
 127770076.799 6  99561121.00843  24313853.531                    24313867.145
 106416466.055 8  82921949.29946  20250380.523                    20250387.621
 121405421.134 7  94601668.72744  23102682.555                    23102691.266
 113308705.893 7  88292520.52745  21561929.289                    21561935.777
 116784725.681 7  91001112.15444  22223391.742                    22223400.914
 11  8 13 19 16  0.0000000  0 10G01G07G28G19G17G13G08G26G11G24
 121660989.805 6  94800786.673 7  23151315.766                    23151326.234
 107413197.802 8  83698623.791 7  20440052.852                    20440059.582
 115768195.237 8  90209012.77046  22029954.406                    22029961.477
 127206146.202 6  99121684.19844  24206528.789                    24206534.965
 118890350.875 7  92641890.597 7  22624084.555                    22624093.051
 127881311.581 6  99647797.16442  24335020.953                    24335034.125
 106382249.933 8  82895287.38546  20243869.531                    20243876.445
 121358540.184 7  94565138.11144  23093761.508                    23093770.125
 113314617.604 7  88297127.06945  21563054.422                    21563061.012
 116745972.232 7  90970914.70945  22216017.336                    22216025.699
 11  8 13 19 16 30.0000000  0 10G01G07G28G19G17G13G08G26G11G24
 121666889.181 7  94805383.613 7  23152438.086                    23152448.875
 107439179.106 8  83718868.950 8  20444996.961                    20445003.590
 115743900.070 7  90190081.48845  22025331.344                    22025338.414
 127311378.568 7  99203683.37444  24226552.930                    24226560.422
 118808554.215 7  92578153.011 7  22608518.992                    22608527.785
 127992500.003 6                  24356179.883
 106348453.291 8  82868952.33946  20237437.930                    20237444.953
 121312228.945 7  94529051.45944  23084948.664                    23084957.398
 113321108.999 7  88302185.30045  21564289.305                    21564296.492
 116707665.778 7  90941065.53844  22208727.727                    22208736.477
 11  8 13 19 17  0.0000000  0 10G01G07G28G19G17G13G08G26G11G24
 121673308.699 6  94810385.854 7  23153659.398                    23153670.496
 107465642.263 8  83739489.565 8  20450032.773                    20450039.813
 115719653.682 8  90171188.20645  22020717.617                    22020724.496
 127416683.111 7  99285738.78444  24246592.406                    24246598.852
 118727057.874 7  92514649.465 7  22593010.594                    22593019.855
 128103639.103 5                  24377328.891
 106315078.111 8  82842945.70446  20231086.648                    20231093.707
 121266488.481 7  94493409.55344  23076244.367                    23076252.957
 113328180.047 7  88307695.22145  21565634.781                    21565641.820
 116669808.599 7  90911566.46844  22201523.656                    22201533.129
 11  8 13 19 17 30.0000000  0 10G01G07G28G19G17G13G08G26G11G24
 121680248.268 7  94815793.345 7  23154980.180                    23154991.074
 107492587.045 8  83760485.480 8  20455160.328                    20455166.895
 115695455.172 8  90152332.24345  22016112.805                    22016119.418
 127522057.448 6  99367848.59044  24266644.180                    24266650.785
 118645863.101 7  92451380.898 7  22577559.273                    22577568.398
 128214725.886 6                  24398468.469
 106282126.293 8  82817268.96146  20224816.273                    20224823.816
 121221319.814 7  94458213.17944  23067649.023                    23067658.180
 113335831.078 8  88313657.08345  21567091.141                    21567098.355
 116632402.501 7  90882418.88744  22194406.219                    22194414.457
 11  8 13 19 18  0.0000000  0 10G01G07G28G19G17G13G08G26G11G24
 121687708.858 6  94821606.811 7  23156399.797                    23156411.012
 107520014.563 8  83781857.544 8  20460379.352                    20460386.168
 115671304.537 7  90133513.58245  22011517.578                    22011523.309
 127627499.469 7  99450011.12944  24286709.352                    24286715.727
 118564971.688 7  92388348.708 7  22562166.289                    22562175.227
 128325757.971 6                  24419597.578
 106249601.063 8  82791924.62246  20218626.789                    20218634.105
 121176724.773 7  94423463.80944  23059162.945                    23059171.551
 113344062.273 7  88320070.99745  21568657.414                    21568664.559
 116595450.302 7  90853624.98944  22187374.172                    22187382.723
 11  8 13 19 18 30.0000000  0 10G01G07G28G19G17G13G08G26G11G24
 121695690.556 6  94827826.328 7  23157918.219                    23157929.852
 107547924.782 8  83803605.747 8  20465690.516                    20465697.746
 115647200.676 7  90114731.36745  22006930.203                    22006936.984
 127733006.338 6  99532224.19343  24306786.367                    24306793.574
 118484384.624 7  92325553.662 7  22546831.047                    22546840.160
 128436732.232 6                  24440715.852
 106217503.981 8  82766913.89846  20212519.430                    20212526.664
 121132704.588 7  94389162.38244  23050785.914                    23050794.711
 113352873.822 7  88326937.14245  21570334.156                    21570341.094
 116558953.932 7  90825186.27344  22180428.992                    22180437.414
 11  8 13 19 19  0.0000000  0 10G01G07G28G19G17G13G08G26G11G24
 121704193.779 6  94834452.229 7  23159536.445                    23159547.730
 107576318.204 8  83825730.466 8  20471093.719                    20471100.203
 115623143.608 8  90095985.60745  22002352.422                    22002358.867
 127838575.964 6  99614486.16443  24326875.453                    24326882.996
 118404103.213 7  92262996.793 7  22531553.891                    22531562.906
 128547646.255 7                  24461822.445
 106185837.556 8  82742238.75646  20206493.367                    20206500.352
 121089260.224 7  94355309.64544  23042518.484                    23042527.703
 113362266.375 8  88334256.02745  21572121.477                    21572128.422
 116522915.773 7  90797104.62745  22173571.164                    22173580.066
 11  8 13 19 19 30.0000000  0 10G01G07G28G19G17G13G08G26G11G24
 121713219.283 7  94841485.087 7  23161254.148                    23161265.645
 107605195.379 8  83848232.138 8  20476589.148                    20476595.773
 115599132.869 8  90077275.95045  21997783.336                    21997789.617
 127944205.869 6  99696795.10543  24346975.977                    24346983.680
 118324129.016 7  92200679.316 7  22516335.547                    22516344.105
 128658497.298 7 100253503.00653  24482916.391                    24482930.078
 106154604.065 8  82717900.97546  20200549.297                    20200556.848
 121046393.528 7  94321907.02144  23034361.273                    23034370.391
 113372239.628 8  88342027.40145  21574019.297                    21574026.215
 116487338.119 7  90769381.79545  22166801.234                    22166810.000
 11  8 13 19 20  0.0000000  0 10G01G07G28G19G17G13G08G26G11G24
 121722767.329 7  94848925.123 7  23163070.484                    23163082.148
 107634556.697 8  83871111.064 8  20482176.055                    20482183.344
 115575168.467 8  90058602.40445  21993223.219                    21993229.684
 128049893.655 6  99779149.15643  24367088.297                    24367095.305
 118244463.254 7  92138602.175 7  22501175.570                    22501184.543
 128769283.179 6 100339829.29943  24503999.219                    24504011.949
 106123806.466 8  82693902.83946  20194688.922                    20194696.270
 121004105.692 7  94288955.46244  23026314.602                    23026323.664
 113382794.114 8  88350251.68745  21576028.023                    21576034.848
 116452223.331 7  90742019.65145  22160119.172                    22160127.336
 11  8 13 19 20 30.0000000  0 10G01G07G28G19G17G13G08G26G11G24
 121732837.781 6  94856772.236 7  23164987.680                    23164998.543
 107664401.940 8  83894367.071 8  20487855.688                    20487862.484
 115551249.216 8  90039964.03445  21988671.266                    21988678.094
 128155637.314 6  99861546.72243  24387210.688                    24387217.676
 118165106.936 7  92076766.158 7  22486074.508                    22486083.512
 128880000.368 6 100426102.10743  24525067.875                    24525081.488
 106093445.989 8  82670245.31446  20188911.484                    20188918.723
 120962397.458 7  94256455.56444  23018377.172                    23018386.531
 113393929.186 8  88358928.37245  21578146.359                    21578153.406
 116417573.002 7  90715019.43645  22153524.773                    22153533.805
 11  8 13 19 21  0.0000000  0 10G01G07G28G19G17G13G08G26G11G24
 121743430.884 7  94865026.613 7  23167003.297                    23167014.137
 107694731.401 8  83918000.371 8  20493627.313                    20493634.281
 115527374.460 8  90021360.33545  21984127.758                    21984134.875
 128261434.084 6  99943985.71043  24407343.617                    24407349.379
 118086061.421 7  92015172.320 7  22471032.508                    22471041.254
 128990646.427 6 100512319.44543  24546122.711                    24546136.813
 106063524.983 8  82646930.23546  20183217.883                    20183224.930
 120921270.227 7  94224408.36844  23010551.773                    23010560.199
 113405645.394 8  88368057.89145  21580375.875                    21580382.980
 116383389.298 7  90688382.82845  22147019.875                    22147029.367
 11  8 13 19 21 30.0000000  0 10G01G07G28G19G17G13G08G26G11G24
 121754547.230 7  94873688.681 7  23169118.664                    23169129.941
 107725545.591 8  83942011.409 8  20499490.750                    20499497.941
 115503544.079 8  90002791.22245  21979593.148                    21979600.348
 128367281.723 6 100026464.31943  24427485.273                    24427491.840
 118007327.990 7  91953821.677 7  22456049.750                    22456058.719
 129101218.756 6 100598479.38442  24567164.773                    24567178.008
 106034045.529 8  82623959.23346  20177608.406                    20177615.219
 120880724.982 7  94192814.69644  23002835.477                    23002844.891
 113417942.488 8  88377640.04945  21582715.859                    21582723.145
 116349674.618 7  90662111.68545  22140604.234                    22140613.297
 11  8 13 19 22  0.0000000  0 10G01G07G28G19G17G13G08G26G11G24
 121766186.883 7  94882758.544 7  23171333.742                    23171344.496
 107756844.528 8  83966400.196 8  20505446.992                    20505453.809
 115479757.522 8  89984256.24546  21975066.773                    21975073.379
 128473177.984 6 100108980.84543  24447637.102                    24447643.523
 117928907.700 7  91892715.024 7  22441127.281                    22441136.098
 129211714.736 6 100684579.78142  24588191.961                    24588205.219
 106005010.181 8  82601334.28646  20172082.734                    20172090.156
 120840762.925 7  94161675.46544  22995231.336                    22995239.949
 113430820.575 8  88387674.92445  21585167.125                    21585173.730
 116316431.072 7  90636207.66545  22134278.375                    22134287.121
 11  8 13 19 22 30.0000000  0 10G01G07G28G19G17G13G08G26G11G24
 121778350.400 7  94892236.597 7  23173648.398                    23173659.422
 107788628.987 8  83991167.291 7  20511495.086                    20511502.055
 115456014.722 8  89965755.37145  21970548.453                    21970555.141
 128579120.482 6 100191533.37343  24467797.195                    24467803.957
 117850802.220 7  91831853.681 7  22426263.750                    22426272.766
 129322131.673 6 100770618.62842  24609203.391                    24609218.246
 105976421.218 8  82579057.16146  20166642.664                    20166649.949
 120801385.452 7  94130991.72044  22987737.766                    22987746.895
 113444279.933 8  88398162.74745  21587728.141                    21587734.500
 116283661.072 7  90610672.63645  22128042.375                    22128051.742
 11  8 13 19 23  0.0000000  0 10G01G07G28G19G17G13G08G26G11G24
 121791037.558 7  94902122.684 7  23176062.391                    23176073.387
 107820898.847 8  84016312.611 8  20517635.977                    20517642.668
 115432315.173 8  89947288.19545  21966039.063                    21966045.641
 128685107.372 6 100274120.47043  24487966.133                    24487972.555
 117773012.714 7  91771238.557 7  22411461.602                    22411469.527
 129432466.877 6 100856593.79942  24630200.305                    24630213.637
 105948280.947 8  82557129.68146  20161287.859                    20161294.918
 120762593.262 7  94100764.06344  22980356.117                    22980364.504
 113458320.294 8  88409103.28745  21590400.227                    21590406.723
 116251366.263 7  90585507.88845  22121896.547                    22121905.766
 11  8 13 19 23 30.0000000  0 10G01G07G28G19G17G13G08G26G11G24
 121804248.164 7  94912416.666 7  23178576.367                    23178587.426
 107853653.586 8  84041835.759 8  20523869.078                    20523875.836
 115408657.854 8  89928853.92945  21961537.047                    21961543.918
 128791135.888 6 100356740.05443  24508142.445                    24508148.961
 117695539.858 7  91710870.156 7  22396718.109                    22396727.031
 129542717.492 6 100942503.09842  24651179.656                    24651194.344
 105920590.778 8  82535552.92346  20156018.523                    20156025.676
 120724387.306 7  94070993.18044  22973085.734                    22973094.816
 113472941.174 8  88420496.19645  21593181.867                    21593188.711
 116219548.530 7  90560714.88545  22115842.016                    22115851.086
 11  8 13 19 24  0.0000000  0 10G01G07G28G19G17G13G08G26G11G24
 121817983.915 7  94923119.837 7  23181190.133                    23181201.238
 107886895.009 8  84067738.141 8  20530194.797                    20530201.484
 115385043.524 7  89910453.16746  21957043.281                    21957050.145
 128897204.509 6 100439390.86743  24528327.547                    24528333.504
 117618385.719 7  91650750.119 7  22382036.555                    22382045.137
 129652881.534 6 101028344.88642  24672143.422                    24672158.602
 105893354.101 8  82514329.53346  20150835.719                    20150842.660
 120686769.726 7  94041680.80044  22965926.719                    22965936.051
 113488143.724 8  88432342.33945  21596075.250                    21596081.383
 116188211.168 7  90536296.18845  22109878.883                    22109888.230
 11  8 13 19 24 30.0000000  0  9G01G07G28G19G17G08G26G11G24
 121832244.345 7  94934231.868 7  23183903.602                    23183915.207
 107920622.884 8  84094019.575 7  20536613.195                    20536619.762
 115361471.526 8  89892085.38945  21952557.844                    21952564.641
 129003310.995 6 100522071.15943  24548518.039                    24548524.801
 117541551.435 7  91590879.316 7  22367415.656                    22367423.961
 105866573.037 8  82493461.16446  20145739.195                    20145746.207
 120649741.235 7  94012827.41844  22958881.219                    22958889.859
 113503927.632 8  88444641.48945  21599078.703                    21599085.379
 116157355.729 7  90512253.02945  22104007.047                    22104016.402
 11  8 13 19 25  0.0000000  0  9G01G07G28G19G17G08G26G11G24
 121847028.880 7  94945752.278 7  23186716.695                    23186728.270
 107954836.543 8  84120679.552 8  20543123.336                    20543130.320
 115337940.588 7  89873749.59745  21948079.828                    21948086.641
 129109452.113 6 100604778.47443  24568716.117                    24568722.977
 117465037.429 7  91531258.075 7  22352855.430                    22352863.793
 105840248.859 8  82472948.81146  20140729.781                    20140736.898
 120613302.213 7  93984433.39644  22951946.711                    22951956.145
 113520291.747 8  88457392.75945  21602192.422                    21602199.422
 116126983.641 7  90488586.51245  22098227.469                    22098236.355
 11  8 13 19 25 30.0000000  0  9G01G07G28G19G17G08G26G11G24
 121862337.292 7  94957680.907 7  23189630.586                    23189641.145
 107989535.965 8  84147718.026 7  20549726.789                    20549733.891
 115314450.607 8  89855445.72645  21943609.828                    21943616.691
 129215625.979 6 100687511.29044  24588921.102                    24588927.883
 117388844.834 7  91471887.281 7  22338356.141                    22338364.254
 105814383.821 8  82452794.22746  20135808.031                    20135815.180
 120577453.399 7  93956499.24844  22945124.875                    22945133.953
 113537236.188 8  88470596.22545  21605417.008                    21605423.910
 116097096.804 7  90465298.09645  22092540.469                    22092549.363
 11  8 13 19 26  0.0000000  0  9G01G07G28G19G17G08G26G11G24
 121878169.761 7  94970017.894 7  23192643.000                    23192653.438
 108024721.124 8  84175135.000 7  20556422.328                    20556428.926
 115291001.079 8  89837173.36645  21939147.703                    21939154.641
 129321830.024 6 100770267.63344  24609130.469                    24609137.348
 117312974.667 7  91412767.722 7  22323918.539                    22323926.773
 105788979.622 8  82432998.74146  20130973.664                    20130980.852
 120542195.783 7  93929025.77944  22938415.688                    22938424.516
 113554760.648 8  88484251.65045  21608751.773                    21608759.078
 116067697.030 7  90442389.22745  22086945.164                    22086954.488
 11  8 13 19 26 30.0000000  0  9G01G07G28G19G17G08G26G11G24
 121894526.766 7  94982763.622 7  23195755.930                    23195766.754
 108060392.374 8  84202930.746 7  20563210.680                    20563217.098
 115267591.584 7  89818932.21345  21934692.852                    21934699.520
 129428062.128 6 100853045.80544  24629346.203                    24629352.777
 117237428.234 7  91353900.431 7  22309542.633                    22309551.160
 105764038.856 7  82413564.37046  20126227.563                    20126234.563
 120507530.363 7  93902013.77144  22931818.492                    22931827.879
 113572864.884 8  88498358.84745  21612197.227                    21612203.926
 116038786.549 7  90419861.61945  22081443.930                    22081452.910
 11  8 13 19 27  0.0000000  0  9G01G07G28G19G17G08G26G11G24
 121911408.279 7  94995918.059 7  23198968.164                    23198979.242
 108096550.141 8  84231105.599 8  20570090.820                    20570097.930
 115244222.384 8  89800722.44345  21930246.055                    21930252.359
 129534320.418 6 100935844.40943  24649565.961                    24649573.293
 117162206.787 7  91295286.381 7  22295228.172                    22295236.770
 105739563.664 8  82394492.79046  20121570.156                    20121577.590
 120473458.145 7  93875463.97944  22925335.492                    22925344.258
 113591548.866 8  88512917.79145  21615752.438                    21615759.566
 116010367.525 7  90397716.96945  22076035.922                    22076044.973
 11  8 13 19 27 30.0000000  0  9G01G07G28G19G17G08G26G11G24
 121928813.999 7  95009480.951 7  23202280.500                    23202291.184
 108133194.093 8  84259659.299 8  20577063.898                    20577070.699
 115220892.262 8  89782543.13645  21925806.398                    21925812.910
 129640602.401 6 101018661.47743  24669790.758                    24669798.371
 117087311.543 7  91236926.510 7  22280975.742                    22280984.656
 105715556.121 8  82375785.61046  20117001.609                    20117009.047
 120439979.938 7  93849377.07944  22918965.008                    22918973.699
 113610812.146 8  88527928.13945  21619418.219                    21619425.051
 115982441.351 7  90375956.35445  22070721.727                    22070730.324
 11  8 13 19 28  0.0000000  0  9G01G07G28G19G17G08G26G11G24
 121946744.094 6  95023452.452 7  23205692.430                    23205703.277
 108170324.195 8  84288591.815 7  20584129.945                    20584136.609
 115197601.214 8  89764394.27145  21921374.313                    21921380.801
 129746906.159 6 101101495.49443  24690020.320                    24690027.055
 117012743.378 7  91178821.500 7  22266786.188                    22266794.422
 105692018.500 8  82357444.61046  20112522.805                    20112529.605
 120407096.687 7  93823753.76144  22912706.844                    22912716.176
 113630654.594 8  88543389.77945  21623193.945                    21623200.934
 115955010.152 7  90354581.43945  22065501.711                    22065510.586
 11  8 13 19 28 30.0000000  0  9G01G07G28G19G17G08G26G11G24
 121965198.551 7  95037832.561 7  23209203.953                    23209215.238
 108207940.360 8  84317903.078 7  20591287.719                    20591294.605
 115174348.771 7  89746275.49146  21916949.641                    21916956.207
 129853229.482 6 101184344.75443  24710252.008                    24710259.797
 116938503.359 7  91120972.187 7  22252658.727                    22252667.270
 105668952.499 8  82339471.10246  20108133.172                    20108140.535
 120374808.872 7  93798594.44744  22906562.703                    22906571.914
 113651075.720 8  88559302.35445  21627079.625                    21627087.043
 115928075.839 7  90333593.70745  22060376.453                    22060385.223
 11  8 13 19 29  0.0000000  0  9G01G07G28G19G17G08G26G11G24
 121984176.964 7  95052620.923 7  23212816.070                    23212826.988
 108246042.899 8  84347593.344 7  20598538.945                    20598545.609
 115151135.019 7  89728186.86746  21912531.680                    21912538.391
 129959570.088 6 101267207.45243  24730488.859                    24730495.891
 116864592.580 7  91063379.424 7  22238593.813                    22238602.430
 105646360.301 8  82321866.78146  20103834.453                    20103841.250
 120343117.676 7  93773900.02244  22900532.273                    22900541.371
 113672075.365 8  88575665.71645  21631076.070                    21631083.121
 115901640.162 7  90312994.51045  22055345.453                    22055353.930
 11  8 13 19 29 30.0000000  0  9G01G07G28G19G17G08G26G11G24
 122003679.462 7  95067817.682 7  23216527.008                    23216537.668
 108284631.355 8  84377662.238 7  20605881.805                    20605888.645
 115127959.365 7  89710127.92346  21908121.813                    21908128.715
 130065925.820 6 101350081.98442  24750726.852                    24750735.219
 116791012.053 8  91006044.015 7  22224592.234                    22224600.727
 105624243.435 8  82304632.85946  20099625.547                    20099632.738
 120312023.308 7  93749670.66344  22894615.734                    22894624.066
 113693652.811 8  88592479.30245  21635181.875                    21635188.613
 115875704.790 7  90292785.17345  22050410.391                    22050419.414
 11  8 13 19 30  0.0000000  0  9G01G07G28G19G17G08G26G11G24
 122023705.985 7  95083422.764 7  23220337.719                    23220348.953
 108323706.167 8  84408110.117 7  20613317.477                    20613324.285
 115104821.714 7  89692098.58745  21903719.211                    21903725.586
 130172294.745 5 101432966.73642  24770969.086                    24770975.762
 116717762.962 7  90948966.867 7  22210652.992                    22210661.539
 105602604.751 8  82287771.54446  20095507.594                    20095514.563
 120281527.017 7  93725907.32244  22888812.500                    22888820.906
 113715807.946 8  88609743.04645  21639398.227                    21639404.961
 115850272.132 7  90272967.55345  22045570.516                    22045579.031
 11  8 13 19 30 30.0000000  0  9G01G07G28G19G17G08G26G11G24
 122044256.104 7  95099435.841 7  23224248.711                    23224259.629
 108363266.989 8  84438936.705 7  20620845.672                    20620852.902
 115081721.495 7  89674098.42145  21899323.383                    21899329.281
 130278674.388 6 101515859.88442  24791211.891                    24791219.523
 116644846.201 8  90892148.678 7  22196777.570                    22196785.691
 105581445.694 8  82271283.95646  20091481.570                    20091488.668
 120251629.226 7  93702610.35644  22883122.539                    22883131.418
 113738540.355 8  88627456.60845  21643724.219                    21643730.766
 115825343.619 7  90253542.77245  22040826.672                    22040835.395
 11  8 13 19 31  0.0000000  0  9G01G07G28G19G17G08G26G11G24
 122065329.845 6  95115856.943 7  23228258.289                    23228269.703
 108403313.504 8  84470141.749 7  20628466.289                    20628472.750
 115058658.045 7  89656126.90245  21894934.430                    21894940.570
 130385062.261 6 101598759.51242  24811457.008                    24811464.402
 116572262.664 7  90835590.137 7  22182965.492                    22182973.957
 105560768.106 8  82255171.53746  20087546.656                    20087553.813
 120222330.293 7  93679780.04644  22877547.891                    22877555.961
 113761849.134 7  88645619.29945  21648159.672                    21648166.617
 115800920.777 7  90234512.03145  22036179.914                    22036188.609
 11  8 13 19 31 30.0000000  0  8G01G07G28G17G08G26G11G24
 122086926.653 7  95132685.642 7  23232368.078                    23232379.344
 108443845.501 8  84501725.098 7  20636179.227                    20636186.410
 115035631.174 8  89638183.89545  21890552.219                    21890558.801
 116500013.216 8  90779291.927 7  22169216.695                    22169225.066
 105540573.880 8  82239435.76346  20083703.641                    20083711.000
 120193630.935 7  93657416.90844  22872086.344                    22872094.621
 113785733.898 8  88664230.81645  21652704.891                    21652711.352
 115777005.166 7  90215876.51645  22031628.141                    22031637.074
 11  8 13 19 32  0.0000000  0  8G01G07G28G17G08G26G11G24
 122109046.473 7  95149921.862 7  23236577.555                    23236588.426
 108484863.021 8  84533686.748 7  20643984.828                    20643991.766
 115012641.260 8  89620269.68445  21886177.766                    21886183.773
 116428099.461 8  90723255.295 7  22155531.625                    22155540.516
 105520865.447 8  82224078.53246  20079953.336                    20079960.438
 120165532.070 7  93635521.71644  22866738.547                    22866747.543
 113810194.497 8  88683291.01745  21657359.164                    21657366.012
 115753598.960 8  90197637.96945  22027174.711                    22027183.410
 11  8 13 19 32 30.0000000  0  8G01G07G28G17G08G26G11G24
 122131689.759 7  95167565.982 7  23240886.727                    23240897.363
 108526366.259 8  84566026.908 7  20651882.203                    20651889.000
 114989688.064 8  89602384.07945  21881809.656                    21881816.125
 116356522.490 8  90667481.083 7  22141911.297                    22141919.801
 105501645.372 8  82209101.84646  20076295.938                    20076302.824
 120138034.609 7  93614095.12644  22861506.719                    22861515.340
 113835230.800 8  88702799.83545  21662123.281                    21662130.406
 115730704.181 7  90179797.90745  22022817.523                    22022826.828
 11  8 13 19 33  0.0000000  0  8G01G07G28G17G08G26G11G24
 122154856.455 7  95185617.949 7  23245294.797                    23245306.055
 108568355.761 8  84598745.959 7  20659873.070                    20659880.250
 114966771.696 8  89584527.17645  21877449.109                    21877455.723
 116285283.628 8  90611970.347 7  22128354.695                    22128363.656
 105482916.078 8  82194507.58646  20072731.656                    20072738.672
 120111139.548 7  93593137.94644  22856388.500                    22856397.320
 113860842.540 8  88722757.01245  21666997.133                    21667003.852
 115708322.794 7  90162357.90645  22018558.578                    22018567.328
 11  8 13 19 33 30.0000000  0  8G01G07G28G17G08G26G11G24
 122178545.213 7  95204076.710 7  23249802.969                    23249813.902
 108610830.195 8  84631842.887 7  20667955.742                    20667962.527
 114943891.153 8  89566698.18545  21873094.977                    21873101.590
 116214383.030 8  90556723.183 7  22114863.047                    22114871.191
 105464677.943 8  82180296.04946  20069261.289                    20069268.152
 120084846.433 7  93572649.81244  22851385.203                    22851393.758
 113887028.216 8  88743161.44745  21671980.500                    21671987.570
 115686455.772 7  90145318.69445  22014397.508                    22014406.746
 11  8 13 19 34  0.0000000  0  8G01G07G28G17G08G26G11G24
 122202755.876 7  95222942.151 7  23254410.055                    23254420.691
 108653789.082 8  84665317.332 7  20676130.211                    20676137.523
 114921045.609 7  89548896.46946  21868747.570                    21868754.020
 116143821.246 8  90501740.021 7  22101435.094                    22101443.762
 105446932.609 8  82166468.51346  20065884.516                    20065891.414
 120059155.744 7  93552631.08944  22846495.938                    22846505.344
 113913787.056 8  88764012.48545  21677072.234                    21677079.766
 115665104.494 7  90128681.35545  22010334.297                    22010342.852
 11  8 13 19 34 30.0000000  0  8G01G07G28G17G08G26G11G24
 122227488.632 7  95242214.436 7  23259116.547                    23259128.289
 108697233.173 8  84699169.846 7  20684397.695                    20684404.555
 114898236.062 8  89531122.79846  21864407.258                    21864413.449
 116073600.224 8  90447022.407 7  22088072.570                    22088081.113
 105429683.408 8  82153027.57546  20062602.070                    20062609.344
 120034068.608 7  93533082.65644  22841722.445                    22841730.938
 113941119.336 7  88785310.36845  21682273.758                    21682280.543
 115644271.556 7  90112447.91545  22006370.344                    22006378.961
 11  8 13 19 35  0.0000000  0  8G01G07G28G17G08G26G11G24
 122252743.749 7  95261893.746 7  23263921.953                    23263933.453
 108741162.491 8  84733400.445 7  20692757.367                    20692763.832
 114875462.485 7  89513377.16545  21860073.094                    21860079.785
 116003721.144 8  90392571.224 7  22074775.227                    22074783.152
 105412932.429 8  82139974.86046  20059414.172                    20059421.145
 120009585.692 7  93514005.04244  22837063.750                    22837071.922
 113969024.543 7  88807054.67945  21687584.266                    21687590.770
 115623958.639 7  90096619.69145  22002504.305                    22002512.773
 11  8 13 19 35 30.0000000  0  8G01G07G28G17G08G26G11G24
 122278520.284 7  95281979.361 7  23268827.695                    23268838.875
 108785576.111 8  84768008.429 7  20701209.047                    20701215.480
 114852724.182 8  89495658.99946  21855746.633                    21855753.023
 115934184.745 8  90338387.071 7  22061542.258                    22061550.711
 105396681.073 8  82127311.45446  20056321.906                    20056329.281
 119985707.159 7  93495398.38544  22832520.055                    22832528.406
 113997501.705 7  88829244.67845  21693002.500                    21693009.703
 115604166.892 7  90081197.57545  21998738.266                    21998747.285
 11  8 13 19 36  0.0000000  0  8G01G07G28G17G08G26G11G24
 122304817.934 7  95302471.011 7  23273831.844                    23273842.410
 108830474.022 8  84802993.778 7  20709752.656                    20709759.535
 114830021.114 8  89477968.31245  21851426.141                    21851432.344
 115864991.626 8  90284470.395 7  22048375.570                    22048383.605
 105380931.219 8  82115038.82846  20053324.742                    20053331.770
 119962433.489 7  93477263.05844  22828090.711                    22828099.250
 114026550.151 8  88851879.81645  21698530.688                    21698537.504
 115584898.030 7  90066182.89845  21995071.594                    21995080.711
 11  8 13 19 36 30.0000000  0  8G01G07G28G17G08G26G11G24
 122331635.949 7  95323368.167 7  23278934.883                    23278945.844
 108875855.775 8  84838356.157 7  20718388.430                    20718395.387
 114807352.771 8  89460304.68045  21847112.602                    21847119.223
 115796142.531 8  90230821.791 7  22035273.719                    22035282.535
 105365684.548 8  82103158.29346  20050423.523                    20050430.633
 119939764.947 7  93459599.25544  22823776.680                    22823786.023
 114056168.981 8  88874959.42445  21704166.664                    21704173.922
 115566153.493 7  90051576.80045  21991504.391                    21991512.949
 11  8 13 19 37  0.0000000  0  8G01G07G28G17G08G26G11G24
 122358973.720 7  95344670.323 7  23284136.602                    23284148.211
 108921720.692 8  84874095.017 7  20727116.320                    20727123.223
 114784718.744 8  89442667.77746  21842805.359                    21842811.715
 115727637.948 8  90177441.642 7  22022238.391                    22022246.102
 105350942.489 8  82091670.96346  20047617.734                    20047625.203
 119917701.448 7  93442406.92144  22819578.203                    22819587.039
 114086357.403 8  88898482.87545  21709911.398                    21709918.297
 115547934.431 7  90037380.16045  21988037.383                    21988046.402
 11  8 13 19 37 30.0000000  0  8G01G07G28G17G08G26G11G24
 122386830.532 6  95366376.929 7  23289438.117                    23289448.961
 108968068.268 8  84910209.985 7  20735935.906                    20735943.086
 114762118.708 8  89425057.35745  21838504.656                    21838511.004
 115659478.981 7  90124330.800 7  22009267.422                    22009276.016
 105336706.862 8  82080578.26046  20044909.055                    20044916.383
 119896243.289 7  93425686.28144  22815495.289                    22815503.992
 114117114.165 7  88922449.17645  21715763.750                    21715771.188
 115530242.079 7  90023593.92745  21984670.781                    21984679.484
 11  8 13 19 38  0.0000000  0  8G01G07G28G17G08G26G11G24
 122415205.811 6  95388487.530 7  23294838.367                    23294848.148
 109014897.699 8  84946700.418 7  20744847.367                    20744854.285
 114739552.278 8  89407473.12445  21834210.414                    21834217.164
 115591665.899 7  90071489.485 7  21996363.383                    21996371.457
 105322979.037 8  82069881.25446  20042296.781                    20042303.777
 119875390.208 7  93409437.12344  22811526.719                    22811535.543
 114148438.437 7  88946857.69845  21721725.344                    21721731.578
 115513077.498 7  90010218.96245  21981404.438                    21981413.113
 11  8 13 19 38 30.0000000  0  8G01G07G28G17G08G26G11G24
 122444098.652 7  95411001.422 7  23300336.063                    23300346.723
 109062208.401 8  84983565.870 7  20753849.922                    20753856.961
 114717018.910 8  89389914.66445  21829922.297                    21829928.840
 115524199.472 8  90018918.294 7  21983525.125                    21983532.969
 105309760.549 8  82059581.12146  20039781.711                    20039788.594
 119855142.127 7  93393659.40044  22807673.813                    22807682.191
 114180328.766 7  88971707.29645  21727794.383                    21727800.293
 115496442.037 7  89997256.29945  21978238.844                    21978247.395
 11  8 13 19 39  0.0000000  0  8G01G07G28G17G08G26G11G24
 122473507.669 6  95433917.549 7  23305932.391                    23305943.203
 109109999.470 8  85020805.620 7  20762944.578                    20762951.762
 114694517.738 8  89372381.28645  21825640.617                    21825647.348
 115457079.743 8  89966617.246 7  21970752.336                    21970760.805
 105297052.571 8  82049678.79346  20037363.344                    20037370.445
 119835498.951 7  93378353.03544  22803935.719                    22803944.680
 114212784.158 7  88996997.21445  21733969.805                    21733976.145
 115480336.415 7  89984706.48845  21975173.797                    21975182.699
 11  8 13 19 39 30.0000000  0  8G01G07G28G17G08G26G11G24
 122503432.543 7  95457235.615 7  23311626.617                    23311637.551
 109158270.271 8  85058419.195 7  20772130.148                    20772137.273
 114672048.762 8  89354872.99846  21821364.984                    21821371.156
 115390307.492 8  89914586.957 7  21958046.039                    21958054.027
 105284856.432 8  82040175.29646  20035042.266                    20035049.473
 119816460.814 7  93363518.11544  22800312.469                    22800321.574
 114245803.365 7  89022726.45645  21740253.242                    21740259.563
 115464762.142 7  89972570.71645  21972209.836                    21972218.520
 11  8 13 19 40  0.0000000  0  8G01G07G28G17G08G26G11G24
 122533872.902 7  95480955.385 7  23317419.656                    23317429.785
 109207020.397 8  85096406.249 7  20781407.055                    20781414.250
 114649611.988 8  89337389.80646  21817095.570                    21817101.871
 115323883.652 8  89862828.161 7  21945405.859                    21945414.422
 105273173.963 8  82031072.05746  20032819.406                    20032826.559
 119798027.857 7  93349154.78044  22796804.641                    22796813.992
 114279385.789 7  89048894.57445  21746643.664                    21746650.418
 115449720.498 7  89960849.98245  21969348.078                    21969356.289
 11  8 13 19 40 30.0000000  0  8G01G07G28G17G08G26G11G24
 122564829.087 7  95505077.082 7  23323310.219                    23323320.238
 109256250.463 8  85134767.309 7  20790775.164                    20790782.691
 114627207.912 8  89319932.08846  21812831.594                    21812838.492
 115257810.014 8  89811342.254 7  21932832.414                    21932840.930
 105262008.405 8  82022371.60746  20030694.758                    20030701.570
 119780201.168 7  93335263.85344  22793413.125                    22793421.633
 114313531.439 7  89075501.57745  21753141.422                    21753148.199
 115435213.695 7  89949546.01445  21966587.164                    21966595.996
 11  8 13 19 41  0.0000000  0  8G01G07G28G17G08G26G11G24
 122596299.999 7  95529599.861 7  23329299.266                    23329309.246
 109305959.714 8  85173501.753 7  20800234.789                    20800241.832
 114604836.557 8  89302499.86846  21808574.352                    21808581.469
 115192087.097 8  89760129.637 7  21920325.711                    21920333.719
 105251361.087 8  82014074.97946  20028668.328                    20028675.820
 119762980.731 7  93321845.32744  22790135.844                    22790144.793
 114348239.054 7  89102546.45845  21759745.586                    21759752.930
 115421243.019 7  89938659.79345  21963928.789                    21963937.121
 11  8 13 19 41 30.0000000  0  8G01G07G28G17G08G26G11G24
 122628285.560 7  95554523.662 7  23335385.664                    23335396.344
 109356147.682 8  85212609.225 7  20809784.984                    20809792.109
 114582497.693 8  89285092.97346  21804324.016                    21804330.746
 115126715.630 8  89709190.872 7  21907885.984                    21907893.949
 105241234.007 8  82006183.73646  20026741.672                    20026748.680
 119746366.938 7  93308899.51544  22786974.430                    22786983.176
 114383507.866 7  89130028.64545  21766457.672                    21766464.305
 115407809.956 7  89928192.49945  21961372.242                    21961381.090
 11  8 13 19 42  0.0000000  0  8G01G07G28G17G08G26G11G24
 122660784.436 7  95579847.453 7  23341569.578                    23341580.641
 109406813.887 8  85252089.350 7  20819426.438                    20819433.688
 114560190.951 8  89267711.10246  21800079.156                    21800085.582
 115061696.216 8  89658526.432 7  21895513.195                    21895521.105
 105231627.903 8  81998698.45446  20024913.703                    20024920.723
 119730359.193 7  93296425.94144  22783929.086                    22783937.129
 114419336.629 7  89157947.15745  21773275.414                    21773281.891
 115394915.349 7  89918144.77645  21958918.719                    21958927.723
 11  8 13 19 42 30.0000000  0  8G01G07G28G17G08G26G11G24
 122693796.098 7  95605570.822 7  23347851.555                    23347862.801
 109457957.582 8  85291941.541 7  20829158.742                    20829165.969
 114537916.426 8  89250354.34446  21795840.148                    21795847.051
 114997029.715 8  89608136.996 7  21883207.781                    21883215.691
 105222544.739 8  81991620.65446  20023185.133                    20023192.207
 119714957.883 7  93284424.91844  22780997.688                    22781006.289
 114455724.577 7  89186301.39745  21780199.602                    21780206.590
 115382560.373 7  89908517.54845  21956567.703                    21956576.379
 11  8 13 19 43  0.0000000  0  8G01G07G28G17G08G26G11G24
 122727320.599 7  95631693.815 7  23354231.281                    23354241.730
 109509578.892 8  85332165.897 7  20838981.953                    20838988.977
 114515674.689 8  89233023.12546  21791607.961                    21791614.457
 114932717.556 8  89558023.660 7  21870969.109                    21870977.605
 105213986.705 8  81984952.05346  20021556.289                    20021563.363
 119700163.288 7  93272896.65444  22778182.438                    22778190.844
 114492671.059 7  89215090.86445  21787230.531                    21787237.227
 115370746.744 7  89899312.14045  21954319.641                    21954328.070
 11  8 13 19 43 30.0000000  0  8G01G07G28G17G08G26G11G24
 122761356.434 7  95658215.227 7  23360708.641                    23360718.426
 109561676.540 8  85372761.445 7  20848896.211                    20848903.262
 114493464.666 8  89215716.62146  21787381.414                    21787387.727
 114868759.512 8  89508186.269 7  21858797.984                    21858806.766
 105205954.464 8  81978693.15246  20020028.156                    20020035.082
 119685974.855 7  93261840.72744  22775482.125                    22775491.246
 114530174.245 8  89244314.10745  21794366.625                    21794373.898
 115359475.453 7  89890529.32445  21952174.570                    21952183.656
 11  8 13 19 44  0.0000000  0  8G01G07G28G17G08G26G11G24
 122795903.610 7  95685135.094 7  23367281.930                    23367293.207
 109614250.541 8  85413728.155 7  20858900.656                    20858907.617
 114471287.354 8  89198435.60346  21783161.305                    21783167.633
 114805156.851 8  89458625.786 7  21846695.313                    21846703.027
 105198450.712 8  81972846.07046  20018600.195                    20018607.172
 119672393.312 7  93251257.71644  22772898.203                    22772906.473
 114568234.060 7  89273971.09645  21801609.289                    21801616.574
 115348748.077 7  89882170.35645  21950133.297                    21950141.711
 11  8 13 19 44 30.0000000  0  8G01G07G28G17G08G26G11G24
 122830961.241 7  95712452.725 7  23373953.992                    23373964.504
 109667300.530 8  85455065.776 7  20868995.922                    20869003.188
 114449142.887 8  89181180.18545  21778947.258                    21778953.961
 114741910.424 7  89409342.904 7  21834659.859                    21834667.996
 105191477.320 8  81967412.24746  20017273.195                    20017280.309
 119659418.811 7  93241147.68044  22770429.336                    22770437.535
 114606849.386 7  89304060.94845  21808957.969                    21808964.332
 115338566.131 7  89874236.38545  21948195.664                    21948203.961
 11  8 13 19 45  0.0000000  0  8G01G07G28G17G08G26G11G24
 122866528.551 7  95740167.517 7  23380721.141                    23380732.727
 109720825.219 8  85496773.281 7  20879181.250                    20879188.137
 114427030.513 8  89163949.76946  21774739.391                    21774745.980
 114679020.874 7  89360338.090 7  21822692.297                    21822700.102
 105185035.047 8  81962392.28946  20016047.047                    20016054.355
 119647050.586 7  93231510.09644  22768075.008                    22768083.504
 114646018.682 7  89334582.46845  21816411.492                    21816418.516
 115328930.147 7  89866727.86145  21946362.133                    21946370.625
 11  8 13 19 45 30.0000000  0  8G01G07G28G17G08G26G11G24
 122902604.259 7  95768278.455 7  23387586.945                    23387597.395
 109774823.959 8  85538850.187 7  20889456.977                    20889464.242
 114404949.913 8  89146744.11346  21770537.633                    21770544.059
 114616488.107 7  89311611.304 7  21810792.742                    21810800.563
 105179125.099 8  81957787.12546  20014922.734                    20014929.426
 119635288.330 7  93222344.67644  22765837.219                    22765845.703
 114685740.663 7  89365534.65945  21823970.328                    21823977.141
 115319841.138 7  89859645.53945  21944632.508                    21944640.918
 11  8 13 19 46  0.0000000  0  8G01G07G28G17G08G26G11G24
 122939187.728 7  95796785.038 7  23394548.531                    23394558.996
 109829296.014 7  85581295.914 7  20899822.492                    20899829.836
 114382901.368 8  89129563.44146  21766341.859                    21766348.125
 114554313.074 7  89263163.258 7  21798961.234                    21798969.168
 105173749.181 8  81953598.08146  20013899.570                    20013906.609
 119624132.146 7  93213651.51644  22763714.516                    22763722.773
 114726014.273 7  89396916.67345  21831633.930                    21831640.984
 115311300.098 7  89852990.20345  21943006.766                    21943015.398
 11  8 13 19 46 30.0000000  0  8G01G07G28G17G08G26G11G24
 122976278.164 6  95825686.675 7  23401605.906                    23401616.891
 109884241.172 8  85624110.274 7  20910278.383                    20910285.453
 114360884.823 8  89112407.70446  21762151.969                    21762158.664
 114492496.742 8  89214994.736 7  21787198.055                    21787205.758
 105168908.658 8  81949826.23046  20012978.539                    20012985.637
 119613581.660 7  93205430.34744  22761706.391                    22761715.305
 114766838.023 7  89428727.36245  21839402.875                    21839409.289
 115303308.137 7  89846762.71845  21941486.320                    21941495.234
 11  8 13 19 47  0.0000000  0  8G01G07G28G17G08G26G11G24
 123013874.961 7  95854982.868 7  23408760.586                    23408771.637
 109939658.429 8  85667292.542 7  20920823.828                    20920831.102
 114338901.182 8  89095277.60846  21757968.844                    21757975.898
 114431039.769 7  89167106.230 7  21775502.852                    21775511.258
 105164605.906 8  81946473.42946  20012159.750                    20012166.723
 119603637.300 7  93197681.47644  22759814.445                    22759822.574
 114808211.374 7  89460966.33045  21847275.453                    21847282.410
 115295866.996 7  89840964.43845  21940070.109                    21940078.766
 11  8 13 19 47 30.0000000  0  8G01G07G28G17G08G26G11G24
 123051976.780 7  95884672.584 7  23416011.375                    23416022.730
 109995546.823 8  85710841.903 7  20931458.867                    20931466.020
 114316949.132 8  89078172.12546  21753791.156                    21753798.141
 114369942.229 7  89119497.803 7  21763876.523                    21763884.355
 105160841.278 8  81943539.93446  20011443.375                    20011450.324
 119594297.914 7  93190404.00944  22758037.016                    22758045.512
 114850132.601 7  89493632.20345  21855252.828                    21855259.746
 115288976.753 7  89835595.42545  21938759.242                    21938767.656
 11  8 13 19 48  0.0000000  0  8G01G07G28G17G08G26G11G24
 123090582.403 7  95914754.871 7  23423358.039                    23423368.824
 110051905.262 8  85754757.524 7  20942183.953                    20942191.195
 114295028.244 8  89061090.91546  21749620.133                    21749626.480
 114309204.576 7  89072169.803 7  21752318.672                    21752326.766
 105157615.871 8  81941026.61746  20010829.375                    20010836.891
 119585563.083 7  93183597.64344  22756374.984                    22756383.395
 114892600.042 8  89526723.68045  21863334.930                    21863341.441
 115282638.170 7  89830656.29045  21937552.836                    21937561.754
 11  8 13 19 48 30.0000000  0  8G01G07G28G17G08G26G11G24
 123129691.480 6  95945229.462 7  23430800.250                    23430811.598
 110108733.491 8  85799039.236 7  20952998.117                    20953005.176
 114273139.648 8  89044034.87346  21745455.008                    21745461.266
 114248827.760 7  89025122.971 7  21740828.750                    21740836.992
 105154931.909 8  81938935.19846  20010318.680                    20010326.297
 119577432.950 7  93177262.46244  22754827.180                    22754836.367
 114935613.209 8  89560240.42445  21871519.625                    21871526.504
 115276852.757 7  89826148.17645  21936451.992                    21936460.813
 11  8 13 19 49  0.0000000  0  8G01G07G28G17G08G26G11G24
 123169303.180 6  95976095.704 7  23438338.164                    23438349.215
 110166031.132 7  85843686.704 7  20963901.219                    20963908.449
 114251283.321 8  89027003.97546  21741295.336                    21741302.215
 114188812.461 7  88978357.848 7  21729408.484                    21729416.527
 105152791.034 7  81937266.96846  20009911.477                    20009918.922
 119569907.448 7  93171398.40044  22753396.109                    22753404.441
 114979170.808 8  89594181.40145  21879808.188                    21879815.410
 115271621.635 7  89822071.99345  21935456.148                    21935465.141
 11  8 13 19 49 30.0000000  0  8G01G07G28G17G08G26G11G24
 123209416.669 7  96007352.964 7  23445971.188                    23445982.348
 110223796.898 7  85888698.960 7  20974893.953                    20974901.039
 114229459.186 8  89009998.15346  21737142.625                    21737149.117
 114129159.064 7  88931874.716 7  21718057.063                    21718064.938
 105151194.387 8  81936022.81246  20009607.359                    20009614.910
 119562986.137 7  93166005.15644  22752078.711                    22752087.516
 115023271.445 7  89628545.52445  21888200.320                    21888207.219
 115266945.519 7  89818428.27745  21934566.305                    21934575.078
 11  8 13 19 50  0.0000000  0  8G01G07G28G17G08G26G11G24
 123250030.528 6  96039000.096 7  23453700.023                    23453711.023
 110282029.841 7  85934075.234 7  20985975.180                    20985982.371
 114207667.416 8  88993017.56346  21732996.109                    21733002.348
 114069868.140 7  88885674.047 7  21706774.195                    21706782.238
 105150143.001 7  81935203.53846  20009407.336                    20009414.789
 119556668.477 7  93161082.28944  22750876.570                    22750884.859
 115067913.567 8  89663331.58545  21896695.695                    21896702.156
 115262825.034 7  89815217.52545  21933782.008                    21933790.996
 11  8 13 19 50 30.0000000  0  8G01G07G28G17G08G26G11G24
 123291143.715 7  96071036.336 7  23461523.234                    23461534.805
 110340729.311 7  85979815.039 7  20997145.031                    20997152.617
 114185907.924 8  88976062.11446  21728855.367                    21728861.520
 114010940.225 7  88839756.234 7  21695560.461                    21695568.258
 105149638.389 7  81934810.32546  20009311.633                    20009318.367
 119550953.857 7  93156629.31644  22749788.789                    22749797.449
 115113095.836 8  89698538.53045  21905293.555                    21905300.277
 115259261.525 7  89812440.75145  21933104.484                    21933113.375
 11  8 13 19 51  0.0000000  0  8G01G07G28G17G08G26G11G24
 123332755.050 7  96103460.732 7  23469441.633                    23469452.684
 110399893.994 8  86025917.352 7  21008404.250                    21008411.270
 114164180.198 8  88959131.42245  21724720.508                    21724726.797
 113952375.507 7  88794121.427 7  21684415.656                    21684423.980
 105149681.417 7  81934843.83646  20009319.625                    20009327.055
 119545841.717 7  93152645.81344  22748816.758                    22748825.023
 115158816.498 7  89734165.03445  21913993.875                    21914000.891
 115256255.100 7  89810098.08845  21932531.891                    21932540.828
 11  8 13 19 51 30.0000000  0  8G01G07G28G17G08G26G11G24
 123374863.011 7  96136272.102 7  23477455.016                    23477465.918
 110459522.811 8  86072381.318 7  21019751.484                    21019758.281
 114142484.414 8  88942225.62446  21720592.219                    21720598.563
 113894174.081 7  88748769.703 7  21673340.766                    21673348.828
 105150272.980 7  81935304.77646  20009432.055                    20009440.066
 119541331.366 7  93149131.24344  22747957.766                    22747966.621
 115205074.022 7  89770209.84745  21922796.508                    21922803.242
 115253806.515 7  89808190.11745  21932066.391                    21932075.063
 11  8 13 19 52  0.0000000  0  8G01G07G28G17G08G26G11G24
 123417467.213 7  96169470.168 7  23485562.031                    23485573.184
 110519615.565 8  86119206.803 7  21031186.422                    21031193.746
 114120821.370 8  88925345.34446  21716469.578                    21716476.418
 113836337.224 7  88703702.056 7  21662334.695                    21662342.328
 105151415.440 8  81936194.98546  20009650.063                    20009656.652
 119537422.753 7  93146085.56944  22747214.406                    22747222.438
 115251867.711 8  89806672.46345  21931700.852                    21931708.086
 115251917.383 7  89806718.07545  21931706.773                    21931714.891
 11  8 13 19 52 30.0000000  0  8G01G07G28G17G08G26G11G24
 123460566.592 7  96203054.092 7  23493763.438                    23493774.582
 110580170.907 8  86166392.733 7  21042709.586                    21042717.195
 114099190.584 8  88908490.19546  21712353.461                    21712359.969
 113778864.826 7  88658918.410 7  21651397.648                    21651405.770
 105153109.500 7  81937515.00346  20009971.914                    20009979.301
 119534115.201 7  93143508.24044  22746584.594                    22746593.469
 115299195.729 8  89843551.43145  21940707.023                    21940714.516
 115250587.736 7  89805681.98745  21931454.141                    21931462.418
 11  8 13 19 53  0.0000000  0  8G01G07G28G17G08G26G11G24
 123504159.822 7  96237022.822 7  23502059.125                    23502070.094
 110641188.125 7  86213938.564 7  21054320.969                    21054328.289
 114077592.199 8  88891660.29046  21708243.430                    21708249.941
 113721757.598 7  88614419.304 7  21640530.609                    21640538.625
 105155356.425 8  81939265.84046  20010399.719                    20010406.938
 119531408.037 7  93141398.74844  22746069.781                    22746078.277
 115347056.445 8  89880845.49445  21949814.781                    21949822.168
 115249818.535 7  89805082.61245  21931307.531                    21931315.707
 11  8 13 19 53 30.0000000  0  8G01G07G28G17G08G26G11G24
 123548245.836 7  96271375.545 7  23510448.078                    23510459.773
 110702665.799 7  86261843.204 7  21066019.719                    21066027.340
 114056026.303 8  88874855.70446  21704140.031                    21704145.992
 113665015.710 7  88570204.885 7  21629732.953                    21629740.863
 105158157.370 8  81941448.37746  20010932.750                    20010939.883
 119529300.884 7  93139756.79844  22745668.117                    22745676.844
 115395448.579 8  89918553.64545  21959023.563                    21959030.203
 115249610.304 7  89804920.36345  21931268.164                    21931276.102
 11  8 13 19 54  0.0000000  0  8G01G07G28G17G08G26G11G24
 123592823.099 7  96306111.065 7  23518931.578                    23518942.273
 110764603.153 7  86310106.027 7  21077806.289                    21077813.492
 114034492.927 8  88858076.46146  21700041.789                    21700048.570
 113608639.541 7  88526275.429 7  21619004.742                    21619012.273
 105161513.038 8  81944063.16346  20011571.063                    20011578.816
 119527792.506 7  93138581.41444  22745381.227                    22745390.172
 115444370.387 8  89956674.52745  21968333.297                    21968339.621
 115249963.594 7  89805195.65445  21931335.008                    21931343.398
 11  8 13 19 54 30.0000000  0  8G01G07G28G17G08G26G11G24
 123637890.207 7  96341228.276 7  23527507.438                    23527518.434
 110826998.567 7  86358725.785 7  21089679.586                    21089687.129
 114012991.522 8  88841322.13546  21695950.055                    21695956.813
 113552629.148 7  88482630.999 7  21608346.477                    21608354.395
 105165424.028 7  81947110.67346  20012315.641                    20012323.191
 119526882.046 7  93137871.92944  22745208.680                    22745217.195
 115493819.869 8  89995206.57945  21977742.961                    21977749.656
 115250878.657 7  89805908.71145  21931509.117                    21931517.891
 11  8 13 19 55  0.0000000  0  8G01G07G28G17G08G26G11G24
 123683446.548 7  96376726.700 7  23536176.141                    23536187.758
 110889851.608 8  86407702.133 7  21101639.625                    21101647.195
 113991522.868 8  88824593.31845  21691864.906                    21691871.492
 113496985.549 7  88439272.378 7  21597757.734                    21597765.688
 105169892.454 7  81950592.53646  20013165.992                    20013172.496
 119526569.380 7  93137628.27044  22745148.320                    22745157.621
 115543796.056 8  90034149.04945  21987253.500                    21987260.020
 115252356.497 7  89807060.26045  21931790.297                    21931798.949
 11  8 13 19 55 30.0000000  0  8G01G07G28G17G08G26G11G24
 123729490.909 7  96412605.397 7  23544938.297                    23544950.000
 110953161.403 7  86457034.399 7  21113687.594                    21113694.941
 113970087.555 8  88807890.48546  21687785.844                    21687792.445
 113441708.912 7  88396199.718 7  21587238.656                    21587246.652
 105174919.587 8  81954509.76346  20014122.516                    20014129.543
 119526854.069 7  93137850.08244  22745202.453                    22745211.461
 115594297.752 8  90073501.00945  21996863.188                    21996869.664
 115254397.870 7  89808650.96545  21932178.633                    21932187.215
 11  8 13 19 56  0.0000000  0  8G01G07G28G17G08G26G11G24
 123776021.584 7  96448863.046 7  23553792.609                    23553803.871
 111016926.262 7  86506721.255 7  21125821.461                    21125829.309
 113948684.511 8  88791212.79446  21683713.094                    21683719.402
 113386799.025 7  88353412.829 7  21576789.813                    21576797.586
 105180505.425 7  81958862.35346  20015185.539                    20015193.125
 119527734.404 6  93138536.03944  22745370.469                    22745378.973
 115645322.672 7  90113260.68045  22006572.961                    22006579.719
 115257002.709 7  89810680.71545  21932674.148                    21932683.082
 11  8 13 19 56 30.0000000  0  8G01G07G28G17G08G26G11G24
 123823037.186 7  96485498.580 7  23562739.430                    23562750.621
 111081145.070 7  86556761.831 7  21138041.953                    21138049.672
 113927314.494 7  88774560.83746  21679646.750                    21679653.039
 113332256.682 7  88310912.345 7  21566410.586                    21566418.867
 105186651.182 8  81963651.23946  20016355.070                    20016362.637
 119529209.988 7  93139685.81644  22745651.586                    22745660.383
 115696868.973 7  90153426.61545  22016381.656                    22016388.621
 115260171.663 7  89813150.04645  21933277.266                    21933286.297
 11  8 13 19 57  0.0000000  0  8G01G07G28G17G08G26G11G24
 123870536.680 7  96522511.142 7  23571778.547                    23571789.672
 111145816.791 7  86607155.340 7  21150348.430                    21150356.570
 113905977.656 7  88757934.73746  21675585.750                    21675592.211
 113278081.906 7  88268698.276 7  21556101.891                    21556109.770
 105193357.721 7  81968877.09346  20017631.109                    20017638.098
 119531279.918 7  93141298.71244  22746045.273                    22746053.945
 115748935.162 8  90193997.66345  22026289.492                    22026296.492
 115263905.502 7  89816059.54245  21933987.961                    21933996.645
 11  8 13 19 57 30.0000000  0  8G01G07G28G17G08G26G11G24
 123918519.519 7  96559900.364 7  23580909.188                    23580919.762
 111210941.099 8  86657901.504 7  21162741.633                    21162749.313
 113884674.831 7  88741335.13946  21671532.328                    21671538.535
 113224275.528 7  88226771.273 7  21545862.578                    21545870.980
 105200627.402 8  81974541.76046  20019014.609                    20019022.070
 119533944.035 7  93143374.61544  22746551.945                    22746561.152
 115801520.390 8  90234973.14845  22036296.211                    22036302.887
 115268205.187 7  89819409.95845  21934805.813                    21934814.695
 11  8 13 19 58  0.0000000  0  8G01G07G28G17G08G26G11G24
 123966983.502 7  96597664.486 7  23590131.359                    23590142.246
 111276516.287 7  86708998.988 7  21175219.984                    21175227.488
 113863405.558 7  88724761.69246  21667485.008                    21667491.590
 113170837.617 7  88185131.390 7  21535693.742                    21535701.766
 105208460.288 8  81980645.28846  20020505.078                    20020512.445
 119537201.160 6  93145912.60744  22747171.891                    22747180.820
 115854622.301 7  90276351.23245  22046401.516                    22046408.492
 115273070.571 7  89823201.17845  21935731.867                    21935740.375
 11  8 13 19 58 30.0000000  0  8G01G07G28G17G08G26G11G24
 124015927.572 7  96635802.722 7  23599445.367                    23599456.359
 111342541.234 7  86760446.939 7  21187784.570                    21187791.602
 113842170.029 7  88708214.53246  21663444.148                    21663450.660
 113117768.447 7  88143778.828 7  21525594.953                    21525602.703
 105216857.368 8  81987188.44346  20022102.914                    20022109.965
 119541050.079 7  93148911.72844  22747904.820                    22747913.344
 115908239.356 7  90318130.73945  22056604.117                    22056611.484
 115278502.320 7  89827433.72645  21936765.688                    21936774.234
 11  8 13 19 59  0.0000000  0  8G01G07G28G17G08G26G11G24
 124065349.709 7  96674313.469 7  23608850.289                    23608861.477
 111409013.976 7  86812243.823 7  21200434.039                    21200440.957
 113820967.861 7  88691693.37346  21659409.367                    21659415.895
 113065067.668 7  88102713.328 7  21515566.602                    21515574.289
 105225818.577 8  81994171.17746  20023808.523                    20023815.668
 119545489.641 7  93152371.10444  22748749.555                    22748758.160
 115962369.300 7  90360309.90445  22066904.750                    22066911.688
 115284499.937 7  89832107.19845  21937906.633                    21937915.691
 11  8 13 19 59 30.0000000  0  8G01G07G28G17G08G26G11G24
 124115250.109 7  96713196.874 7  23618346.063                    23618356.766
 111475934.940 7  86864389.976 7  21213168.461                    21213176.090
 113799800.839 7  88675199.60646  21655381.039                    21655387.707
 113012736.822 7  88061936.085 7  21505608.125                    21505616.000
 105235347.264 8  82001596.10446  20025621.742                    20025629.223
 119550520.224 7  93156291.01444  22749706.281                    22749715.781
 116017011.551 7  90402888.25344  22077302.930                    22077309.895
 115291065.676 7  89837223.37345  21939156.648                    21939164.648
 11  8 13 20  0  0.0000000  0  8G01G07G28G17G08G26G11G24
 124165626.521 7  96752451.196 7  23627931.875                    23627943.180
 111543302.076 8  86916883.795 7  21225987.844                    21225995.586
 113778668.159 7  88658732.59046  21651360.117                    21651366.379
 112960775.509 8  88021446.803 7  21495720.063                    21495728.344
 105245442.845 8  82009462.78246  20027542.648                    20027549.926
 119556139.777 7  93160669.87644  22750776.086                    22750784.578
 116072163.775 7  90445863.99845  22087798.234                    22087805.094
 115298198.694 7  89842781.57345  21940513.641                    21940522.320
 11  8 13 20  0 30.0000000  0  8G01G07G28G17G08G26G11G24
 124216476.971 7  96792074.921 7  23637608.539                    23637619.426
 111611113.703 8  86969723.937 7  21238891.875                    21238899.586
 113757569.725 8  88642292.25846  21647345.031                    21647351.582
 112909183.461 8  87981245.240 7  21485902.250                    21485910.328
 105256105.712 8  82017771.49046  20029571.594                    20029578.938
 119562347.301 7  93165506.89144  22751957.398                    22751966.383
 116127823.864 7  90489235.47945  22098389.461                    22098396.711
 115305899.082 7  89848781.88545  21941979.258                    21941987.563
 11  8 13 20  1  0.0000000  0  8G01G07G28G17G08G26G11G24
 124267800.297 7  96832067.108 7  23647374.484                    23647386.277
 111679368.605 8  87022909.551 7  21251880.547                    21251888.246
 113736505.663 8  88625878.70546  21643336.875                    21643342.953
 112857960.674 8  87941331.421 7  21476154.961                    21476162.949
 105267336.641 8  82026522.84346  20031709.156                    20031716.340
 119569141.587 6  93170801.11544  22753250.219                    22753259.699
 116183989.995 7  90533001.24744  22109078.109                    22109084.844
 115314167.066 7  89855224.46745  21943553.102                    21943561.137
 11  8 13 20  1 30.0000000  0  8G01G07G28G17G08G26G11G24
 124319594.791 7  96872426.439 7  23657231.250                    23657242.133
 111748065.530 8  87076439.564 7  21264953.242                    21264960.906
 113715476.363 8  88609492.24346  21639335.102                    21639341.633
 112807107.522 8  87901705.620 7  21466477.711                    21466485.906
 105279135.994 7  82035717.12446  20033954.352                    20033961.414
 119576521.398 7  93176551.58144  22754654.500                    22754663.621
 116240660.180 7  90577159.83144  22119861.789                    22119868.363
 115323002.678 7  89862109.36945  21945233.305                    21945242.129
 11  8 13 20  2  0.0000000  0  8G01G07G28G17G08G26G11G24
 124371859.425 7  96913152.111 6  23667177.141                    23667188.113
 111817203.205 8  87130313.028 7  21278109.734                    21278117.387
 113694482.155 8  88593133.12946  21635340.063                    21635345.820
 112756624.473 8  87862368.206 7  21456871.570                    21456879.254
 105291505.360 8  82045355.57046  20036308.266                    20036315.664
 119584486.088 7  93182757.80144  22756169.977                    22756179.082
 116297832.993 7  90621710.04844  22130741.305                    22130748.148
 115332406.504 7  89869437.03545  21947023.234                    21947031.504
 11  8 13 20  2 30.0000000  0  8G01G07G28G17G08G26G11G24
 124424592.798 7  96954243.016 7  23677212.063                    23677223.215
 111886780.712 8  87184529.213 7  21291350.047                    21291357.563
 113673523.639 8  88576801.82246  21631351.453                    21631357.742
 112706511.718 7  87823319.346 7  21447335.156                    21447342.918
 105304445.618 7  82055438.87246  20038770.477                    20038777.773
 119593034.637 7  93189418.97244  22757796.992                    22757806.199
 116355507.025 7  90666650.83645  22141716.758                    22141723.465
 115342378.874 7  89877207.71045  21948921.313                    21948929.430
 11  8 13 20  3  0.0000000  0  8G01G07G28G17G08G26G11G24
 124477793.486 7  96995698.089 7  23687336.031                    23687346.637
 111956796.612 8  87239087.000 7  21304673.898                    21304681.582
 113652600.688 7  88560498.22946  21627369.883                    21627376.285
 112656769.227 8  87784559.002 7  21437869.648                    21437877.250
 105317957.321 8  82065967.45146  20041342.109                    20041349.395
 119602165.683 7  93196534.04444  22759534.656                    22759543.410
 116413679.874 7  90711980.31245  22152786.859                    22152793.547
 115352920.232 7  89885421.76245  21950926.789                    21950935.258
 11  8 13 20  3 30.0000000  0  8G01G07G28G17G08G26G11G24
 124531459.638 7  97037515.847 6  23697547.836                    23697559.234
 112027249.658 8  87293985.428 7  21318080.203                    21318088.086
 113631714.193 7  88544223.04646  21623395.828                    21623401.828
 112607397.629 8  87746087.657 7  21428474.273                    21428482.063
 105332041.440 8  82076942.06646  20044022.172                    20044029.359
 119611878.477 7  93204102.42344  22761383.055                    22761392.082
 116472349.766 7  90757697.09445  22163951.203                    22163958.004
 115364030.855 7  89894079.39245  21953040.930                    21953049.559
 11  8 13 20  4  0.0000000  0  8G01G07G28G17G08G26G11G24
 124585590.636 7  97079695.824 7  23707849.406                    23707859.410
 112098138.686 7  87349223.576 7  21331569.984                    21331577.898
 113610864.401 7  88527976.46746  21619428.164                    21619434.016
 112558396.880 8  87707905.285 7  21419149.930                    21419157.441
 105346698.989 8  82088363.50846  20046811.367                    20046818.891
 119622171.925 7  93212123.26844  22763341.344                    22763350.805
 116531515.430 7  90803800.18545  22175210.172                    22175217.313
 115375710.712 7  89903180.59145  21955263.688                    21955272.313
 11  8 13 20  4 30.0000000  0  8G01G07G28G17G08G26G11G24
 124640183.623 7  97122235.786 7  23718237.195                    23718248.535
 112169461.681 8  87404799.880 7  21345143.023                    21345150.223
 113590050.679 7  88511757.99946  21615467.617                    21615473.574
 112509766.439 7  87670011.462 7  21409894.805                    21409903.438
 105361929.404 8  82100231.34446  20049709.508                    20049716.922
 119633044.068 7  93220595.03544  22765410.922                    22765419.676
 116591174.008 7  90850287.36945  22186562.773                    22186570.094
 115387959.187 7  89912724.83745  21957594.742                    21957603.301
 11  8 13 20  5  0.0000000  0  8G01G07G28G17G08G26G11G24
 124695237.691 7  97165135.032 7  23728714.453                    23728725.441
 112241217.745 8  87460713.638 7  21358796.977                    21358805.023
 113569273.986 7  88495568.37446  21611513.313                    21611519.852
 112461506.935 8  87632406.692 7  21400712.234                    21400720.125
 105377734.096 8  82112546.66546  20052717.352                    20052724.230
 119644494.206 7  93229517.18644  22767589.234                    22767598.438
 116651324.026 7  90897157.49645  22198008.688                    22198015.680
 115400776.974 7  89922712.74245  21960033.516                    21960042.387
 11  8 13 20  5 30.0000000  0  8G01G07G28G17G08G26G11G24
 124750751.728 7  97208392.695 7  23739278.195                    23739289.664
 112313405.659 8  87516963.903 7  21372534.211                    21372541.914
 113548535.393 7  88479408.44846  21607566.977                    21607573.441
 112413618.905 7  87595091.373 7  21391599.227                    21391607.098
 105394113.947 8  82125310.16546  20055834.109                    20055841.414
 119656521.396 7  93238888.98644  22769877.906                    22769887.543
 116711963.874 7  90944409.29145  22209548.102                    22209555.602
 115414164.340 7  89933144.45645  21962580.688                    21962590.207
 11  8 13 20  6  0.0000000  0  8G01G07G28G17G08G26G11G24
 124806723.970 7  97252007.407 7  23749929.242                    23749940.586
 112386023.920 8  87573549.495 7  21386353.063                    21386360.871
 113527834.868 8  88463278.17646  21603628.375                    21603634.035
 112366102.324 8  87558065.501 7  21382557.344                    21382565.059
 105411069.470 8  82138522.23446  20059060.477                    20059068.074
 119669124.132 6  93248709.26044  22772276.078                    22772285.793
 116773091.451 7  90992041.14845  22221180.992                    22221187.566
 115428121.237 7  89944019.97145  21965236.828                    21965245.734
 11  8 13 20  6 30.0000000  0  8G01G07G28G17G08G26G11G24
 124863152.468 6  97295977.630 7  23760667.188                    23760678.469
 112459070.792 8  87630469.085 7  21400253.625                    21400261.055
 113507171.773 8  88447177.07446  21599695.703                    21599701.859
 112318956.402 8  87521328.445 7  21373585.688                    21373593.492
 105428600.604 8  82152182.83046  20062396.781                    20062404.023
 119682300.522 7  93258976.55644  22774783.508                    22774792.508
 116834704.352 7  91040051.16345  22232905.297                    22232912.090
 115442647.250 7  89955338.94045  21968000.945                    21968009.797
 11  8 13 20  7  0.0000000  0  8G01G07G28G17G08G26G11G24
 124920035.415 6  97340301.973 7  23771492.086                    23771502.855
 112532544.831 8  87687721.530 7  21414234.758                    21414243.160
 113486547.107 8  88431105.90946  21595771.070                    21595777.508
 112272181.712 8  87484880.668 7  21364684.906                    21364692.230
 105446708.204 8  82166292.61846  20065842.141                    20065849.813
 119696049.697 7  93269690.15944  22777400.453                    22777409.969
 116896801.029 7  91088438.18345  22244721.531                    22244728.719
 115457742.523 7  89967101.50145  21970873.688                    21970882.695
 11  8 13 20  7 30.0000000  0  8G01G07G28G17G08G26G11G24
 124977372.082 7  97384979.859 7  23782402.508                    23782413.805
 112606445.401 8  87745306.338 7  21428298.188                    21428305.934
 113465961.904 8  88415065.49446  21591853.906                    21591860.523
 112225778.826 8  87448722.614 7  21355854.281                    21355862.629
 105465393.811 8  82180852.81046  20069398.195                    20069405.602
 119710370.592 7  93280849.27144  22780125.578                    22780134.922
 116959379.791 7  91137200.83145  22256630.539                    22256637.191
 115473407.820 7  89979308.23745  21973854.969                    21973863.715
 11  8 13 20  8  0.0000000  0  8G01G07G28G17G08G26G11G24
 125035159.246 6  97430008.787 7  23793399.469                    23793411.113
 112680769.284 8  87803220.986 7  21442441.516                    21442449.098
 113445414.777 8  88399054.75046  21587943.906                    21587950.109
 112179746.270 8  87412853.133 7  21347094.617                    21347102.699
 105484655.448 8  82195861.84946  20073063.453                    20073070.895
 119725260.705 7  93292451.93044  22782959.023                    22782968.059
 117022437.245 7  91186336.48845  22268629.469                    22268636.563
 115489641.457 7  89991957.82345  21976944.156                    21976952.801
 11  8 13 20  8 30.0000000  0  8G01G07G28G17G08G26G11G24
 125093396.340 6  97475388.307 7  23804481.164                    23804491.938
 112755516.337 8  87861465.388 7  21456665.625                    21456673.480
 113424907.441 8  88383075.00646  21584041.273                    21584047.805
 112134085.115 8  87377273.038 7  21338405.633                    21338413.344
 105504495.532 8  82211321.62646  20076839.281                    20076846.711
 119740719.572 7  93304497.75744  22785900.750                    22785910.121
 117085972.711 7  91235844.61545  22280719.703                    22280726.715
 115506444.334 7  90005050.97945  21980141.563                    21980150.273
 11  8 13 20  9  0.0000000  0  8G01G07G28G17G08G26G11G24
 125152081.575 6  97521117.027 7  23815648.500                    23815659.531
 112830684.666 8  87920038.064 7  21470969.109                    21470977.020
 113404439.950 8  88367126.31246  21580146.367                    21580153.004
 112088795.208 8  87341982.240 7  21329787.250                    21329795.133
 105524913.992 8  82227232.09346  20080724.836                    20080732.051
 119756745.510 7  93316985.47244  22788950.133                    22788959.605
 117149983.687 7  91285723.27244  22292900.563                    22292907.902
 115523816.157 7  90018587.46345  21983447.219                    21983456.172
 11  8 13 20  9 30.0000000  0  8G01G07G28G17G08G26G11G24
 125211213.242 6  97567193.614 7  23826900.688                    23826912.215
 112906272.734 7  87978937.790 7  21485353.438                    21485361.379
 113384012.902 8  88351209.12946  21576259.547                    21576265.402
 112043876.601 8  87306980.765 7  21321239.453                    21321247.355
 105545911.273 8  82243593.58746  20084720.414                    20084727.961
 119773337.170 7  93329913.99944  22792107.672                    22792116.609
 117214468.223 7  91335970.93244  22305171.672                    22305178.980
 115541756.613 7  90032567.04145  21986861.445                    21986870.117
 11  8 13 20 10  0.0000000  0  8G01G07G28G17G08G26G11G24
 125270789.101 6  97613616.327 7  23838238.398                    23838249.527
 112982278.741 8  88038163.196 7  21499816.773                    21499824.523
 113363626.081 8  88335323.29446  21572380.055                    21572386.547
 111999328.692 8  87272268.130 7  21312762.141                    21312769.738
 105567487.098 8  82260405.89846  20088826.188                    20088833.309
 119790492.371 7  93343281.65644  22795372.203                    22795381.344
 117279423.756 7  91386585.59844  22317532.211                    22317538.914
 115560265.464 7  90046989.51645  21990383.359                    21990392.129
 11  8 13 20 10 30.0000000  0  8G01G07G28G17G08G26G11G24
 125330808.060 6  97660384.317 7  23849658.844                    23849670.598
 113058701.488 7  88097713.323 7  21514360.102                    21514367.965
 113343280.531 8  88319469.61346  21568508.305                    21568514.832
 111955152.108 8  87237844.859 7  21304355.344                    21304363.336
 105589642.792 8  82277670.05346  20093042.219                    20093049.660
 119808210.377 7  93357087.85444  22798744.031                    22798752.988
 117344848.757 7  91437566.08745  22329982.531                    22329989.477
 115579342.936 7  90061855.07445  21994013.305                    21994021.895
 11  8 13 20 11  0.0000000  0  8G01G07G28G17G08G26G11G24
 125391268.036 6  97707495.950 7  23861163.836                    23861175.645
 113135538.957 8  88157586.608 7  21528981.414                    21528989.336
 113322976.477 8  88303648.27046  21564644.328                    21564651.172
 111911346.090 8  87203710.336 7  21296019.672                    21296027.289
 105612377.961 8  82295385.75146  20097368.320                    20097375.730
 119826489.262 6  93371331.11344  22802222.313                    22802231.461
 117410740.706 7  91488910.43044  22342521.336                    22342528.363
 115598988.483 7  90077163.28145  21997751.797                    21997760.539
 11  8 13 20 11 30.0000000  0  8G01G07G28G17G08G26G11G24
 125452167.102 6  97754949.727 7  23872753.578                    23872764.918
 113212789.786 8  88217781.991 7  21543681.984                    21543690.066
 113302713.943 8  88287859.28646  21560788.383                    21560794.855
 111867910.489 8  87169864.450 7  21287754.047                    21287761.996
 105635692.694 8  82313553.05146  20101805.023                    20101812.645
 119845327.045 6  93386009.88644  22805806.938                    22805816.402
 117477097.536 7  91540617.01344  22355148.531                    22355155.629
 115619201.473 7  90092913.66045  22001598.336                    22001607.094
 11  8 13 20 12  0.0000000  0  8G01G07G28G17G08G26G11G24
 125513503.957 6  97802744.636 7  23884424.734                    23884436.145
 113290452.660 7  88278298.444 7  21558460.695                    21558468.695
 113282493.940 8  88272103.44646  21556941.188                    21556947.527
 111824846.165 8  87136307.867 7  21279559.258                    21279566.758
 105659588.104 8  82332172.82446  20106352.469                    20106360.176
 119864722.924 6  93401123.52144  22809497.688                    22809507.152
 117543917.348 7  91592684.36844  22367863.898                    22367871.180
 115639982.315 7  90109106.51345  22005552.719                    22005561.598
 11  8 13 20 12 30.0000000  0  8G01G07G28G17G08G26G11G24
 125575276.233 6  97850878.847 7  23896180.266                    23896191.105
 113368525.474 7  88339134.329 7  21573317.531                    21573325.453
 113262316.306 8  88256380.61846  21553101.469                    21553107.945
 111782152.019 8  87103039.732 7  21271435.063                    21271442.520
 105684063.612 8  82351244.61946  20111010.219                    20111017.527
 119884674.665 7  93416670.31644  22813294.609                    22813303.848
 117611197.546 7  91645110.47844  22380666.813                    22380673.961
 115661330.251 7  90125741.26745  22009615.469                    22009623.777
 11  8 13 20 13  0.0000000  0  8G01G07G28G17G08G26G11G24
 125637482.159 6  97899350.935 6  23908017.516                    23908028.848
 113447006.338 8  88400288.176 7  21588252.219                    21588260.031
 113242181.582 8  88240691.23346  21549270.086                    21549276.035
 111739828.219 8  87070060.192 7  21263380.914                    21263388.332
 105709119.646 8  82370768.77346  20115778.148                    20115785.598
 119905180.787 7  93432649.06544  22817196.555                    22817206.402
 117678936.320 7  91697893.90044  22393557.391                    22393564.313
 115683245.038 7  90142817.70945  22013785.719                    22013793.816
 11  8 13 20 13 30.0000000  0  8G01G07G28G17G08G26G11G24
 125700120.211 6  97948159.790 6  23919937.164                    23919947.883
 113525894.059 7  88461759.042 7  21603263.625                    21603271.906
 113222090.292 8  88225035.69446  21545446.656                    21545453.012
 111697874.408 8  87037368.946 7  21255397.203                    21255404.902
 105734756.522 8  82390745.53046  20120656.508                    20120663.750
 119926239.487 7  93449058.39144  22821204.102                    22821213.293
 117747131.435 7  91751032.93144  22406534.914                    22406541.434
 115705726.256 7  90160335.53745  22018063.570                    22018072.188
 11  8 13 20 14  0.0000000  0  8G01G07G28G17G08G26G11G24
 125763188.579 6  97997303.941 6  23931938.742                    23931949.680
 113605187.272 8  88523545.893 7  21618353.078                    21618360.930
 113202043.670 8  88209414.94946  21541631.867                    21541638.285
 111656291.152 8  87004966.437 7  21247484.539                    21247492.051
 105760974.894 8  82411175.40046  20125645.938                    20125653.266
 119947849.571 7  93465897.38444  22825316.414                    22825325.836
 117815780.856 7  91804525.96844  22419598.148                    22419604.758
 115728774.015 7  90178294.82445  22022449.680                    22022457.859
 11  8 13 20 14 30.0000000  0  8G01G07G28G17G08G26G11G24
 125826685.064 6  98046781.703 6  23944022.211                    23944033.129
 113684883.511 8  88585646.788 7  21633518.617                    21633526.602
 113182041.408 8  88193828.78146  21537825.672                    21537832.008
 111615077.476 8  86972851.923 7  21239641.695                    21239649.063
 105787773.762 8  82432057.60946  20130745.602                    20130753.023
 119970008.665 7  93483164.18344  22829533.297                    22829542.715
 117884881.982 7  91858370.96344  22432747.625                    22432754.828
 115752387.227 7  90196694.73045  22026942.547                    22026951.410
 11  8 13 20 15  0.0000000  0  8G01G07G28G17G08G26G11G24
 125890608.095 6  98096591.820 6  23956185.930                    23956197.215
 113764981.316 7  88648060.579 7  21648761.195                    21648768.699
 113162084.006 8  88178277.56946  21534027.219                    21534033.957
 111574233.444 8  86941025.431 7  21231869.039                    21231876.492
 105815153.776 8  82453392.65846  20135955.641                    20135963.160
 119992715.240 7  93500857.58044  22833854.141                    22833863.461
 117954432.802 7  91912566.39844  22445982.602                    22445989.277
 115776565.525 7  90215534.95045  22031543.992                    22031552.520
 11  8 13 20 15 30.0000000  0  8G01G07G28G17G08G26G11G24
 125954955.674 6  98146732.754 6  23968430.945                    23968442.309
 113845479.235 8  88710786.160 7  21664078.992                    21664087.293
 113142172.112 8  88162761.81246  21530238.516                    21530244.680
 111533759.018 8  86909486.952 7  21224166.945                    21224174.582
 105843115.293 8  82475180.83346  20141276.633                    20141284.043
 120015967.698 7  93518976.35244  22838279.313                    22838288.547
 118024431.096 7  91967110.48744  22459302.570                    22459310.223
 115801308.591 7  90234815.26045  22036252.453                    22036260.820
 11  8 13 20 16  0.0000000  0  8G01G07G28G17G08G26G11G24
 126019726.329 7  98197203.360 6  23980756.766                    23980767.703
 113926375.744 8  88773822.320 7  21679473.313                    21679481.281
 113122306.700 8  88147282.28446  21526458.188                    21526464.750
 111493654.290 8  86878236.536 7  21216535.375                    21216543.156
 105871658.748 8  82497422.46246  20146708.586                    20146715.934
 120039764.438 7  93537519.22144  22842807.469                    22842816.762
 118094874.988 7  92022001.80244  22472707.828                    22472714.652
 115826616.359 7  90254535.59345  22041068.367                    22041077.082
 11  8 13 20 16 30.0000000  0  8G01G07G28G17G08G26G11G24
 126084917.497 7  98248001.648 6  23993161.836                    23993173.406
 114007668.897 7  88837167.558 7  21694943.086                    21694951.059
 113102487.599 8  88131838.83646  21522686.742                    21522693.215
 111453918.620 8  86847273.706 7  21208973.734                    21208981.684
 105900783.304 8  82520116.90346  20152250.234                    20152258.188
 120064103.118 6  93556484.38944  22847438.805                    22847448.035
 118165761.555 7  92077238.08044  22486197.305                    22486204.258
 115852487.659 7  90274695.02345  22045991.773                    22046000.078
 11  8 13 20 17  0.0000000  0  8G01G07G28G17G08G26G11G24
 126150527.770 7  98299126.497 6  24005647.031                    24005658.098
 114089356.614 8  88900820.249 7  21710487.688                    21710495.777
 113082715.740 8  88116432.19946  21518924.609                    21518930.688
 111414551.800 8  86816598.287 7  21201482.680                    21201490.199
 105930489.125 8  82543264.27546  20157903.125                    20157910.809
 120088982.159 7  93575870.60844  22852173.242                    22852182.699
 118237088.904 7  92132817.80244  22499769.703                    22499777.383
 115878922.214 7  90295293.37145  22051021.688                    22051030.559
 11  8 13 20 17 30.0000000  0  9G01G04G07G28G17G08G26G11G24
 126216554.838 7  98350576.120 6  24018211.781                    24018222.887
 129221586.68416 100692228.59753  24590055.289                    24590071.410
 114171437.001 8  88964778.920 7  21726107.359                    21726115.035
 113062991.552 8  88101062.70846  21515170.836                    21515177.219
 111375553.320 8  86786209.879 7  21194061.023                    21194069.059
 105960776.095 8  82566864.49246  20163666.539                    20163674.410
 120114399.630 7  93595676.40844  22857010.078                    22857019.160
 118308854.791 7  92188739.24444  22513427.297                    22513433.414
 115905919.330 7  90316330.07745  22056159.203                    22056168.066
 11  8 13 20 18  0.0000000  0  9G01G04G07G28G17G08G26G11G24
 126282995.743 7  98402348.219 6  24030855.359                    24030866.457
 129108958.316 6 100604466.50743  24568623.102                    24568639.047
 114253907.560 8  89029041.624 7  21741800.477                    21741808.867
 113043314.213 8  88085729.72246  21511426.656                    21511432.496
 111336922.368 8  86756107.860 7  21186710.305                    21186717.820
 105991643.656 8  82590917.11846  20169540.680                    20169548.176
 120140352.547 7  93615899.41044  22861948.711                    22861957.895
 118381055.874 7  92244999.81744  22527166.852                    22527173.094
 115933477.412 7  90337803.90145  22061403.383                    22061412.496
 11  8 13 20 18 30.0000000  0  9G01G04G07G28G17G08G26G11G24
 126349849.558 7  98454442.086 7  24043577.148                    24043588.496
 128996265.751 6 100516654.42743  24547177.977                    24547194.152
 114336767.332 7  89093607.592 7  21757567.984                    21757577.105
 113023685.656 8  88070434.74546  21507691.570                    21507697.461
 111298659.284 8  86726292.492 7  21179429.109                    21179436.648
 106023092.550 8  82615422.72746  20175524.953                    20175532.969
 120166839.850 7  93636538.83644  22866989.016                    22866998.672
 118453690.373 7  92301598.10744  22540988.055                    22540995.688
 115961596.720 7  90359715.05045  22066754.117                    22066762.512
 11  8 13 20 19  0.0000000  0  9G01G04G07G28G17G08G26G11G24
 126417114.952 6  98506856.645 7  24056376.773                    24056388.211
 128883512.327 6 100428794.90443  24525721.734                    24525737.645
 114420015.121 7  89158475.913 7  21773410.117                    21773418.555
 113004107.112 8  88055178.74246  21503965.875                    21503972.180
 111260764.241 8  86696763.912 7  21172217.836                    21172225.281
 106055123.369 8  82640381.78746  20181620.516                    20181628.102
 120193860.388 7  93657593.76044  22872130.805                    22872140.730
 118526757.026 7  92358533.12644  22554892.305                    22554899.586
 115990277.335 7  90382063.57445  22072211.805                    22072220.496
 11  8 13 20 19 30.0000000  0  9G01G04G07G28G17G08G26G11G24
 126484789.598 7  98559590.085 7  24069255.711                    24069266.566
 128770700.404 6 100340889.80043  24504253.953                    24504269.566
 114503648.778 7  89223644.914 7  21789325.086                    21789333.227
 112984578.503 8  88039961.65046  21500249.305                    21500255.781
 111223237.046 8  86667521.961 7  21165076.578                    21165084.168
 106087735.414 8  82665793.73846  20187826.297                    20187833.941
 120221412.143 6  93679062.61944  22877374.031                    22877383.637
 118600253.089 7  92415802.76044  22568877.961                    22568885.066
 116019518.205 7  90404848.64745  22077776.188                    22077784.875
 11  8 13 20 20  0.0000000  0  9G01G04G07G28G17G08G26G11G24
 126552871.528 6  98612640.899 7  24082211.680                    24082222.316
 128657832.336 6 100252940.98543  24482775.531                    24482791.961
 114587666.495 8  89289113.165 7  21805313.781                    21805321.277
 112965100.543 8  88024784.01146  21496543.109                    21496549.234
 111186077.773 8  86638566.701 7  21158005.680                    21158012.906
 106120928.308 8  82691658.30846  20194142.891                    20194150.199
 120249492.636 7  93700943.48144  22882717.789                    22882727.195
 118674176.435 7  92473405.34244  22582945.273                    22582953.230
 116049318.825 7  90428069.91945  22083447.688                    22083456.152
 11  8 13 20 20 30.0000000  0  9G01G04G07G28G17G08G26G11G24
 126621358.537 6  98666007.361 7  24095242.453                    24095254.906
 128544910.440 6 100164950.14443  24461286.953                    24461303.051
 114672066.152 8  89354879.044 7  21821373.977                    21821382.223
 112945673.523 8  88009646.07146  21492846.406                    21492852.449
 111149284.980 8  86609897.011 7  21151004.000                    21151011.223
 106154701.543 8  82717975.08146  20200569.773                    20200577.520
 120278100.116 7  93723234.98944  22888161.078                    22888170.855
 118748524.261 7  92531338.67144  22597093.266                    22597100.406
 116079678.135 7  90451726.51745  22089224.352                    22089232.859
 11  8 13 20 21  0.0000000  0  9G01G04G07G28G17G08G26G11G24
 126690249.157 6  98719688.322 7  24108353.563                    24108364.684
 128431937.793 6 100076919.80943  24439788.977                    24439804.766
 114756846.371 7  89420941.471 7  21837507.516                    21837515.973
 112926298.531 8  87994548.67746  21489159.336                    21489165.684
 111112858.831 8  86581513.021 7  21144072.406                    21144079.672
 106189055.732 8  82744744.55046  20207107.070                    20207114.730
 120307232.706 7  93745935.65744  22893705.352                    22893714.383
 118823294.446 7  92589601.12444  22611321.867                    22611329.246
 116110595.875 7  90475818.26745  22095107.734                    22095116.473
 11  8 13 20 21 30.0000000  0  9G01G04G07G28G17G08G26G11G24
 126759540.972 6  98773681.910 7  24121538.742                    24121550.586
 128318916.899 6  99988851.83043  24418281.930                    24418297.086
 114842005.292 7  89487298.977 7  21853712.586                    21853720.996
 112906976.390 8  87979492.46446  21485482.203                    21485488.559
 111076799.533 8  86553414.897 7  21137210.547                    21137217.977
 106223990.704 8  82771966.57646  20213755.414                    20213762.730
 120336888.188 7  93769043.78044  22899348.555                    22899358.133
 118898484.998 7  92648191.13344  22625630.078                    22625637.359
 116142071.318 7  90500344.58945  22101097.375                    22101105.801
 11  8 13 20 22  0.0000000  0  9G01G04G07G28G17G08G26G11G24
 126829231.950 6  98827986.530 7  24134800.211                    24134811.645
 128205850.310 6  99900748.30343  24396765.320                    24396781.082
 114927540.551 7  89553949.732 7  21869989.602                    21869997.566
 112887707.101 8  87964477.43246  21481815.813                    21481821.691
 111041106.098 8  86525601.850 7  21130418.234                    21130425.930
 106259505.812 8  82799640.65246  20220513.273                    20220521.340
 120367064.368 7  93792557.63844  22905090.813                    22905100.305
 118974093.122 7  92707106.51044  22640017.992                    22640025.074
 116174103.068 7  90525304.39845  22107192.266                    22107200.992
 11  8 13 20 22 30.0000000  0  9G01G04G07G28G17G08G26G11G24
 126899320.012 6  98882600.567 7  24148137.781                    24148149.406
 128092740.501 6  99812611.05743  24375241.984                    24375257.180
 115013450.680 7  89620892.592 7  21886337.594                    21886345.742
 112868491.835 8  87949504.49346  21478159.430                    21478165.262
 111005778.434 8  86498073.821 7  21123695.438                    21123703.176
 106295601.065 8  82827766.79046  20227381.852                    20227389.621
 120397759.413 7  93816475.79944  22910932.648                    22910941.359
 119050116.723 7  92766345.64144  22654484.914                    22654491.781
 116206690.742 7  90550697.38945  22113394.227                    22113402.719
 11  8 13 20 23  0.0000000  0  9G01G04G07G28G17G08G26G11G24
 126969803.433 6  98937522.664 7  24161550.672                    24161561.848
 127979590.262 6  99724442.36743  24353709.500                    24353724.789
 115099733.497 7  89688125.874 7  21902756.594                    21902765.121
 112849331.149 8  87934574.09646  21474512.734                    21474519.113
 110970816.070 8  86470830.449 7  21117042.219                    21117049.734
 106332275.984 8  82856344.60346  20234361.117                    20234368.434
 120428971.137 7  93840796.57144  22916871.641                    22916881.359
 119126553.154 7  92825906.46044  22669030.742                    22669037.391
 116239833.242 7  90576522.71545  22119700.867                    22119709.301
 11  8 13 20 23 30.0000000  0  9G01G04G07G28G17G08G26G11G24
 127040679.989 6  98992751.095 6  24175037.375                    24175049.660
 127866402.251 6  99636244.21343  24332170.297                    24332185.266
 115186387.258 7  89755648.179 7  21919246.758                    21919255.008
 112830225.556 8  87919686.62246  21470876.828                    21470883.438
 110936218.603 8  86443871.412 7  21110458.609                    21110466.063
 106369530.505 8  82885374.07646  20241450.344                    20241457.789
 120460697.660 7  93865518.48744  22922909.297                    22922918.203
 119203400.162 7  92885787.20844  22683653.570                    22683660.777
 116273530.023 7  90602779.94145  22126112.789                    22126121.168
 11  8 13 20 24  0.0000000  0  9G01G04G07G28G17G08G26G11G24
 127111947.866 6  99048284.462 7  24188599.695                    24188610.777
 127753179.148 6  99548018.73642  24310624.406                    24310639.773
 115273409.839 7  89823457.880 7  21935806.844                    21935815.324
 112811175.805 8  87904842.65946  21467252.531                    21467258.219
 110901985.940 8  86417196.640 7  21103944.453                    21103951.637
 106407364.185 8  82914854.83646  20248650.063                    20248657.492
 120492936.651 7  93890639.72144  22929043.977                    22929053.059
 119280655.509 7  92945986.14644  22698354.695                    22698361.535
 116307780.166 7  90629468.35645  22132631.016                    22132639.746
 11  8 13 20 24 30.0000000  0  9G01G04G07G28G17G08G26G11G24
 127183604.261 6  99104120.562 6  24202235.727                    24202247.535
 127639923.269 6  99459767.62742  24289071.672                    24289087.324
 115360799.278 7  89891553.449 7  21952436.344                    21952444.875
 112792182.469 8  87890042.66346  21463637.898                    21463644.027
 110868117.031 8  86390805.306 7  21097499.672                    21097506.941
 106445776.397 8  82944786.39546  20255959.914                    20255967.293
 120525685.954 7  93916158.60444  22935275.617                    22935285.277
 119358316.516 7  93006501.19444  22713133.508                    22713140.289
 116342582.591 7  90656587.12345  22139253.859                    22139261.734
 11  8 13 20 25  0.0000000  0  9G01G04G07G28G17G08G26G11G24
 127255647.557 6  99160258.137 6  24215944.688                    24215956.336
 127526637.352 6  99371493.11042  24267514.664                    24267529.078
 115448553.780 7  89959933.497 7  21969135.234                    21969143.809
 112773246.162 8  87875287.09846  21460034.531                    21460040.379
 110834611.711 8  86364697.290 7  21091123.297                    21091130.883
 106484767.191 8  82975168.81546  20263379.461                    20263387.008
 120558943.227 7  93942073.31644  22941604.984                    22941614.000
 119436380.837 7  93067330.50344  22727988.398                    22727995.289
 116377936.589 7  90684135.68845  22145980.734                    22145988.961
 11  8 13 20 25 30.0000000  0  9G01G04G07G28G17G08G26G11G24
 127328074.833 6  99216694.949 6  24229727.656                    24229738.844
 127413323.785 6  99283197.09343  24245951.563                    24245966.469
 115536670.972 7  90028596.145 7  21985903.320                    21985912.465
 112754367.190 8  87860576.21746  21456442.125                    21456448.406
 110801469.333 8  86338872.100 7  21084816.625                    21084823.895
 106524335.309 8  83006001.07946  20270909.047                    20270916.473
 120592706.008 7  93968381.89244  22948029.438                    22948038.453
 119514845.565 7  93128471.82644  22742919.625                    22742926.953
 116413840.718 7  90712112.91545  22152813.109                    22152821.680
 11  8 13 20 26  0.0000000  0  9G01G04G07G28G17G08G26G11G24
 127400884.226 6  99273429.490 6  24243582.789                    24243594.016
 127299985.000 6  99194881.39543  24224383.680                    24224397.914
 115625148.900 7  90097539.887 7  22002740.539                    22002748.777
 112735546.474 8  87845910.73346  21452860.523                    21452866.797
 110768689.091 8  86313329.080 7  21078578.813                    21078586.484
 106564480.086 8  83037282.69446  20278548.328                    20278555.652
 120626972.123 7  93995082.71144  22954550.203                    22954559.598
 119593708.254 7  93189923.23544  22757927.211                    22757934.070
 116450293.879 7  90740517.97945  22159750.313                    22159758.949
 11  8 13 20 26 30.0000000  0  9G01G04G07G28G17G08G26G11G24
 127474074.079 6  99330460.528 6  24257510.195                    24257520.973
 127186624.101 6  99106548.50443  24202812.313                    24202826.348
 115713985.415 7  90166763.039 7  22019645.742                    22019654.137
 112716785.021 8  87831291.42346  21449290.320                    21449296.703
 110736271.136 7  86288068.360 7  21072409.688                    21072417.422
 106605201.599 8  83069013.71746  20286297.227                    20286304.711
 120661739.499 7  94022174.12244  22961166.477                    22961175.438
 119672966.778 7  93251683.08744  22773009.266                    22773015.887
 116487295.448 7  90769350.35445  22166791.516                    22166800.102
 11  8 13 20 27  0.0000000  0  9G01G04G07G28G17G08G26G11G24
 127547641.829 6  99387785.976 6  24271510.250                    24271520.957
 127073243.564 6  99018200.32343  24181235.266                    24181250.074
 115803178.833 7  90236264.284 7  22036618.617                    22036627.324
 112698083.428 8  87816718.76346  21445731.250                    21445737.559
 110704214.894 8  86263089.488 7  21066309.992                    21066317.070
 106646499.251 8  83101193.67446  20294156.273                    20294163.594
 120697005.833 7  94049654.33544  22967877.070                    22967886.398
 119752618.578 7  93313749.39244  22788166.805                    22788173.805
 116524844.260 7  90798609.17945  22173936.734                    22173944.973
 11  8 13 20 27 30.0000000  0  9G01G04G07G28G17G08G26G11G24
 127621585.930 6  99445404.714 6  24285581.211                    24285592.211
 126959846.460 6  98929839.25143  24159657.328                    24159671.813
 115892727.202 7  90306042.123 7  22053659.453                    22053667.977
 112679442.414 8  87802193.30046  21442184.273                    21442190.457
 110672519.840 8  86238392.058 7  21060278.563                    21060285.809
 106688372.764 8  83133822.34846  20302124.133                    20302131.945
 120732768.919 7  94077521.63044  22974682.703                    22974692.355
 119832661.326 7  93376120.34844  22803398.250                    22803405.836
 116562939.375 7  90828293.66045  22181185.922                    22181194.109
 11  8 13 20 28  0.0000000  0  9G01G04G07G28G17G08G26G11G24
 127695903.481 6  99503314.458 6  24299723.539                    24299734.801
 126846434.835 6  98841466.83743  24138075.547                    24138089.848
 115982628.109 7  90376094.680 7  22070767.383                    22070775.445
 112660862.279 8  87787715.28446  21438648.203                    21438654.605
 110641185.358 8  86213975.595 7  21054315.258                    21054322.918
 106730821.024 8  83166898.87346  20310202.156                    20310209.422
 120769026.375 7  94105774.12944  22981582.805                    22981591.789
 119913092.479 7  93438793.93544  22818704.180                    22818710.738
 116601579.600 7  90858402.90045  22188538.945                    22188547.543
 11  8 13 20 28 30.0000000  0  9G01G04G07G28G17G08G26G11G24
 127770592.963 6  99561514.047 6  24313936.281                    24313947.711
 126733011.765 6  98753085.48943  24116491.086                    24116505.582
 116072879.969 7  90446420.708 7  22087941.117                    22087949.637
 112642344.263 8  87773285.66546  21435124.500                    21435130.758
 110610211.415 8  86189840.068 7  21048421.398                    21048429.094
 106773843.969 8  83200423.20746  20318388.836                    20318396.398
 120805775.926 7  94134410.08044  22988575.836                    22988585.348
 119993909.948 7  93501768.55044  22834083.000                    22834089.277
 116640764.104 7  90888936.27645  22195995.633                    22196003.895
 11  8 13 20 29  0.0000000  0  9G01G04G07G28G17G08G26G11G24
 127845652.085 6  99620001.609 6  24328219.883                    24328230.535
 126619580.174 6  98664697.53343  24094904.898                    24094920.504
 116163480.468 7  90517018.391 7  22105181.930                    22105191.316
 112623889.528 8  87758905.36346  21431612.906                    21431618.910
 110579597.219 8  86165984.867 7  21042595.609                    21042603.168
 106817441.315 8  83234395.12546  20326685.352                    20326692.574
 120843015.501 7  94163427.88444  22995661.313                    22995671.199
 120075111.108 7  93565042.14044  22849534.500                    22849541.883
 116680492.057 7  90919893.10745  22203555.578                    22203564.215
 11  8 13 20 29 30.0000000  0  9G01G04G07G28G17G08G26G11G24
 127921078.211 6  99678775.177 6  24342572.141                    24342583.859
 126506142.436 6  98576304.75143  24073318.695                    24073333.418
 116254427.381 7  90587886.011 7  22122489.148                    22122497.934
 112605498.282 8  87744574.53346  21428112.641                    21428119.281
 110549341.685 8  86142409.145 7  21036838.297                    21036845.773
 106861611.498 8  83268813.41446  20335090.508                    20335098.297
 120880742.326 7  94192825.33844  23002841.266                    23002850.910
 120156692.899 7  93628612.33844  22865059.516                    22865066.293
 116720761.681 7  90951272.01745  22211218.172                    22211227.457
 11  8 13 20 30  0.0000000  0  9G01G04G07G28G17G08G26G11G24
 127996869.337 6  99737833.138 6  24356995.063                    24357006.484
 126392701.348 6  98487909.36143  24051732.094                    24051746.188
 116345718.786 7  90659022.065 7  22139861.422                    22139869.742
 112587171.510 8  87730293.93446  21424625.445                    21424631.566
 110519444.685 8  86119112.795 7  21031149.078                    21031156.504
 106906354.551 8  83303678.08446  20343604.859                    20343612.207
 120918954.233 7  94222600.78144  23010113.328                    23010122.449
 120238653.122 7  93692477.39944  22880655.859                    22880663.238
 116761572.360 7  90983072.53645  22218984.500                    22218992.871
 11  8 13 20 30 30.0000000  0  9G01G04G07G28G17G08G26G11G24
 128073023.536 6  99797174.040 6  24371486.375                    24371498.383
 126279259.490 6  98399513.39143  24030143.570                    24030158.121
 116437352.676 7  90730424.988 7  22157298.359                    22157307.352
 112568909.851 8  87716064.07046  21421150.695                    21421156.594
 110489905.777 8  86096095.483 7  21025527.914                    21025535.035
 106951669.687 8  83338988.53446  20352227.969                    20352236.074
 120957648.802 7  94252752.33144  23017476.367                    23017485.719
 120320989.338 7  93756635.44244  22896324.148                    22896330.883
 116802922.709 7  91015293.57345  22226853.461                    22226861.805
 11  8 13 20 31  0.0000000  0  9G01G04G07G28G17G08G26G11G24
 128149538.194 6  99856795.805 6  24386047.086                    24386058.547
 126165819.662 6  98311118.94143  24008556.719                    24008571.301
 116529326.738 7  90802092.983 7  22174801.211                    22174809.043
 112550713.744 8  87701885.28446  21417688.078                    21417693.977
 110460723.984 8  86073356.440 7  21019974.852                    21019982.043
 106997555.770 8  83374743.88546  20360960.016                    20360967.465
 120996823.314 7  94283277.86244  23024931.070                    23024940.414
 120403698.860 7  93821084.38144  22912063.625                    22912070.570
 116844811.068 7  91047933.83645  22234824.258                    22234833.379
 11  8 13 20 31 30.0000000  0  9G01G04G07G28G17G08G26G11G24
 128226411.164 6  99916696.752 6  24400675.313                    24400686.766
 126052384.370 6  98222728.08743  23986970.734                    23986984.984
 116621639.006 7  90874024.516 7  22192367.195                    22192375.680
 112532584.117 8  87687758.30246  21414238.023                    21414244.234
 110431899.142 8  86050895.543 7  21014489.508                    21014497.008
 107044012.345 8  83410943.77646  20369800.445                    20369808.129
 121036475.563 7  94314175.65844  23032476.648                    23032486.234
 120486779.285 7  93885822.33644  22927872.406                    22927880.109
 116887236.489 7  91080992.60244  22242897.445                    22242906.168
 11  8 13 20 32  0.0000000  0  9G01G04G07G28G17G08G26G11G24
 128303640.666 6  99976875.518 6  24415371.570                    24415382.738
 125938956.471 7  98134342.95843  23965386.211                    23965399.594
 116714287.459 7  90946217.996 7  22209997.516                    22210007.027
 112514522.622 8  87673684.40746  21410800.805                    21410806.805
 110403430.810 8  86028712.444 7  21009072.180                    21009079.477
 107091039.139 8  83447587.99346  20378749.344                    20378756.957
 121076603.326 7  94345443.96744  23040112.813                    23040122.535
 120570228.228 7  93950847.44144  22943753.039                    22943760.621
 116930198.105 7  91114469.17144  22251072.992                    22251081.238
 11  8 13 20 32 30.0000000  0  9G01G04G07G28G17G08G26G11G24
 128381223.567 6 100037329.683 6  24430135.305                    24430146.813
 125825538.690 7  98045965.70443  23943803.617                    23943817.293
 116807269.498 7  91018671.420 7  22227691.133                    22227700.727
 112496529.002 8  87659663.40446  21407377.063                    21407383.039
 110375317.607 8  86006806.068 7  21003722.609                    21003729.906
 107138634.583 8  83484675.31146  20387806.258                    20387814.125
 121117203.621 7  94377080.49844  23047838.820                    23047847.887
 120654042.728 7  94016157.39244  22959702.289                    22959709.539
 116973694.096 7  91148362.13644  22259350.469                    22259358.543
 11  8 13 20 33  0.0000000  0  9G01G04G07G28G17G08G26G11G24
 128459158.086 6 100098057.824 7  24444965.492                    24444977.691
 125712133.642 7  97957598.38043  23922222.859                    23922236.152
 116900583.098 7  91091383.238 7  22245448.766                    22245457.238
 112478604.493 8  87645696.25746  21403965.352                    21403972.254
 110347559.403 8  85985176.326 7  20998439.906                    20998447.727
 107186798.126 8  83522205.30646  20396971.922                    20396979.824
 121158274.210 7  94409083.47344  23055653.328                    23055663.383
 120738220.466 7  94081750.40044  22975721.164                    22975728.234
 117017723.332 7  91182670.62345  22267728.344                    22267737.031
 11  8 13 20 33 30.0000000  0  9G01G04G07G28G17G08G26G11G24
 128537441.889 6 100159058.135 7  24459862.789                    24459875.273
 125598743.958 6  97869243.02943  23900644.922                    23900658.512
 116994225.939 7  91164351.562 7  22263268.211                    22263277.207
 112460749.711 8  87631783.43546  21400568.391                    21400574.398
 110320155.286 8  85963822.491 7  20993225.570                    20993232.676
 107235528.370 8  83560176.88546  20406245.188                    20406252.281
 121199812.443 7  94441450.85044  23063558.406                    23063568.246
 120822758.564 7  94147624.19944  22991808.297                    22991814.918
 117062284.314 7  91217393.46345  22276208.391                    22276217.086
 11  8 13 20 34  0.0000000  0  9G01G04G07G28G17G08G26G11G24
 128616072.474 6 100220328.685 7  24474825.836                    24474837.613
 125485372.518 6  97780901.92043  23879070.617                    23879084.555
 117088196.112 7  91237574.961 7  22281150.461                    22281159.359
 112442965.247 8  87617925.40946  21397184.219                    21397190.359
 110293104.532 8  85942744.004 7  20988077.734                    20988085.086
 107284824.789 8  83598589.64046  20415625.977                    20415633.867
 121241815.599 7  94474180.52544  23071551.727                    23071561.371
 120907654.695 7  94213776.98844  23007962.523                    23007970.094
 117107375.710 7  91252529.59845  22284789.523                    22284797.723
 11  8 13 20 34 30.0000000  0  9G01G04G07G28G17G08G26G11G24
 128695047.386 6 100281867.482 7  24489854.305                    24489865.805
 125372021.749 6  97692576.93343  23857500.930                    23857514.613
 117182491.235 7  91311051.559 7  22299094.883                    22299103.137
 112425252.097 8  87604122.95646  21393813.664                    21393819.832
 110266406.455 8  85921940.334 7  20982997.414                    20983004.910
 107334686.024 8  83637442.50946  20425114.047                    20425121.844
 121284281.153 7  94507270.49544  23079632.742                    23079642.137
 120992906.161 7  94280206.64944  23024185.977                    23024193.020
 117152995.957 7  91288077.84045  22293470.539                    22293478.602
 11  8 13 20 35  0.0000000  0  9G01G04G07G28G17G08G26G11G24
 128774365.044 6 100343673.396 7  24504947.672                    24504959.793
 125258694.682 6  97604270.40343  23835934.844                    23835949.031
 117277109.151 7  91384779.685 7  22317099.172                    22317108.738
 112407611.766 8  87590377.24146  21390456.383                    21390462.508
 110240060.833 8  85901411.299 7  20977983.781                    20977991.090
 107385111.606 8  83676735.12446  20434709.813                    20434717.316
 121327206.847 7  94540719.02744  23087801.531                    23087810.602
 121078510.487 7  94346911.27544  23040475.922                    23040482.883
 117199144.245 7  91324037.52345  22302251.859                    22302260.648
 11  8 13 20 35 30.0000000  0  9G01G04G07G28G17G08G26G11G24
 128854022.891 6 100405744.374 7  24520106.563                    24520118.477
 125145394.135 6  97515984.55643  23814373.992                    23814388.383
 117372047.867 7  91458757.789 7  22335166.273                    22335174.832
 112390044.806 8  87576688.71046  21387113.766                    21387119.797
 110214066.797 8  85881156.236 7  20973037.234                    20973044.871
 107436100.803 8  83716466.92846  20444412.453                    20444420.566
 121370590.256 7  94574524.23144  23096056.766                    23096066.211
 121164465.318 7  94413889.02944  23056832.398                    23056839.336
 117245819.004 7  91360407.45845  22311133.469                    22311142.566
 11  8 13 20 36  0.0000000  0  9G01G04G07G28G17G08G26G11G24
 128934018.832 6 100468078.813 7  24535329.164                    24535341.496
 125032122.933 6  97427721.57043  23792819.008                    23792833.559
 117467305.072 7  91532984.066 7  22353292.898                    22353301.738
 112372552.044 8  87563057.98546  21383784.750                    21383790.848
 110188423.887 8  85861174.763 7  20968157.766                    20968165.230
 107487652.742 8  83756637.23046  20454222.539                    20454230.672
 121414428.672 7  94608683.96944  23104398.938                    23104408.926
 121250768.001 7  94481137.84544  23073255.406                    23073262.711
 117293018.962 7  91397186.64845  22320115.594                    22320124.133
 11  8 13 20 36 30.0000000  0  9G01G04G07G28G17G08G26G11G24
 129014350.098 6 100530674.555 7  24550615.484                    24550627.750
 124918883.870 6  97339483.67243  23771269.680                    23771284.348
 117562878.615 7  91607456.833 7  22371479.797                    22371489.188
 112355134.160 8  87549485.61146  21380470.219                    21380476.375
 110163130.998 8  85841466.052 7  20963344.805                    20963352.203
 107539766.275 8  83797245.13246  20464139.711                    20464147.473
 121458719.445 7  94643196.19744  23112827.141                    23112837.160
 121337415.696 7  94548655.47243  23089743.547                    23089750.770
 117340742.573 7  91434373.85645  22329197.172                    22329206.184
 11  8 13 20 37  0.0000000  0  9G01G04G07G28G17G08G26G11G24
 129095014.742 6 100593530.068 6  24565965.414                    24565977.258
 124805679.732 6  97251272.92043  23749728.563                    23749742.066
 117658766.302 7  91682174.391 7  22389726.977                    22389736.316
 112337792.136 8  87535972.33546  21377170.297                    21377176.672
 110138187.628 8  85822029.685 7  20958598.180                    20958605.758
 107592440.319 8  83838289.80046  20474163.336                    20474171.078
 121503459.786 7  94678058.73944  23121341.203                    23121351.094
 121424406.111 7  94616440.15343  23106297.719                    23106305.125
 117388988.129 7  91471967.81245  22338378.086                    22338386.758
 11  8 13 20 37 30.0000000  0  9G01G04G07G28G17G08G26G11G24
 129176010.159 6 100656643.338 6  24581379.484                    24581390.652
 124692512.943 6  97163091.31743  23728193.000                    23728206.395
 117754965.556 7  91757134.738 7  22408033.000                    22408042.281
 112320526.783 8  87522518.81746  21373884.711                    21373890.836
 110113592.989 8  85802865.061 8  20953917.930                    20953925.215
 107645673.513 8  83879770.16346  20484293.195                    20484301.074
 121548647.146 7  94713269.61244  23129940.211                    23129949.707
 121511736.685 6  94684489.91443  23122915.797                    23122923.473
 117437754.199 7  91509967.32445  22347658.242                    22347667.148
 11  8 13 20 38  0.0000000  0  9G01G04G07G28G17G08G26G11G24
 129257334.160 6 100720012.635 6  24596853.813                    24596865.883
 124579386.653 7  97074941.21744  23706666.555                    23706679.609
 117851474.808 7  91832336.634 7  22426398.578                    22426407.426
 112303339.340 8  87509126.00146  21370614.352                    21370620.129
 110089346.240 8  85783971.511 7  20949303.766                    20949311.203
 107699465.372 8  83921685.85446  20494529.430                    20494536.984
 121594278.948 7  94748826.78744  23138623.758                    23138633.785
 121599404.549 7  94752802.48743  23139598.500                    23139606.320
 117487039.594 7  91548371.53045  22357036.836                    22357045.652
 11  8 13 20 38 30.0000000  0  9G01G04G07G28G17G08G26G11G24
 129338984.679 6 100783636.361 6  24612392.188                    24612403.402
 124466303.777 7  96986824.95443  23685147.094                    23685159.910
 117948291.182 7  91907777.828 7  22444821.719                    22444831.469
 112286230.793 8  87495794.66746  21367358.656                    21367364.379
 110065447.114 8  85765348.828 7  20944756.078                    20944763.121
 107753814.670 8  83964035.91646  20504871.547                    20504879.234
 121640352.584 7  94784728.26044  23147391.195                    23147401.398
 121687407.340 7  94821376.04543  23156345.727                    23156353.063
 117536842.505 7  91587178.98745  22366513.406                    22366522.789
 11  8 13 20 39  0.0000000  0  9G01G04G07G28G17G08G26G11G24
 129420958.878 6 100847512.316 6  24627990.594                    24628002.684
 124353266.809 7  96898744.47444  23663636.234                    23663649.566
 118045412.531 7  91983456.661 7  22463303.539                    22463313.316
 112269201.830 8  87482525.35046  21364118.039                    21364124.031
 110041894.688 8  85746996.314 7  20940273.820                    20940281.098
 107808719.991 8  84006819.23246  20515320.219                    20515327.980
 121686865.298 7  94820971.86244  23156242.148                    23156252.148
 121775742.215 7  94890208.37744  23173154.969                    23173162.707
 117587161.472 7  91626388.54545  22376089.164                    22376097.891
 11  8 13 20 39 30.0000000  0  9G01G04G07G28G17G08G26G11G24
 129503254.911 6 100911639.044 6  24643651.273                    24643663.383
 124240278.797 7  96810702.12343  23642135.352                    23642148.441
 118142837.027 7  92059371.736 7  22481842.688                    22481852.262
 112252253.602 8  87469318.93746  21360893.055                    21360898.879
 110018688.374 8  85728913.490 7  20935857.977                    20935865.301
 107864180.329 8  84050035.03946  20525873.852                    20525881.234
 121733814.412 7  94857555.52444  23165176.516                    23165186.219
 121864406.670 7  94959297.51444  23190027.344                    23190034.527
 117637995.181 7  91665999.22245  22385762.273                    22385771.031
 11  8 13 20 40  0.0000000  0  9G01G04G07G28G17G08G26G11G24
 129585870.118 6 100976014.472 6  24659371.961                    24659384.199
 124127342.276 7  96722699.89844  23620643.445                    23620656.531
 118240561.810 7  92135520.773 7  22500439.430                    22500448.539
 112235386.814 8  87456175.99046  21357683.125                    21357689.156
 109995826.887 8  85711099.360 7  20931507.539                    20931514.621
 107920194.587 8  84093682.46846  20536532.852                    20536540.828
 121781197.224 7  94894477.12544  23174193.172                    23174202.988
 121953398.201 6  95028641.52244  23206962.195                    23206969.305
 117689341.983 7  91706009.70645  22395533.852                    22395542.199
 11  8 13 20 40 30.0000000  0  9G01G04G07G28G17G08G26G11G24
 129668802.399 6 101040636.984 6  24675153.805                    24675165.637
 124014459.933 7  96634739.86643  23599163.484                    23599175.891
 118338584.837 7  92211902.228 7  22519092.539                    22519102.211
 112218602.411 8  87443097.23746  21354488.750                    21354495.129
 109973309.685 8  85693553.508 7  20927222.344                    20927229.680
 107976761.695 8  84137760.68746  20547297.414                    20547305.004
 121829010.971 7  94931734.50644  23183292.047                    23183301.762
 122042714.301 6  95098238.42344  23223958.039                    23223965.555
 117741200.226 7  91746418.71645  22405401.977                    22405410.777
 11  8 13 20 41  0.0000000  0  9G01G04G07G28G17G08G26G11G24
 129752049.205 6 101105504.575 6  24690995.617                    24691007.215
 123901635.006 7  96546824.63043  23577692.773                    23577705.172
 118436903.842 7  92288514.292 7  22537802.148                    22537811.465
 112201901.593 8  87430083.61346  21351311.008                    21351317.242
 109951135.977 8  85676275.314 7  20923003.305                    20923010.594
 108033880.358 8  84182268.68846  20558166.852                    20558174.434
 121877252.930 7  94969325.57044  23192471.578                    23192481.816
 122132352.157 6  95168086.06144  23241015.742                    23241023.586
 117793568.067 7  91787224.82845  22415367.086                    22415375.664
 11  8 13 20 41 30.0000000  0  9G01G04G07G28G17G08G26G11G24
 129835608.309 6 101170615.511 6  24706895.703                    24706908.082
 123788870.143 6  96458956.10243  23556234.477                    23556247.105
 118535516.442 7  92365355.162 7  22556567.602                    22556576.902
 112185285.104 8  87417135.69846  21348148.938                    21348155.125
 109929304.850 8  85659264.063 7  20918849.086                    20918855.965
 108091549.191 8  84227205.40746  20569140.789                    20569148.746
 121925920.339 7  95007248.15344  23201732.992                    23201743.512
 122222309.209 6  95238182.39944  23258134.328                    23258142.016
 117846443.921 7  91828426.78945  22425428.656                    22425437.934
 11  8 13 20 42  0.0000000  0  9G01G04G07G28G17G08G26G11G24
 129919476.881 6 101235967.591 6  24722856.594                    24722867.996
 123676168.086 6  96371136.56643  23534787.586                    23534799.777
 118634420.571 7  92442423.186 7  22575388.641                    22575398.117
 112168753.889 8  87404254.23646  21345002.945                    21345009.152
 109907815.506 8  85642519.142 7  20914759.242                    20914766.785
 108149767.007 8  84272569.89346  20580219.320                    20580227.043
 121975010.321 7  95045500.00644  23211075.211                    23211084.863
 122312582.757 6  95308525.37743  23275312.359                    23275319.832
 117899826.256 7  91870023.38945  22435588.008                    22435596.344
 11  8 13 20 42 30.0000000  0  9G01G04G07G28G17G08G26G11G24
 130003652.816 6 101301559.171 6  24738874.555                    24738886.207
 123563531.608 6  96283368.11943  23513353.492                    23513366.262
 118733613.594 7  92519716.314 7  22594264.320                    22594274.145
 112152308.880 8  87391439.94046  21341873.820                    21341880.137
 109886667.483 8  85626040.184 7  20910734.992                    20910742.313
 108208532.501 8  84318361.14746  20591401.992                    20591409.840
 122024520.316 7  95084079.15644  23220496.383                    23220506.461
 122403170.149 7  95379112.87444  23292551.172                    23292558.773
 117953713.301 7  91912013.27845  22445841.813                    22445850.383
 11  8 13 20 43  0.0000000  0  9G01G04G07G28G17G08G26G11G24
 130088133.813 6 101367388.441 6  24754950.547                    24754962.648
 123450963.818 6  96195653.18943  23491932.352                    23491945.070
 118833093.219 7  92597232.773 6  22613195.070                    22613203.715
 112135951.198 8  87378693.69546  21338761.055                    21338767.246
 109865860.076 8  85609826.634 8  20906775.820                    20906782.715
 108267844.537 8  84364578.27446  20602688.609                    20602696.652
 122074447.397 7  95122983.29944  23229997.484                    23230007.324
 122494068.946 7  95449943.04443  23309847.938                    23309856.125
 118008103.587 7  91954395.31345  22456191.664                    22456200.715
 11  8 13 20 43 30.0000000  0  9G01G04G07G28G17G08G26G11G24
 130172917.532 6 101433453.614 6  24771085.172                    24771096.773
 123338467.418 6  96107993.93244  23470524.547                    23470537.320
 118932856.993 7  92674970.650 7  22632179.531                    22632188.625
 112119681.785 8  87366016.24046  21335665.047                    21335671.047
 109845391.853 8  85593877.394 8  20902880.508                    20902887.898
 108327701.600 8  84411220.10246  20614079.125                    20614087.078
 122124788.741 7  95162210.23844  23239577.359                    23239587.273
 122585276.413 6  95521013.74243  23327204.711                    23327212.535
 118062995.245 7  91997168.01245  22466637.297                    22466645.855
 11  8 13 20 44  0.0000000  0  9G01G04G07G28G17G08G26G11G24
 130258001.551 6 101499752.804 6  24787275.500                    24787287.199
 123226045.303 6  96020392.52944  23449131.328                    23449143.719
 119032902.890 7  92752928.343 6  22651217.664                    22651227.508
 112103501.890 8  87353408.53446  21332586.359                    21332592.410
 109825262.161 8  85578191.939 7  20899049.773                    20899057.039
 108388102.354 8  84458285.57846  20625573.219                    20625581.121
 122175541.612 7  95201757.84844  23249234.664                    23249245.047
 122676789.785 6  95592322.81443  23344617.992                    23344626.855
 118118386.523 7  92040330.02644  22477177.727                    22477186.570
 11  8 13 20 44 30.0000000  0  9G01G04G07G28G17G08G26G11G24
 130343383.159 6 101566283.868 6  24803522.719                    24803534.777
 123113700.024 6  95932850.99344  23427752.664                    23427765.324
 119133228.162 7  92831103.752 6  22670309.383                    22670318.273
 112087412.212 8  87340871.12946  21329524.664                    21329530.457
 109805470.030 8  85562769.514 7  20895283.500                    20895290.906
 108449044.985 8  84505773.30146  20637169.844                    20637177.848
 122226702.926 7  95241623.71744  23258970.773                    23258980.523
 122768606.454 6  95663868.20043  23362091.305                    23362099.098
 118174275.425 7  92083879.80144  22487813.227                    22487821.984
 11  8 13 20 45  0.0000000  0  9G01G04G07G28G17G08G26G11G24
 130429059.979 6 101633044.981 6  24819826.914                    24819838.430
 123001434.311 7  95845371.46344  23406388.586                    23406401.363
 119233830.447 7  92909495.001 7  22689452.984                    22689462.785
 112071413.689 8  87328404.74046  21326480.203                    21326486.273
 109786014.409 8  85547609.306 8  20891581.461                    20891588.691
 108510527.846 8  84553681.98146  20648870.055                    20648877.563
 122278269.893 7  95281805.69144  23268784.094                    23268793.922
 122860723.523 6  95735647.67443  23379620.766                    23379627.781
 118230660.075 7  92127815.88044  22498542.930                    22498551.066
 11  8 13 20 45 30.0000000  0  9G01G04G07G28G17G08G26G11G24
 130515030.025 6 101700034.568 6  24836186.578                    24836198.141
 122889251.447 7  95757956.47044  23385041.000                    23385053.238
 119334707.748 7  92988100.554 7  22708649.367                    22708659.109
 112055507.696 8  87316010.46346  21323453.133                    21323459.480
 109766895.200 8  85532711.233 7  20887943.336                    20887950.484
 108572550.443 8  84602011.23446  20660672.023                    20660680.176
 122330239.777 7  95322301.63444  23278672.711                    23278682.863
 122953138.851 6  95807659.54243  23397206.797                    23397214.676
 118287539.381 7  92172137.40044  22509367.188                    22509375.590
 11  8 13 20 46  0.0000000  0  9G01G04G07G28G17G08G26G11G24
 130601290.280 6 101767250.304 6  24852601.805                    24852613.492
 122777154.173 7  95670608.19244  23363710.477                    23363721.969
 119435857.583 7  93066918.453 6  22727897.539                    22727907.539
 112039694.931 7  87303688.83446  21320444.109                    21320450.242
 109748110.898 7  85518074.139 8  20884368.359                    20884375.855
 108635111.088 8  84650759.75946  20672577.234                    20672585.199
 122382609.581 7  95363109.20044  23288639.305                    23288648.449
 123045849.579 7  95879901.62343  23414849.742                    23414856.555
 118344911.204 7  92216842.69044  22520284.641                    22520293.145
 11  8 13 20 46 30.0000000  0  9G01G04G07G28G17G08G26G11G24
 130687839.047 6 101834690.841 6  24869071.789                    24869083.461
 122665145.483 7  95583328.90844  23342395.094                    23342407.020
 119537277.592 7  93145946.884 6  22747197.242                    22747206.867
 112023976.844 8  87291440.97746  21317453.016                    21317459.160
 109729660.783 8  85503697.445 8  20880857.813                    20880864.875
 108698208.470 8  84699926.49546  20684584.578                    20684591.840
 122435376.616 7  95404226.31744  23298680.063                    23298690.191
 123138853.005 6  95952371.75443  23432547.125                    23432554.371
 118402773.790 7  92261930.41344  22531294.844                    22531303.750
 11  8 13 20 47  0.0000000  0  9G01G04G07G28G17G08G26G11G24
 130774673.604 6 101902354.097 6  24885595.273                    24885606.863
 122553228.018 7  95496120.72544  23321097.688                    23321110.086
 119638965.320 7  93225183.907 6  22766548.461                    22766557.656
 112008354.593 7  87279267.79846  21314480.117                    21314486.320
 109711544.162 7  85489580.608 7  20877410.148                    20877417.305
 108761840.810 8  84749510.09346  20696693.328                    20696701.156
 122488537.941 7  95445650.63544  23308796.203                    23308806.762
 123232146.723 6  96025068.10543  23450300.070                    23450307.441
 118461125.233 7  92307399.03144  22542399.414                    22542407.637
 11  8 13 20 47 30.0000000  0  9G01G04G07G28G17G08G26G11G24
 130861791.775 6 101970238.331 6  24902174.008                    24902185.063
 122441404.809 7  95408985.97444  23299818.625                    23299830.250
 119740918.294 7  93304627.658 7  22785949.359                    22785958.887
 111992828.693 8  87267169.69446  21311525.805                    21311531.754
 109693759.829 8  85475722.708 8  20874025.813                    20874033.234
 108826006.981 8  84799509.65646  20708903.531                    20708911.957
 122542090.611 7  95487379.89944  23318987.047                    23318997.156
 123325728.131 7  96097988.62843  23468108.273                    23468115.758
 118519963.748 7  92353247.23244  22553595.766                    22553603.910
 11  8 13 20 48  0.0000000  0  9G01G04G07G28G17G08G26G11G24
 130949190.732 6 102038341.357 6  24918804.375                    24918816.715
 122329678.604 6  95321926.81843  23278556.969                    23278568.848
 119843134.257 7  93384276.316 7  22805400.703                    22805410.238
 111977400.487 8  87255147.71046  21308589.742                    21308596.105
 109676307.073 8  85462123.172 7  20870704.633                    20870711.918
 108890705.306 8  84849923.89546  20721215.383                    20721223.383
 122596031.880 7  95529411.95944  23329252.086                    23329262.543
 123419594.445 7  96171131.15343  23485970.758                    23485977.938
 118579287.627 7  92399473.59344  22564884.695                    22564893.535
 11  8 13 20 48 30.0000000  0  9G01G04G07G28G17G08G26G11G24
 131036868.121 5 102106661.359 6  24935489.281                    24935500.977
 122218052.227 6  95234945.42343  23257314.563                    23257326.750
 119945610.901 7  93464128.087 7  22824901.055                    22824911.074
 111962071.009 8  87243202.66546  21305672.688                    21305678.988
 109659184.997 8  85448781.307 7  20867446.742                    20867453.637
 108955933.875 8  84900751.30546  20733628.133                    20733636.156
 122650358.579 7  95571744.37044  23339590.219                    23339600.207
 123513742.783 7  96244493.45843  23503886.648                    23503894.152
 118639094.920 7  92446076.64644  22576265.719                    22576274.582
 11  8 13 20 49  0.0000000  0  9G01G04G07G28G17G08G26G11G24
 131124821.730 5 102175196.542 6  24952225.320                    24952237.996
 122106528.752 7  95148044.19743  23236092.813                    23236104.191
 120048345.567 7  93544180.928 6  22844451.203                    22844460.547
 111946841.414 8  87231335.44646  21302774.688                    21302780.914
 109642392.609 8  85435696.346 8  20864251.070                    20864258.305
 109021690.963 8  84951990.54046  20746141.313                    20746149.289
 122705067.785 7  95614374.82544  23350001.063                    23350011.512
 123608170.506 7  96318073.44243  23521856.055                    23521863.500
 118699383.537 7  92493054.75844  22587737.922                    22587746.977
 11  8 13 20 49 30.0000000  0  9G01G04G07G28G17G08G26G11G24
 131213048.689 5 102243944.741 6  24969015.461                    24969027.457
 121995110.859 6  95061225.23943  23214890.813                    23214902.320
 120151335.838 7  93624432.904 6  22864049.609                    22864059.727
 111931712.839 8  87219546.94646  21299895.609                    21299901.660
 109625928.901 8  85422867.503 7  20861118.055                    20861125.172
 109087975.320 8  85003640.63246  20758754.992                    20758762.902
 122760156.466 7  95657300.98844  23360484.250                    23360493.895
 123702875.336 7  96391869.33443  23539877.656                    23539884.977
 118760151.572 7  92540406.44844  22599302.109                    22599310.789
 11  8 13 20 50  0.0000000  0  9G01G04G07G28G17G08G26G11G24
 131301546.887 6 102312904.349 6  24985855.523                    24985867.445
 121883801.539 7  94974490.89244  23193708.813                    23193721.098
 120254579.230 7  93704882.123 6  22883696.688                    22883706.055
 111916686.178 8  87207837.86546  21297036.383                    21297042.305
 109609792.920 8  85410294.026 8  20858047.211                    20858054.750
 109154785.223 8  85055700.24246  20771468.391                    20771476.328
 122815621.746 7  95700520.59544  23371038.734                    23371049.105
 123797854.354 6  96465878.89243  23557951.305                    23557958.828
 118821397.124 7  92588130.23044  22610956.375                    22610965.418
 11  8 13 20 50 30.0000000  0  9G01G04G07G28G17G08G26G11G24
 131390313.609 6 102382073.152 5  25002747.844                    25002759.551
 121772603.487 7  94887843.21244  23172548.148                    23172560.141
 120358073.737 7  93785527.026 6  22903390.133                    22903400.215
 111901762.333 8  87196208.89646  21294196.438                    21294202.594
 109593983.525 8  85397975.034 8  20855039.242                    20855046.484
 109222119.084 8  85108168.12546  20784281.844                    20784289.863
 122871460.704 7  95744031.39444  23381665.359                    23381674.922
 123893104.664 6  96540099.86143  23576076.430                    23576084.457
 118883118.236 7  92636224.57244  22622701.547                    22622710.586
 11  8 13 20 51  0.0000000  0  8G04G07G28G17G08G26G11G24
 121661519.863 7  94801284.74044  23151409.555                    23151421.512
 120461816.586 7  93866365.442 6  22923132.523                    22923142.512
 111886942.921 8  87184661.28946  21291376.148                    21291382.207
 109578499.906 8  85385909.893 7  20852092.375                    20852099.461
 109289975.490 8  85161043.19146  20797194.781                    20797202.301
 122927670.462 7  95787831.11744  23392361.492                    23392371.883
 123988624.042 6  96614530.47643  23594253.688                    23594261.074
 118945312.806 7  92684687.84644  22634536.930                    22634546.160
 11  8 13 20 51 30.0000000  0  8G04G07G28G17G08G26G11G24
 121550553.302 7  94714817.44644  23130294.000                    23130305.555
 120565805.271 7  93947395.443 6  22942921.250                    22942930.547
 111872228.923 8  87173195.82846  21288576.414                    21288582.535
 109563341.263 8  85374097.985 8  20849207.938                    20849215.227
 109358352.189 8  85214323.67446  20810206.125                    20810213.930
 122984247.895 7  95831917.34744  23403127.383                    23403137.707
 124084409.864 6  96689168.72643  23612480.234                    23612488.383
 119007979.003 7  92733518.60644  22646461.945                    22646470.785
 11  8 13 20 52  0.0000000  0  8G04G07G28G17G08G26G11G24
 121439706.845 7  94628443.72344  23109199.992                    23109211.500
 120670037.349 7  94028615.109 6  22962755.727                    22962765.430
 111857621.105 8  87161813.10246  21285796.719                    21285802.906
 109548506.431 8  85362538.395 8  20846384.883                    20846392.184
 109427247.597 8  85268008.34946  20823316.594                    20823324.590
 123041189.958 7  95876287.69244  23413963.828                    23413973.520
 124180459.065 6  96764012.17543  23630758.453                    23630766.508
 119071114.613 7  92782715.15744  22658476.211                    22658485.121
 11  8 13 20 52 30.0000000  0  8G04G07G28G17G08G26G11G24
 121328983.302 7  94542165.78544  23088130.539                    23088141.473
 120774510.482 7  94110022.566 6  22982636.094                    22982646.398
 111843120.896 8  87150514.23846  21283037.695                    21283043.641
 109533994.404 8  85351230.344 7  20843623.547                    20843630.359
 109496660.039 8  85322095.90446  20836525.094                    20836533.340
 123098493.718 7  95920939.90044  23424867.711                    23424877.828
 124276769.067 6  96839058.86943  23649085.953                    23649093.629
 119134717.781 7  92832276.01544  22670579.516                    22670588.254
 11  8 13 20 53  0.0000000  0  9G27G04G07G28G17G08G26G11G24
 132148192.41816                  25146972.703
 121218385.629 7  94455985.93544  23067084.250                    23067095.422
 120879222.239 7  94191615.966 6  23002562.445                    23002572.805
 111828729.482 8  87139300.14746  21280298.914                    21280304.828
 109519804.310 8  85340173.145 8  20840923.250                    20840930.266
 109566587.838 8  85376585.03046  20849832.109                    20849840.348
 123156155.893 7  95965871.36644  23435840.867                    23435851.145
 124373337.544 6  96914306.96443  23667461.992                    23667470.809
 119198786.341 7  92882199.53344  22682771.094                    22682780.512
 11  8 13 20 53 30.0000000  0  9G27G04G07G28G17G08G26G11G24
 132056060.900 5 102900890.85052  25129440.188                    25129448.777
 121107916.541 7  94369906.25844  23046062.305                    23046073.840
 120984169.687 7  94273392.977 6  23022533.141                    23022544.352
 111814447.844 8  87128171.59846  21277580.875                    21277587.031
 109505934.628 8  85329365.611 8  20838283.820                    20838290.938
 109637028.891 8  85431474.09646  20863236.789                    20863245.055
 123214173.546 7  96011079.83444  23446881.109                    23446891.563
 124470161.561 6  96989754.21143  23685887.313                    23685895.516
 119263318.133 7  92932484.01944  22695051.609                    22695060.777
 11  8 13 20 54  0.0000000  0  9G27G04G07G28G17G08G26G11G24
 131964030.396 5 102829178.92142  25111925.969                    25111936.879
 120997579.332 7  94283929.37444  23025065.781                    23025077.277
 121089350.752 7  94355352.048 6  23042549.070                    23042559.047
 111800277.124 8  87117129.47546  21274884.188                    21274890.473
 109492385.158 8  85318807.604 8  20835705.500                    20835712.781
 109707981.993 8  85486762.16446  20876738.711                    20876746.887
 123272543.838 7  96056563.07844  23457988.922                    23457999.016
 124567238.741 6  97065398.68343  23704360.875                    23704368.309
 119328311.646 7  92983128.28144  22707419.656                    22707428.617
 11  8 13 20 54 30.0000000  0  9G27G04G07G28G17G08G26G11G24
 131872103.026 5 102757547.23042  25094432.906                    25094444.141
 120887376.658 7  94198057.32444  23004095.109                    23004106.184
 121194763.082 7  94437491.317 6  23062608.500                    23062619.324
 111786218.727 8  87106174.87646  21272209.344                    21272215.625
 109479154.549 8  85308498.045 7  20833187.695                    20833194.570
 109779445.130 8  85542447.66146  20890337.820                    20890345.766
 123331263.661 7  96102318.71444  23469162.648                    23469172.961
 124664566.246 6  97141238.23543  23722881.688                    23722889.336
 119393764.743 7  93034130.63944  22719874.570                    22719883.820
 11  8 13 20 55  0.0000000  0  9G27G04G07G28G17G08G26G11G24
 131780280.643 5 102685997.50542  25076960.195                    25076971.270
 120777311.424 7  94112292.36844  22983149.867                    22983161.086
 121300404.076 7  94519808.802 6  23082711.883                    23082722.129
 111772273.728 8  87095308.64646  21269555.719                    21269561.848
 109466241.559 8  85298436.001 8  20830730.398                    20830737.438
 109851416.293 8  85598529.01946  20904033.586                    20904041.535
 123390329.902 7  96148344.25944  23480403.469                    23480413.512
 124762141.306 6  97217270.68343  23741449.883                    23741457.117
 119459675.243 7  93085489.42245  22732416.867                    22732426.461
 11  8 13 20 55 30.0000000  0  9G27G04G07G28G17G08G26G11G24
 131688565.232 6 102614531.02543  25059507.789                    25059517.941
 120667386.474 7  94026636.75344  22962231.656                    22962243.484
 121406271.058 7  94602302.354 6  23102857.586                    23102867.984
 111758443.019 8  87084531.46746  21266923.547                    21266929.980
 109453645.067 8  85288620.570 7  20828333.492                    20828340.613
 109923893.553 8  85655004.74546  20917825.313                    20917833.324
 123449739.337 7  96194637.25144  23491707.570                    23491718.418
 124859961.272 6  97293493.99243  23760063.938                    23760071.883
 119526040.932 7  93137202.91844  22745046.609                    22745055.336
 11  8 13 20 56  0.0000000  0  9G27G04G07G28G17G08G26G11G24
 131596959.586 6 102543150.07643  25042076.016                    25042085.254
 120557604.946 7  93941092.87144  22941340.336                    22941351.930
 121512361.532 7  94684970.069 6  23123046.125                    23123055.910
 111744728.044 7  87073844.47046  21264313.836                    21264320.492
 109441364.595 7  85279051.383 8  20825996.484                    20826003.781
 109996875.059 8  85711873.39346  20931713.508                    20931721.363
 123509489.130 7  96241195.41744  23503078.641                    23503088.391
 124958023.718 7  97369906.22343  23778724.656                    23778732.281
 119592859.547 7  93189269.35244  22757761.250                    22757770.402
 11  8 13 20 56 30.0000000  0  9G27G04G07G28G17G08G26G11G24
 131505465.675 6 102471856.20643  25024664.930                    25024674.805
 120447969.546 7  93855662.85744  22920477.727                    22920489.039
 121618673.161 7  94767810.113 6  23143276.086                    23143286.680
 111731130.037 8  87063248.61046  21261726.664                    21261732.512
 109429398.713 8  85269727.329 8  20823719.328                    20823726.645
 110070359.249 8  85769133.74046  20945697.578                    20945704.996
 123569576.097 7  96288016.35044  23514512.586                    23514523.141
 125056326.210 7  97446505.52143  23797431.117                    23797439.020
 119660128.989 7  93241687.05944  22770562.297                    22770571.277
 11  8 13 20 57  0.0000000  0  9G27G04G07G28G17G08G26G11G24
 131414085.740 6 102400651.10343  25007276.172                    25007285.910
 120338483.349 7  93770349.11444  22899643.031                    22899654.250
 121725203.634 7  94850820.672 6  23163549.148                    23163559.445
 111717650.039 8  87052744.71346  21259161.078                    21259167.453
 109417746.364 8  85260647.589 8  20821501.898                    20821509.426
 110144343.737 8  85826783.92646  20959775.711                    20959784.012
 123629997.258 7  96335097.68044  23526010.023                    23526020.449
 125154865.323 7  97523289.19943  23816183.594                    23816190.113
 119727847.158 7  93294454.42644  22783449.219                    22783457.039
 11  8 13 20 57 30.0000000  0  9G27G04G07G28G17G08G26G11G24
 131322822.048 6 102329536.64043  24989908.703                    24989919.012
 120229149.321 7  93685153.92844  22878837.328                    22878848.184
 121831950.464 7  94933999.814 6  23183862.273                    23183872.805
 111704289.539 8  87042333.92746  21256618.969                    21256624.816
 109406406.931 8  85251811.684 8  20819344.219                    20819351.395
 110218826.904 8  85884822.68746  20973949.648                    20973957.992
 123690749.261 7  96382436.81844  23537571.133                    23537581.836
 125253639.041 6  97600255.70343  23834978.453                    23834985.828
 119796012.204 7  93347570.00544  22796420.289                    22796428.699
 11  8 13 20 58  0.0000000  0  9G27G04G07G28G17G08G26G11G24
 131231676.682 6 102258514.34543  24972564.391                    24972574.613
 120119970.052 7  93600079.34744  22858061.102                    22858072.582
 121938910.862 7  95017345.379 6  23204216.375                    23204226.816
 111691049.452 7  87032016.96146  21254099.531                    21254105.289
 109395378.964 7  85243218.469 8  20817245.703                    20817252.590
 110293806.618 8  85943248.36946  20988218.016                    20988226.004
 123751829.303 7  96430031.58144  23549194.203                    23549204.840
 125352644.434 6  97677402.69643  23853818.586                    23853825.734
 119864621.654 7  93401031.88944  22809476.195                    22809484.605
 11  8 13 20 58 30.0000000  0  9G27G04G07G28G17G08G26G11G24
 131140651.519 6 102187585.73343  24955243.102                    24955253.125
 120010948.627 7  93515127.74544  22837315.273                    22837325.879
 122046082.257 7  95100855.351 7  23224610.570                    23224621.121
 111677931.004 8  87021794.78846  21251603.008                    21251609.348
 109384661.145 8  85234866.944 7  20815206.039                    20815213.449
 110369280.695 8  86002059.27346  21002580.023                    21002588.117
 123813234.174 7  96477879.43644  23560879.344                    23560889.680
 125451878.796 6  97754728.09943  23872702.383                    23872710.035
 119933673.265 7  93454838.30344  22822616.367                    22822625.000
 11  8 13 20 59  0.0000000  0  9G27G04G07G28G17G08G26G11G24
 131049749.224 6 102116752.87743  24937944.641                    24937954.402
 119902088.067 7  93430301.50144  22816599.523                    22816610.461
 122153462.282 7  95184527.854 7  23245044.648                    23245054.832
 111664935.664 7  87011668.54646  21249130.023                    21249135.961
 109374252.775 8  85226756.537 8  20813225.453                    20813232.898
 110445247.569 8  86061254.17746  21017036.195                    21017044.379
 123874960.611 7  96525977.87244  23572625.836                    23572636.547
 125551339.881 6  97832230.15943  23891628.977                    23891636.953
 120003165.008 7  93508987.68644  22835840.070                    22835848.688
 11  8 13 20 59 30.0000000  0  9G27G04G07G28G17G08G26G11G24
 130958971.991 6 102046017.47543  24920670.609                    24920680.418
 119793391.228 7  93345602.83944  22795914.664                    22795925.770
 122261048.553 7  95268361.109 6  23265517.789                    23265527.992
 111652064.313 8  87001638.91046  21246680.609                    21246686.871
 109364152.519 8  85218886.221 7  20811303.203                    20811310.688
 110521705.313 8  86120831.56646  21031585.602                    21031594.203
 123937005.445 7  96574324.40444  23584432.906                    23584442.965
 125651025.023 6  97909906.82643  23910598.219                    23910606.813
 120073094.434 7  93563478.11044  22849147.383                    22849156.770
 11  8 13 21  0  0.0000000  0  9G27G04G07G28G17G08G26G11G24
 130868321.938 6 101975381.16143  24903420.047                    24903430.203
 119684860.948 7  93261033.94044  22775261.906                    22775273.168
 122368838.132 7  95352352.798 6  23286029.531                    23286040.340
 111639318.362 8  86991706.98846  21244255.086                    21244261.230
 109354359.350 8  85211255.202 8  20809439.758                    20809447.086
 110598651.611 8  86180789.65446  21046228.313                    21046236.559
 123999365.884 6  96622916.87744  23596299.117                    23596309.641
 125750931.393 6  97987755.85743  23929610.164                    23929618.418
 120143459.308 7  93618307.86044  22862537.430                    22862545.793
 11  8 13 21  0 30.0000000  0  9G27G04G07G28G17G08G26G11G24
 130777801.542 6 101904845.90143  24886194.523                    24886204.180
 119576500.375 7  93176597.28344  22754641.414                    22754652.742
 122476829.073 7  95436501.369 6  23306580.023                    23306590.480
 111626699.284 8  86981873.92846  21241854.211                    21241859.625
 109344872.519 8  85203862.879 8  20807634.383                    20807641.512
 110676084.669 8  86241127.03246  21060962.984                    21060971.449
 124062038.706 7  96671752.75944  23608225.703                    23608236.266
 125851056.509 6  98065775.34443  23948663.531                    23948671.129
 120214257.839 7  93673475.51144  22876010.258                    22876018.551
 11  8 13 21  1  0.0000000  0  9G27G04G07G28G17G08G26G11G24
 130687412.606 6 101834413.08843  24868993.875                    24869003.855
 119468312.302 7  93092295.05944  22734054.016                    22734064.840
 122585018.782 6  95520804.839 6  23327166.805                    23327178.145
 111614208.141 8  86972140.56846  21239476.648                    21239482.703
 109335690.741 8  85196708.262 8  20805887.156                    20805894.273
 110754002.321 8  86301842.01446  21075790.461                    21075799.102
 124125020.605 7  96720829.46644  23620210.555                    23620220.938
 125951397.557 6  98143963.09843  23967757.875                    23967765.684
 120285487.732 7  93728979.30644  22889564.305                    22889573.035
 11  8 13 21  1 30.0000000  0  9G27G04G07G28G17G08G26G11G24
 130597157.120 6 101764084.21043  24851818.664                    24851828.691
 119360299.560 7  93008129.42144  22713500.039                    22713510.316
 122693404.102 6  95605260.734 6  23347792.875                    23347802.871
 111601845.819 8  86962507.57946  21237124.359                    21237130.293
 109326812.549 8  85189790.213 8  20804197.773                    20804204.746
 110832402.062 7  86362932.65146  21090709.500                    21090718.133
 124188308.301 7  96770144.45544  23632254.352                    23632264.637
 126051951.955 6  98222317.10643  23986892.438                    23986900.762
 120357146.487 7  93784817.24144  22903200.359                    22903209.293
 11  8 13 21  2  0.0000000  0  9G27G04G07G28G17G08G26G11G24
 130507037.569 6 101693861.23243  24834669.820                    24834679.430
 119252465.035 7  92924102.66244  22692979.438                    22692990.363
 122801983.032 7  95689867.515 6  23368454.500                    23368465.188
 111589614.148 8  86952976.40346  21234796.594                    21234802.793
 109318237.386 8  85183108.289 8  20802566.188                    20802573.109
 110911282.198 7  86424397.62345  21105720.078                    21105728.402
 124251898.937 7  96819695.52444  23644355.500                    23644365.883
 126152717.123 6  98300835.33743  24006067.883                    24006076.035
 120429231.810 7  93840987.60444  22916918.258                    22916926.813
 11  8 13 21  2 30.0000000  0  9G27G04G07G28G17G08G26G11G24
 130417056.065 6 101623745.86143  24817546.203                    24817556.336
 119144811.821 7  92840217.18744  22672493.266                    22672503.840
 122910752.735 7  95774622.902 6  23389153.500                    23389164.250
 111577514.027 8  86943547.73046  21232493.852                    21232500.332
 109309963.726 8  85176661.301 7  20800991.563                    20800998.504
 110990640.178 7  86486234.94645  21120821.477                    21120829.531
 124315789.108 7  96869479.97643  23656513.398                    23656524.016
 126253690.357 6  98379515.71243  24025282.953                    24025290.945
 120501741.453 7  93897488.58844  22930716.070                    22930724.750
 11  8 13 21  3  0.0000000  0  9G27G04G07G28G17G08G26G11G24
 130327214.904 6 101553739.79543  24800450.227                    24800459.738
 119037342.639 7  92756475.11744  22652042.844                    22652053.250
 123019710.839 7  95859525.149 6  23409887.070                    23409897.762
 111565546.445 8  86934222.32946  21230216.719                    21230223.082
 109301990.395 8  85170448.337 8  20799474.195                    20799481.133
 111070473.582 7  86548442.72146  21136013.031                    21136021.613
 124379975.503 7  96919495.24844  23668727.625                    23668737.676
 126354868.890 6  98458356.06043  24044536.258                    24044544.367
 120574673.026 7  93954318.35244  22944594.852                    22944603.473
 11  8 13 21  3 30.0000000  0  9G27G04G07G28G17G08G26G11G24
 130237516.506 6 101483844.99243  24783381.547                    24783390.992
 118930060.630 7  92672878.91244  22631627.164                    22631637.547
 123128854.512 7  95944571.972 6  23430656.852                    23430667.973
 111553713.368 8  86925001.74846  21227964.938                    21227971.301
 109294316.622 8  85164468.790 8  20798014.016                    20798020.945
 111150781.154 7  86611019.97545  21151295.219                    21151303.547
 124444455.484 7  96969739.28544  23680998.031                    23681007.871
 126456250.418 6  98537354.57043  24063827.609                    24063836.598
 120648024.584 7  94011475.38444  22958552.594                    22958561.824
 11  8 13 21  4  0.0000000  0  9G27G04G07G28G17G08G26G11G24
 130147962.982 6 101414063.10743  24766340.430                    24766350.004
 118822968.666 7  92589430.77444  22611248.758                    22611259.203
 123238181.475 7  96029761.613 6  23451461.891                    23451472.543
 111542015.766 8  86915886.73446  21225738.680                    21225745.137
 109286940.976 8  85158721.560 8  20796610.422                    20796617.441
 111231560.653 7  86673964.97446  21166666.883                    21166675.188
 124509225.656 7  97020209.46844  23693322.555                    23693333.836
 126557832.262 7  98616509.20743  24083159.258                    24083166.453
 120721793.597 7  94068957.68544  22972590.922                    22972599.910
 11  8 13 21  4 30.0000000  0  9G27G04G07G28G17G08G26G11G24
 130058556.736 6 101344395.95243  24749326.813                    24749336.336
 118716069.671 7  92506133.00544  22590905.945                    22590916.738
 123347689.301 7  96115092.177 6  23472300.633                    23472311.738
 111530454.780 8  86906878.16646  21223538.930                    21223545.547
 109279862.591 8  85153205.953 8  20795263.477                    20795270.621
 111312809.735 7  86737275.87646  21182128.219                    21182137.199
 124574282.818 7  97070903.26944  23705702.969                    23705713.734
 126659611.748 6  98695817.82143  24102526.531                    24102534.785
 120795977.545 7  94126763.30944  22986708.078                    22986716.414
 11  8 13 21  5  0.0000000  0  9G27G04G07G28G17G08G26G11G24
 129969299.751 6 101274845.11543  24732341.516                    24732350.898
 118609366.493 7  92422987.81944  22570601.047                    22570610.813
 123457375.284 7  96200561.555 6  23493172.773                    23493184.164
 111519031.794 8  86897977.13146  21221365.313                    21221371.422
 109273080.000 8  85147920.834 8  20793973.055                    20793979.832
 111394525.804 7  86800950.66345  21197678.453                    21197686.813
 124639623.354 7  97121817.88444  23718137.063                    23718147.910
 126761586.308 6  98775278.50543  24121932.086                    24121939.902
 120870574.213 7  94184890.54544  23000902.969                    23000912.047
 11  8 13 21  5 30.0000000  0  9G27G04G07G28G17G08G26G11G24
 129880194.506 6 101205412.53343  24715385.531                    24715394.746
 118502862.091 7  92339997.53444  22550334.563                    22550344.188
 123567236.909 6  96286167.784 6  23514078.906                    23514090.219
 111507748.355 8  86889184.83146  21219218.398                    21219224.578
 109266592.123 8  85142865.353 8  20792738.359                    20792745.602
 111476706.988 7  86864987.86545  21213316.984                    21213325.820
 124705244.611 7  97172951.24444  23730624.453                    23730635.637
 126863753.319 6  98854889.07342  24141373.664                    24141381.559
 120945581.393 7  94243337.65144  23015176.305                    23015185.281
 11  8 13 21  6  0.0000000  0  9G27G04G07G28G17G08G26G11G24
 129791243.567 6 101136100.16243  24698458.398                    24698468.035
 118396559.902 7  92257164.80544  22530105.086                    22530115.727
 123677271.704 6  96371908.917 6  23535017.617                    23535029.000
 111496606.010 8  86880502.48246  21217097.984                    21217104.238
 109260398.337 8  85138039.031 8  20791559.320                    20791566.617
 111559351.384 8  86929386.02446  21229044.039                    21229052.230
 124771143.382 7  97224300.83544  23743163.922                    23743175.965
 126966110.333 6  98934647.77342  24160851.797                    24160859.164
 121020997.148 7  94302103.13744  23029527.992                    23029536.488
 11  8 13 21  6 30.0000000  0  9G27G04G07G28G17G08G26G11G24
 129702448.704 6 101066909.42744  24681561.281                    24681570.387
 118290462.164 7  92174491.40344  22509915.266                    22509925.402
 123787477.026 6  96457782.934 6  23555989.188                    23556000.480
 111485605.219 8  86871930.43446  21215005.125                    21215010.953
 109254497.137 8  85133440.710 8  20790436.203                    20790443.668
 111642456.261 8  86994142.98445  21244858.289                    21244866.828
 124837316.427 7  97275864.14044  23755757.133                    23755767.543
 127068654.638 6  99014552.37142  24180365.383                    24180372.656
 121096818.629 7  94361184.78344  23043956.008                    23043964.746
 11  8 13 21  7  0.0000000  0  9G27G04G07G28G17G08G26G11G24
 129613812.293 6 100997842.17743  24664693.836                    24664703.750
 118184572.157 7  92091979.85844  22489765.555                    22489775.445
 123897850.271 6  96543787.831 6  23576992.047                    23577003.855
 111474747.921 8  86863470.19146  21212938.617                    21212944.391
 109248887.139 8  85129069.290 7  20789368.750                    20789375.988
 111726019.524 8  87059257.13446  21260759.961                    21260768.805
 124903760.518 7  97327638.66244  23768400.508                    23768411.695
 127171383.678 6  99094600.82942  24199913.961                    24199922.113
 121173043.568 7  94420580.80444  23058460.789                    23058469.633
 11  8 13 21  7 30.0000000  0  9G27G04G07G28G17G08G26G11G24
 129525336.214 6 100928899.88043  24647857.789                    24647866.996
 118078892.465 7  92009632.18145  22469654.805                    22469665.066
 124008388.908 6  96629921.649 5  23598028.188                    23598038.363
 111464034.955 8  86855122.42746  21210900.000                    21210905.996
 109243567.186 8  85124923.890 8  20788356.672                    20788363.813
 111810038.298 8  87124726.23345  21276747.953                    21276756.949
 124970472.114 7  97379621.62444  23781095.711                    23781106.574
 127274294.662 6  99174791.19842  24219497.625                    24219505.043
 121249669.367 7  94480289.17644  23073042.453                    23073051.508
 11  8 13 21  8  0.0000000  0  9G27G04G07G28G17G08G26G11G24
 129437022.892 6 100860084.39143  24631052.188                    24631060.961
 117973426.133 7  91927450.76144  22449584.953                    22449595.316
 124119090.305 7  96716182.286 5  23619093.484                    23619104.203
 111453468.039 8  86846888.46946  21208888.961                    21208895.578
 109238536.072 8  85121003.547 8  20787399.039                    20787406.348
 111894510.435 8  87190548.60045  21292822.406                    21292831.156
 125037448.164 7  97431810.66043  23793840.703                    23793851.816
 127377385.256 6  99255121.45542  24239114.602                    24239123.195
 121326693.589 7  94540307.99344  23087700.000                    23087708.684
 11  8 13 21  8 30.0000000  0  9G27G04G07G28G17G08G26G11G24
 129348874.476 6 100791397.39243  24614278.500                    24614287.316
 117868175.817 7  91845437.65444  22429556.750                    22429566.898
 124229951.767 7  96802567.658 6  23640190.094                    23640200.992
 111443048.138 8  86838769.06546  21206905.648                    21206912.348
 109233792.435 8  85117307.216 8  20786496.805                    20786503.520
 111979433.685 8  87256722.47945  21308982.836                    21308991.895
 125104685.322 7  97484203.13544  23806635.383                    23806646.934
 127480652.706 6  99335589.54243  24258766.414                    24258773.754
 121404113.931 7  94600635.50744  23102432.656                    23102441.586
 11  8 13 21  9  0.0000000  0  9G27G04G07G28G17G08G26G11G24
 129260893.454 6 100722840.83643  24597535.711                    24597545.375
 117763144.920 7  91763595.54145  22409569.320                    22409580.402
 124340970.689 7  96889075.693 6  23661317.008                    23661328.406
 111432776.588 8  86830765.25746  21204951.461                    21204958.090
 109229335.288 8  85113834.120 7  20785648.188                    20785655.152
 112064805.706 8  87323246.03845  21325229.336                    21325237.676
 125172180.338 7  97536796.56044  23819479.891                    23819490.789
 127584094.313 6  99416193.29043  24278450.461                    24278458.809
 121481928.092 7  94661269.87144  23117240.383                    23117248.566
 11  8 13 21  9 30.0000000  0  9G27G04G07G28G17G08G26G11G24
 129173081.920 6 100654416.33943  24580825.148                    24580834.668
 117658335.998 7  91681926.36545  22389624.992                    22389635.766
 124452144.667 7  96975704.534 6  23682472.531                    23682484.414
 111422654.711 8  86822878.07846  21203025.609                    21203031.516
 109225163.624 8  85110583.489 8  20784854.688                    20784861.590
 112150624.102 8  87390117.43745  21341559.336                    21341568.180
 125239930.251 7  97589588.59944  23832372.438                    23832383.016
 127687707.564 6  99496930.81743  24298167.430                    24298175.160
 121560133.544 7  94722209.15844  23132121.930                    23132130.934
 11  8 13 21 10  0.0000000  0  9G27G04G07G28G17G08G26G11G24
 129085442.229 6 100586125.76043  24564147.742                    24564157.559
 117553752.164 7  91600432.60845  22369723.250                    22369733.527
 124563471.215 7  97062452.255 6  23703657.367                    23703669.285
 111412684.338 8  86815108.94746  21201127.984                    21201134.426
 109221276.278 8  85107554.393 8  20784114.461                    20784121.676
 112236886.810 8  87457335.04945  21357975.063                    21357983.762
 125307931.701 7  97642576.60844  23845312.641                    23845324.012
 127791490.092 6  99577800.24943  24317916.813                    24317924.480
 121638727.774 7  94783451.35844  23147078.477                    23147087.184
 11  8 13 21 10 30.0000000  0  9G27G04G07G28G17G08G26G11G24
 128997976.491 6 100517970.68443  24547503.445                    24547513.230
 117449396.204 7  91519116.40445  22349864.867                    22349875.199
 124674947.484 7  97149316.635 6  23724870.602                    23724882.867
 111402866.509 8  86807458.68346  21199259.664                    21199266.063
 109217671.773 8  85104745.695 8  20783428.656                    20783435.734
 112323591.190 8  87524896.81245  21374475.047                    21374483.246
 125376181.400 7  97695758.07844  23858300.211                    23858311.219
 127895439.489 6  99658799.71143  24337697.891                    24337705.523
 121717708.321 7  94844994.60544  23162107.492                    23162116.211
 11  8 13 21 11  0.0000000  0  9G27G04G07G28G17G08G26G11G24
 128910686.964 6 100449952.92643  24530893.414                    24530902.641
 117345271.282 7  91437980.21545  22330050.742                    22330060.980
 124786571.041 6  97236295.762 6  23746112.055                    23746125.035
 111393202.458 8  86799928.24646  21197421.344                    21197427.195
 109214349.107 8  85102156.609 8  20782796.469                    20782803.566
 112410735.038 7  87592801.03245  21391057.273                    21391066.465
 125444676.229 7  97749130.54143  23871334.008                    23871345.273
 127999552.801 6  99739926.90043  24357509.688                    24357518.172
 121797072.910 7  94906837.09744  23177209.883                    23177219.109
 11  8 13 21 11 30.0000000  0  9G27G04G07G28G17G08G26G11G24
 128823576.282 6 100382074.51743  24514316.289                    24514325.926
 117241380.167 7  91357026.23544  22310280.516                    22310290.738
 124898339.438 6  97323387.751 6  23767380.836                    23767393.766
 111383693.599 8  86792518.73746  21195611.367                    21195617.168
 109211306.914 8  85099786.077 8  20782218.016                    20782224.711
 112498315.748 7  87661045.65145  21407723.578                    21407732.320
 125513413.006 7  97802691.55144  23884414.203                    23884425.980
 128103827.264 6  99821179.67443  24377352.047                    24377360.797
 121876819.100 7  94968976.92544  23192385.586                    23192394.320
 11  8 13 21 12  0.0000000  0  9G27G04G07G28G17G08G26G11G24
 128736646.589 6 100314337.15143  24497774.039                    24497783.414
 117137725.669 7  91276256.61444  22290555.922                    22290566.215
 125010249.998 6  97410590.532 6  23788677.266                    23788689.617
 111374341.324 8  86785231.23446  21193832.063                    21193838.148
 109208544.428 7  85097633.507 8  20781692.133                    20781699.398
 112586330.970 7  87729628.85745  21424472.492                    21424481.004
 125582388.259 7  97856438.37044  23897540.641                    23897551.242
 128208260.927 6  99902556.48143  24397225.875                    24397233.965
 121956944.236 7  95031412.09744  23207632.719                    23207642.441
 11  8 13 21 12 30.0000000  0  9G27G04G07G28G17G08G26G11G24
 128649899.790 6 100246742.29143  24481266.500                    24481276.199
 117034310.577 7  91195673.55745  22270876.914                    22270886.621
 125122300.106 7  97497902.044 6  23809999.820                    23810012.230
 111365147.007 8  86778066.82146  21192081.898                    21192088.531
 109206059.719 8  85095697.377 8  20781219.055                    20781226.379
 112674778.108 7  87798548.62145  21441303.172                    21441311.566
 125651598.833 7  97910368.55543  23910710.516                    23910721.930
 128312850.891 6  99984055.08843  24417129.086                    24417136.129
 122037445.795 7  95094140.53344  23222951.859                    23222960.906
 11  8 13 21 13  0.0000000  0  9G27G04G07G28G17G08G26G11G24
 128563338.314 6 100179291.84643  24464795.039                    24464803.926
 116931138.121 7  91115279.55445  22251243.023                    22251252.715
 125234486.840 7  97585320.046 6  23831348.008                    23831360.781
 111356112.007 8  86771026.55046  21190362.602                    21190368.758
 109203852.085 8  85093977.156 8  20780798.875                    20780805.895
 112763654.899 7  87867803.17545  21458216.156                    21458224.867
 125721041.588 7  97964479.68444  23923924.914                    23923935.832
 128417594.863 6 100065673.69243  24437060.844                    24437068.902
 122118321.435 7  95157160.49344  23238341.672                    23238350.590
 11  8 13 21 13 30.0000000  0 10G27G04G20G07G28G17G08G26G11G24
 128476964.091 6 100111987.28543  24448358.133                    24448367.496
 116828210.810 7  91035076.57345  22231656.789                    22231666.867
 129393041.77116 100825865.46852  24622698.570                    24622707.008
 125346807.832 6  97672842.668 6  23852722.750                    23852735.176
 111347237.342 8  86764111.21646  21188673.906                    21188680.039
 109201919.636 8  85092471.363 8  20780431.305                    20780438.402
 112852958.561 7  87937390.35845  21475209.758                    21475218.867
 125790713.001 7  98018768.97344  23937183.281                    23937194.855
 128522489.968 6 100147410.12842  24457022.492                    24457029.496
 122199568.249 7  95220469.65144  23253803.023                    23253811.613
 11  8 13 21 14  0.0000000  0 10G27G04G20G07G28G17G08G26G11G24
 128390779.793 6 100044830.72843  24431957.914                    24431967.141
 116725531.734 7  90955067.02645  22212117.609                    22212127.004
 129348632.513 6 100791261.00443  24614248.344                    24614257.336
 125459260.503 6  97760467.895 6  23874122.492                    23874134.453
 111338524.912 8  86757322.29446  21187015.953                    21187022.055
 109200261.881 7  85091179.613 8  20780115.758                    20780122.863
 112942686.921 7  88007308.47745  21492284.531                    21492293.770
 125860609.869 7  98073233.91743  23950484.609                    23950495.801
 128627533.999 6 100229262.52342  24477010.422                    24477018.742
 122281184.036 7  95284066.32844  23269333.781                    23269342.762
 11  8 13 21 14 30.0000000  0 10G27G04G20G07G28G17G08G26G11G24
 128304787.319 6  99977823.65843  24415594.953                    24415603.117
 116623103.759 7  90875253.14245  22192625.484                    22192635.867
 129304462.918 6 100756843.22643  24605843.563                    24605852.313
 125571842.129 7  97848193.610 6  23895545.688                    23895557.836
 111329975.465 8  86750660.38346  21185389.680                    21185395.516
 109198877.271 8  85090100.698 8  20779852.156                    20779859.258
 113032836.918 7  88077555.13545  21509439.977                    21509448.633
 125930728.958 7  98127872.05343  23963827.758                    23963839.078
 128732723.829 6 100311228.52042  24497027.570                    24497036.070
 122363166.331 7  95347948.61744  23284934.508                    23284943.230
 11  8 13 21 15  0.0000000  0 10G27G04G20G07G28G17G08G26G11G24
 128218989.065 6  99910967.91443  24399267.234                    24399276.332
 116520929.625 7  90795637.05545  22173182.875                    22173192.645
 129260535.837 6 100722614.41043  24597483.523                    24597492.957
 125684550.335 6  97936017.950 6  23916993.102                    23917005.539
 111321590.623 8  86744126.72646  21183793.625                    21183799.922
 109197764.392 8  85089233.528 8  20779640.508                    20779647.500
 113123406.208 7  88148128.51845  21526674.930                    21526683.156
 126001067.170 7  98182680.91344  23977213.141                    23977223.906
 128838056.975 5 100393306.26342  24517071.883                    24517080.215
 122445512.532 7  95412114.45644  23300603.953                    23300613.488
 11  8 13 21 15 30.0000000  0  9G27G04G20G07G28G17G08G26G24
 128133387.555 6  99844265.47743  24382977.563                    24382986.766
 116419012.715 7  90716221.39445  22153788.633                    22153798.543
 129216854.190 6 100688576.83143  24589170.266                    24589181.051
 125797382.645 6  98023938.989 6  23938464.375                    23938476.473
 111313372.366 8  86737722.88446  21182229.898                    21182236.375
 109196922.420 8  85088577.459 8  20779480.031                    20779486.957
 113214392.701 7  88219027.00645  21543989.148                    21543997.957
 126071621.125 7  98237657.89643  23990639.086                    23990649.977
 122528220.312 7  95476562.04143  23316343.430                    23316352.520
 11  8 13 21 16  0.0000000  0  9G27G04G20G07G28G17G08G26G24
 128047984.944 6  99777718.04143  24366726.141                    24366735.375
 116317355.595 7  90637008.16645  22134443.570                    22134453.531
 129173420.258 6 100654732.33043  24580906.383                    24580915.250
 125910336.076 6  98111954.399 6  23959959.227                    23959971.566
 111305321.609 8  86731449.56346  21180697.930                    21180704.164
 109196349.940 8  85088131.370 8  20779371.195                    20779378.383
 113305793.515 7  88290248.32845  21561381.891                    21561390.770
 126142387.803 7  98292800.62943  24004105.555                    24004117.043
 122611287.203 7  95541289.44644  23332150.711                    23332159.445
 11  8 13 21 16 30.0000000  0  9G27G04G20G07G28G17G08G26G24
 127962783.272 6  99711327.18343  24350513.359                    24350521.809
 116215961.044 7  90557999.53745  22115148.813                    22115158.844
 129130236.828 6 100621083.02243  24572688.664                    24572698.535
 126023408.573 6  98200062.583 6  23981476.180                    23981489.297
 111297439.606 8  86725307.73846  21179198.055                    21179203.934
 109196045.767 8  85087894.361 8  20779313.742                    20779320.344
 113397606.099 7  88361790.51145  21578853.148                    21578862.035
 126213363.619 7  98348106.31743  24017611.305                    24017623.250
 122694710.436 7  95606294.52144  23348025.367                    23348034.504
 11  8 13 21 17  0.0000000  0  9G27G04G20G07G28G17G08G26G24
 127877785.076 6  99645094.88044  24334338.297                    24334347.539
 116114832.024 7  90479197.82345  22095904.578                    22095914.574
 129087306.679 6 100587631.06143  24564518.852                    24564528.246
 126136597.195 6  98288261.230 6  24003015.727                    24003028.559
 111289727.882 8  86719298.59546  21177730.211                    21177736.605
 109196008.739 8  85087865.508 8  20779306.602                    20779313.473
 113489827.871 7  88433651.53545  21596402.563                    21596411.914
 126284545.497 7  98403572.61044  24031157.180                    24031168.699
 122778487.432 7  95671575.28444  23363967.242                    23363976.469
 11  8 13 21 17 30.0000000  0  9G27G04G20G07G28G17G08G26G24
 127792992.756 6  99579022.98943  24318202.508                    24318211.969
 116013971.593 7  90400605.38545  22076711.523                    22076721.219
 129044632.493 6 100554378.56643  24556397.813                    24556408.133
 126249899.475 7  98376548.461 6  24024576.586                    24024589.227
 111282187.961 8  86713423.33346  21176295.867                    21176301.730
 109196237.554 8  85088043.804 8  20779350.281                    20779356.836
 113582456.350 7  88505829.47245  21614029.625                    21614038.488
 126355930.050 7  98459196.80343  24044741.852                    24044752.855
 122862615.923 7  95737129.90544  23379976.570                    23379986.004
 11  8 13 21 18  0.0000000  0  9G27G04G20G07G28G17G08G26G24
 127708408.301 6  99513113.07043  24302107.469                    24302115.855
 115913382.350 7  90322224.27545  22057569.797                    22057579.695
 129002216.827 6 100521327.51843  24548326.227                    24548336.629
 126363313.024 6  98464922.395 6  24046158.836                    24046171.277
 111274821.373 8  86707683.13546  21174893.992                    21174899.855
 109196730.807 8  85088428.161 8  20779444.164                    20779451.164
 113675489.143 7  88578322.46345  21631733.539                    21631741.613
 126427514.271 7  98514976.58244  24058363.133                    24058374.980
 122947093.164 7  95802956.27744  23396052.328                    23396061.262
 11  8 13 21 18 30.0000000  0  9G27G04G20G07G28G17G08G26G24
 127624034.099 6  99447367.01844  24286050.625                    24286059.770
 115813067.710 7  90244057.12745  22038480.469                    22038490.297
 128960062.197 6 100488479.85143  24540304.789                    24540314.109
 126476835.236 6  98553381.001 6  24067761.633                    24067773.895
 111267629.381 8  86702078.97446  21173525.320                    21173531.441
 109197487.572 8  85089017.853 8  20779587.859                    20779595.121
 113768923.603 7  88651128.44145  21649512.742                    21649522.125
 126499294.811 7  98570909.30443  24072022.797                    24072034.309
 123031916.846 7  95869052.61144  23412193.727                    23412202.969
 11  8 13 21 19  0.0000000  0  9G27G04G20G07G28G17G08G26G24
 127539872.353 6  99381786.47343  24270036.078                    24270044.348
 115713030.123 7  90166105.86045  22019443.844                    22019453.711
 128918171.339 6 100455837.73443  24532332.844                    24532342.527
 126590463.202 6  98641922.017 6  24089384.883                    24089396.953
 111260613.362 8  86696611.94146  21172190.352                    21172196.188
 109198506.588 8  85089811.892 8  20779781.570                    20779788.574
 113862757.116 7  88724245.35645  21667369.508                    21667378.305
 126571268.511 6  98626992.56643  24085719.086                    24085730.809
 123117084.236 7  95935416.76144  23428399.992                    23428409.852
 11  8 13 21 19 30.0000000  0  9G27G04G20G07G28G17G08G26G24
 127455925.494 6  99316373.38743  24254060.469                    24254069.625
 115613272.471 7  90088372.73945  22000460.719                    22000470.570
 128876546.838 6 100423403.16043  24524412.078                    24524421.887
 126704194.572 6  98730543.597 6  24111027.094                    24111040.016
 111253774.865 8  86691283.23946  21170888.820                    21170894.926
 109199786.564 8  85090809.284 8  20780025.430                    20780032.738
 113956986.852 7  88797671.03445  21685300.578                    21685309.570
 126643431.931 7  98683223.66943  24099451.727                    24099463.582
 123202592.801 6  96002046.76244  23444671.586                    23444681.352
 11  8 13 21 20  0.0000000  0  9G27G04G20G07G28G17G08G26G24
 127372195.869 6  99251129.60443  24238127.320                    24238136.410
 115513797.918 7  90010860.19745  21981531.148                    21981541.059
 128835191.329 6 100391178.13643  24516542.563                    24516551.414
 126818026.812 6  98819243.771 6  24132689.414                    24132701.887
 111247115.291 8  86686093.94746  21169621.797                    21169627.930
 109201326.132 8  85092008.945 8  20780318.211                    20780325.348
 114051610.372 7  88871403.54245  21703306.594                    21703315.727
 126715781.996 6  98739600.17543  24113219.445                    24113231.074
 123288440.098 6  96068940.69543  23461009.383                    23461018.105
 11  8 13 21 20 30.0000000  0  9G27G04G20G07G28G17G08G26G24
 127288685.379 6  99186056.52444  24222236.055                    24222244.898
 115414608.876 7  89933570.14145  21962656.141                    21962665.824
 128794107.265 6 100359164.67343  24508724.555                    24508733.777
 126931956.897 6  98908020.171 6  24154368.672                    24154382.844
 111240635.767 8  86681044.95946  21168388.531                    21168395.109
 109203124.017 8  85093409.901 8  20780660.211                    20780667.563
 114146624.584 7  88945440.49745  21721387.234                    21721396.496
 126788315.270 7  98796119.47043  24127022.570                    24127034.035
 123374623.351 6  96136096.41644  23477408.203                    23477418.012
 11  8 13 21 21  0.0000000  0  9G27G04G20G07G28G17G08G26G24
 127205396.553 7  99121156.21744  24206385.680                    24206395.523
 115315708.480 7  89856504.99845  21943835.859                    21943845.570
 128753297.359 6 100327364.82343  24500958.266                    24500967.680
 127045982.945 6  98996871.364 6  24176067.625                    24176081.305
 111234338.201 8  86676137.74946  21167190.469                    21167196.781
 109205178.912 8  85095011.117 8  20781051.250                    20781058.434
 114242027.291 7  89019780.17145  21739541.664                    21739551.113
 126861028.600 6  98852779.06544  24140859.273                    24140871.070
 123461140.175 6  96203512.08743  23493872.102                    23493881.359
 11  8 13 21 21 30.0000000  0  9G27G04G20G07G28G17G08G26G24
 127122331.610 7  99056430.31043  24190579.664                    24190588.973
 115217099.419 7  89779666.87945  21925071.164                    21925080.727
 128712764.126 6 100295780.52443  24493244.938                    24493254.699
 127160101.605 6  99085794.696 6  24197784.219                    24197798.086
 111228223.614 8  86671373.12146  21166026.438                    21166032.676
 109207489.572 8  85096811.636 7  20781491.320                    20781498.223
 114337815.484 7  89094420.22445  21757770.195                    21757779.102
 126933918.821 7  98909576.46343  24154729.578                    24154741.059
 123547987.787 6  96271185.51343  23510398.648                    23510408.023
 11  8 13 21 22  0.0000000  0  9G27G04G20G07G28G17G08G26G24
 127039492.878 7  98991880.70944  24174815.859                    24174825.371
 115118784.985 7  89703058.33845  21906362.297                    21906372.199
 128672510.262 6 100264413.94942  24485584.906                    24485594.250
 127274310.983 6  99174788.721 6  24219517.547                    24219531.027
 111222293.655 8  86666752.35546  21164898.234                    21164904.359
 109210055.296 7  85098810.905 8  20781979.414                    20781986.582
 114433986.769 7  89169358.78445  21776071.305                    21776079.770
 127006982.599 7  98966509.13743  24168633.805                    24168645.574
 123635163.707 6  96339114.76944  23526988.086                    23526997.430
 11  8 13 21 22 30.0000000  0  9G27G04G20G07G28G17G08G26G24
 126956882.520 7  98927509.02944  24159095.930                    24159104.742
 115020767.628 7  89626681.26045  21887710.055                    21887719.895
 128632538.139 6 100233266.88643  24477978.250                    24477988.348
 127388608.095 7  99263851.094 6  24241268.109                    24241281.574
 111216549.617 8  86662276.45946  21163804.680                    21163811.398
 109212874.394 8  85101007.608 7  20782515.906                    20782522.719
 114530538.240 7  89244593.60445  21794444.078                    21794452.992
 127080216.633 7  99023574.43944  24182569.891                    24182581.867
 123722665.308 6  96407297.79144  23543638.742                    23543648.273
 11  8 13 21 23  0.0000000  0  9G27G04G20G07G28G17G08G26G24
 126874502.626 7  98863316.95844  24143420.094                    24143428.395
 114923049.919 7  89550537.69745  21869114.977                    21869124.605
 128592850.305 6 100202341.43242  24470426.234                    24470435.340
 127502990.420 6  99352979.883 6  24263034.773                    24263048.395
 111210992.976 8  86657946.58746  21162747.883                    21162754.082
 109215945.514 8  85103400.687 8  20783100.133                    20783107.270
 114627467.280 7  89320122.61945  21812889.070                    21812897.867
 127153617.596 7  99080769.84143  24196537.359                    24196549.234
 123810489.849 7  96475732.45643  23560351.750                    23560360.605
 11  8 13 21 23 30.0000000  0  9G27G04G20G07G28G17G08G26G24
 126792355.318 7  98799306.12744  24127787.352                    24127795.969
 114825634.827 7  89474629.93045  21850577.539                    21850587.164
 128553449.139 6 100171639.33242  24462928.359                    24462937.910
 127617455.270 6  99442172.967 6  24284817.016                    24284830.188
 111205624.922 8  86653763.67046  21161726.469                    21161732.703
 109219267.352 8  85105989.143 8  20783732.406                    20783739.828
 114724770.935 7  89395943.53645  21831405.609                    21831414.473
 127227182.270 7  99138092.79744  24210536.617                    24210548.551
 123898634.704 7  96544416.73643  23577124.586                    23577134.121
 11  8 13 21 24  0.0000000  0  9G27G04G20G07G28G17G08G26G24
 126710442.994 7  98735478.40244  24112200.617                    24112208.730
 114728525.246 7  89398960.21945  21832098.281                    21832107.891
 128514337.384 6 100141162.72942  24455484.516                    24455494.457
 127732000.180 6  99531428.434 6  24306613.758                    24306627.418
 111200446.968 8  86649728.88046  21160741.031                    21160747.496
 109222838.381 8  85108771.763 8  20784411.836                    20784418.992
 114822446.346 7  89472054.15445  21849992.602                    21850001.523
 127300907.308 7  99195540.71044  24224565.594                    24224578.258
 123987097.275 7  96613348.57643  23593959.102                    23593967.609
 11  8 13 21 24 30.0000000  0  9G27G04G20G07G28G17G08G26G24
 126628768.153 7  98671835.71244  24096657.406                    24096666.742
 114631724.117 7  89323530.85045  21813677.477                    21813686.883
 128475517.655 6 100110913.68543  24448097.719                    24448107.238
 127846622.423 6  99620744.124 6  24328425.516                    24328439.848
 111195460.895 8  86645843.60246  21159792.500                    21159798.613
 109226657.803 8  85111747.935 8  20785138.594                    20785145.598
 114920491.241 7  89548452.67045  21868650.102                    21868658.773
 127374789.677 7  99253111.22643  24238625.969                    24238637.574
 124075875.086 6  96682526.07743  23610852.055                    23610861.488
 11  8 13 21 25  0.0000000  0  9G27G04G20G07G28G17G08G26G24
 126547332.982 7  98608379.76343  24081160.758                    24081169.617
 114535233.928 7  89248343.78345  21795315.797                    21795324.934
 128436992.184 6 100080893.90043  24440766.023                    24440776.383
 127961319.586 6  99710118.198 6  24350252.109                    24350266.094
 111190667.870 8  86642108.75446  21158879.727                    21158886.777
 109230724.307 8  85114916.649 8  20785912.594                    20785919.418
 115018902.391 7  89625136.57245  21887377.305                    21887386.445
 127448825.925 6  99310801.63243  24252713.922                    24252726.332
 124164965.453 7  96751947.10044  23627806.250                    23627814.699
 11  8 13 21 25 30.0000000  0  9G27G04G20G07G28G17G08G26G24
 126466139.639 7  98545112.28143  24065709.672                    24065719.184
 114439057.805 7  89173401.42545  21777014.109                    21777023.191
 128398763.803 6 100051105.62143  24433491.664                    24433500.684
 128076089.060 6  99799548.616 6  24372092.531                    24372106.547
 111186069.362 8  86638525.48246  21158004.875                    21158011.160
 109235036.422 8  85118276.739 8  20786733.117                    20786740.281
 115117677.429 7  89702104.03745  21906173.469                    21906182.180
 127523012.803 7  99368609.39543  24266832.055                    24266843.668
 124254365.698 7  96821609.57743  23644818.844                    23644827.246
 11  8 13 21 26  0.0000000  0  9G27G04G20G07G28G17G08G26G24
 126385190.624 7  98482035.16844  24050306.219                    24050315.105
 114343198.420 7  89098705.88545  21758772.680                    21758782.035
 128360834.804 6 100021550.63043  24426274.086                    24426283.547
 128190928.435 6  99889033.510 5  24393945.891                    24393960.484
 111181667.090 8  86635095.12746  21157167.516                    21157174.125
 109239593.330 8  85121827.581 8  20787600.117                    20787607.297
 115216813.895 7  89779353.11345  21925038.500                    21925047.938
 127597347.303 7  99426532.19443  24280977.711                    24280988.969
 124344073.393 7  96891511.64143  23661889.086                    23661898.328
 11  8 13 21 26 30.0000000  0  9G27G04G20G07G28G17G08G26G24
 126304487.976 6  98419150.04044  24034949.063                    24034957.984
 114247658.66417  89024259.41655  21740591.797                    21740601.301
 128323207.722 6  99992230.90943  24419113.914                    24419123.273
 128305834.819 6  99978570.625 5  24415812.531                    24415825.840
 111177462.184 8  86631818.55946  21156367.156                    21156373.875
 109244393.194 8  85125567.733 8  20788513.711                    20788520.828
 115316308.354 7  89856881.14045  21943971.359                    21943980.910
 127671826.011 7  99484567.35243  24295150.758                    24295162.629
 124434085.764 6  96961651.11943  23679017.688                    23679026.938
 11  8 13 21 27  0.0000000  0  9G27G04G20G07G28G17G08G26G24
 126224033.397 7  98356458.20844  24019638.758                    24019647.813
 114152440.678 7  88950063.64445  21722472.406                    21722481.633
 128285885.008 6  99963148.32643  24412011.797                    24412021.359
 128420805.364 6 100068157.734 5  24437691.133                    24437703.863
 111173455.572 7  86628696.50946  21155604.766                    21155611.172
 109249434.611 8  85129496.112 7  20789473.008                    20789480.125
 115416157.826 7  89934685.82145  21962972.383                    21962981.793
 127746445.258 7  99542711.99943  24309350.063                    24309361.953
 124524399.840 6  97032025.68943  23696203.758                    23696213.105
 11  8 13 21 27 30.0000000  0  9G27G04G20G07G28G17G08G26G24
 126143829.739 6  98293961.87344  24004376.656                    24004385.723
 114057548.016 8  88876121.39845  21704414.867                    21704424.887
 128248868.945 6  99934304.73043  24404967.664                    24404977.398
 128535837.898 6 100157793.164 5  24459581.820                    24459594.113
 111169649.411 8  86625730.65746  21154880.906                    21154887.004
 109254716.785 8  85133612.099 8  20790478.000                    20790484.910
 115516360.120 7  90012765.39645  21982040.539                    21982049.699
 127821202.422 7  99600964.15743  24323576.359                    24323588.453
 124615013.402 6  97102633.59044  23713447.328                    23713456.715
 11  8 13 21 28  0.0000000  0  9G27G04G20G07G28G17G08G26G24
 126063878.836 6  98231662.52444  23989162.531                    23989171.289
 113962982.967 8  88802434.42445  21686419.625                    21686429.043
 128212162.200 6  99905702.15842  24397981.922                    24397991.730
 128650930.115 7 100247475.069 6  24481482.563                    24481496.074
 111166044.916 8  86622921.94446  21154194.477                    21154201.164
 109260238.214 8  85137914.506 8  20791528.969                    20791535.914
 115616911.581 7  90091117.06645  22001175.008                    22001184.184
 127896093.839 7  99659320.90443  24337827.781                    24337839.355
 124705923.468 6  97173472.55543  23730746.727                    23730756.285
 11  8 13 21 28 30.0000000  0  9G27G04G20G07G28G17G08G26G24
 125984183.215 7  98169562.09244  23973996.984                    23974005.672
 113868748.417 7  88729004.97045  21668487.391                    21668496.641
 128175767.332 6  99877342.62143  24391056.703                    24391066.258
 128766078.937 6 100337201.067 6  24503395.117                    24503408.262
 111162643.731 8  86620271.65846  21153547.172                    21153554.086
 109265997.875 8  85142402.557 7  20792624.711                    20792631.617
 115717810.126 7  90169739.18445  22020375.617                    22020384.824
 127971116.407 7  99717779.86443  24352103.953                    24352116.531
 124797127.738 6  97244540.75643  23748102.008                    23748112.031
 11  8 13 21 29  0.0000000  0  9G27G04G20G07G28G17G08G26G24
 125904744.831 6  98107662.08343  23958880.602                    23958888.422
 113774847.314 8  88655835.36545  21650618.797                    21650627.898
 128139686.552 6  99849227.81543  24384191.258                    24384200.750
 128881281.915 6 100426969.258 6  24525317.867                    24525331.504
 111159447.151 8  86617780.81046  21152938.688                    21152945.633
 109271994.073 8  85147074.925 8  20793765.844                    20793772.805
 115819052.767 7  90248629.43645  22039640.797                    22039651.340
 128046267.001 7  99776338.57543  24366404.906                    24366417.359
 124888623.498 6  97315836.10044  23765513.625                    23765523.563
 11  8 13 21 29 30.0000000  0  9G27G04G20G07G28G17G08G26G24
 125825566.112 7  98045964.42944  23943813.047                    23943821.953
 113681282.379 8  88582927.68745  21632813.563                    21632822.984
 128103922.140 6  99821359.50043  24377384.289                    24377394.957
 128996536.660 6 100516777.800 6  24547250.477                    24547264.188
 111156456.606 8  86615450.49446  21152369.984                    21152376.332
 109278225.864 8  85151930.868 8  20794951.523                    20794958.652
 115920636.600 7  90327785.53745  22058972.211                    22058981.438
 128121542.406 7  99834994.52043  24380729.656                    24380741.871
 124980407.908 6  97387356.37744  23782979.656                    23782989.039
 11  8 13 21 30  0.0000000  0  9G27G04G20G07G28G17G08G26G24
 125746649.396 7  97984470.92544  23928795.922                    23928804.906
 113588056.246 8  88510284.01745  21615073.516                    21615082.578
 128068476.992 6  99793739.97643  24370640.367                    24370649.676
 129111840.653 6 100606624.658 6  24569191.727                    24569206.824
 111153673.675 8  86613281.97246  21151840.203                    21151846.633
 109284691.978 8  85156969.395 8  20796182.477                    20796189.410
 116022558.837 7  90407205.33845  22078367.727                    22078377.051
 128196939.242 7  99893745.10343  24395077.422                    24395089.656
 125072478.513 6  97459099.64043  23800500.367                    23800509.652
 11  8 13 21 30 30.0000000  0  8G27G04G20G28G17G08G26G24
 125667997.243 7  97923183.57344  23913828.516                    23913837.426
 113495172.131 8  88437906.85945  21597398.008                    21597407.402
 128033353.671 6  99766371.24143  24363956.289                    24363966.000
 111151100.153 8  86611276.62846  21151350.789                    21151357.059
 109291391.538 8  85162189.829 8  20797457.086                    20797464.340
 116124817.181 7  90486887.03844  22097826.703                    22097836.105
 128272454.971 7  99952588.36043  24409447.008                    24409459.664
 125164833.022 6  97531064.16643  23818074.742                    23818084.137
 11  8 13 21 31  0.0000000  0  8G27G04G20G28G17G08G26G24
 125589611.710 7  97862103.95344  23898912.250                    23898921.141
 113402632.460 8  88365798.09745  21579788.539                    21579797.797
 127998554.471 6  99739255.04043  24357334.047                    24357344.047
 111148737.324 8  86609435.44846  21150901.289                    21150907.461
 109298322.938 8  85167590.924 8  20798775.609                    20798782.762
 116227408.325 7  90566828.05045  22117349.234                    22117358.895
 128348085.962 6 100011521.37343  24423839.219                    24423851.441
 125257468.446 6  97603247.54743  23835703.148                    23835712.316
 11  8 13 21 31 30.0000000  0  8G27G04G20G28G17G08G26G24
 125511494.705 7  97801233.60744  23884046.992                    23884056.113
 113310439.759 7  88293959.70145  21562244.336                    21562253.512
 127964081.442 6  99712392.96343  24350774.008                    24350783.535
 111146586.238 8  86607759.26146  21150491.531                    21150498.422
 109305484.720 8  85173171.530 8  20800139.375                    20800145.926
 116330328.838 7  90647025.71945  22136934.180                    22136944.262
 128423828.693 6 100070541.49143  24438253.250                    24438265.883
 125350381.936 7  97675647.64143  23853383.711                    23853392.980
 11  8 13 21 32  0.0000000  0  8G27G04G20G28G17G08G26G24
 125433648.422 7  97740574.20844  23869233.281                    23869242.477
 113218596.495 7  88222393.58445  21544767.055                    21544776.391
 127929936.721 6  99685786.76443  24344276.734                    24344286.348
 111144648.406 8  86606249.25346  21150122.969                    21150129.684
 109312875.834 8  85178930.843 8  20801545.633                    20801552.230
 116433576.086 7  90727477.98345  22156581.727                    22156591.691
 128499679.902 6 100129646.13443  24452687.039                    24452699.684
 125443570.930 6  97748262.40043  23871116.594                    23871126.012
 11  8 13 21 32 30.0000000  0  8G27G04G20G28G17G08G26G24
 125356075.016 7  97680127.44544  23854471.703                    23854480.789
 113127105.749 7  88151102.15945  21527357.031                    21527366.031
 127896123.007 6  99659438.46343  24337842.023                    24337851.762
 111142925.202 8  86604906.47846  21149795.023                    21149801.480
 109320494.750 8  85184867.648 8  20802995.344                    20803002.219
 116537147.539 7  90808182.87245  22176291.055                    22176300.617
 128575636.444 6 100188832.85543  24467141.094                    24467154.375
 125537032.808 6  97821089.82543  23888902.047                    23888911.109
 11  8 13 21 33  0.0000000  0  8G27G04G20G28G17G08G26G24
 125278776.515 7  97619894.86244  23839762.063                    23839771.063
 113035969.840 8  88080087.22845  21510014.414                    21510023.484
 127862642.423 6  99633349.70843  24331470.922                    24331480.277
 111141418.082 8  86603732.07546  21149508.102                    21149514.465
 109328339.808 8  85190980.684 8  20804488.352                    20804495.152
 116641039.807 7  90889137.74245  22196061.398                    22196071.207
 128651694.806 6 100248098.88743  24481614.727                    24481627.668
 125630764.794 6  97894127.68443  23906738.430                    23906747.980
 11  8 13 21 33 30.0000000  0  8G27G04G20G28G17G08G26G24
 125201755.317 7  97559878.36744  23825105.469                    23825114.695
 112945191.711 8  88009351.09345  21492739.492                    21492749.047
 127829497.399 6  99607522.50343  24325163.625                    24325172.914
 111140128.770 8  86602727.39846  21149262.906                    21149269.820
 109336410.385 8  85197269.437 8  20806023.789                    20806030.770
 116745250.423 7  90970340.66945  22215891.914                    22215902.059
 128727852.397 6 100307442.24943  24496107.336                    24496120.270
 125724764.199 6  97967373.95643  23924626.133                    23924635.320
 11  8 13 21 34  0.0000000  0  8G27G04G20G28G17G08G26G24
 125125013.516 7  97500079.59144  23810501.727                    23810510.867
 112854773.885 7  87938895.70945  21475533.797                    21475543.258
 127796690.181 6  99581958.49643  24318920.609                    24318929.461
 111139058.340 8  86601893.28646  21149058.938                    21149065.863
 109344704.947 8  85203732.726 8  20807602.055                    20807609.453
 116849776.240 7  91051789.21245  22235781.977                    22235792.832
 128804105.716 6 100366860.19843  24510617.609                    24510631.168
 125819028.241 6  98040826.40843  23942564.555                    23942573.453
 11  8 13 21 34 30.0000000  0  8G27G04G20G28G17G08G26G24
 125048553.500 7  97440500.37844  23795951.719                    23795961.105
 112764719.180 7  87868723.28245  21458397.258                    21458406.211
 127764223.295 6  99556659.63743  24312742.031                    24312751.324
 111138208.424 8  86601230.99546  21148897.648                    21148904.109
 109353222.401 8  85210369.707 8  20809223.156                    20809229.887
 116954614.439 7  91133481.16445  22255732.500                    22255742.609
 128880451.581 6 100426350.23043  24525146.484                    24525159.422
 125913554.557 6  98114483.20243  23960552.039                    23960561.582
 11  8 13 21 35  0.0000000  0  8G27G04G20G28G17G08G26G24
 124972377.414 7  97381142.40744  23781456.398                    23781464.676
 112675030.264 7  87798835.87645  21441329.680                    21441339.152
 127732099.144 6  99531627.91643  24306629.656                    24306638.105
 111137580.913 8  86600742.01146  21148777.977                    21148784.715
 109361961.425 8  85217179.325 7  20810885.984                    20810893.445
 117059762.132 7  91215414.27345  22275741.445                    22275752.227
 128956886.748 6 100485909.87343  24539692.102                    24539705.086
 126008340.576 6  98188342.40543  23978589.492                    23978598.723
 11  8 13 21 35 30.0000000  0  8G27G04G20G28G17G08G26G24
 124896487.415 7  97322007.34744  23767014.898                    23767023.707
 112585709.784 8  87729235.57145  21424332.609                    21424341.840
 127700319.696 6  99506864.70743  24300581.641                    24300590.375
 111137176.808 8  86600427.10246  21148701.648                    21148707.910
 109370920.533 8  85224160.445 7  20812590.789                    20812597.957
 117165216.250 7  91297586.15645  22295808.594                    22295819.895
 129033408.118 7 100545536.69443  24554254.094                    24554266.480
 126103383.330 6  98262401.64043  23996675.578                    23996685.047
 11  8 13 21 36  0.0000000  0  8G27G04G20G28G17G08G26G24
 124820885.929 7  97263097.14244  23752628.852                    23752637.211
 112496760.385 8  87659924.41645  21407405.836                    21407414.813
 127668887.523 6  99482372.17143  24294600.242                    24294609.535
 111136997.682 8  86600287.50146  21148667.102                    21148673.977
 109380098.867 8  85231312.389 8  20814337.422                    20814344.492
 117270973.849 7  91379994.51045  22315934.172                    22315944.516
 129110012.527 7 100605228.21943  24568831.305                    24568844.145
 126198680.250 6  98336658.94043  24014809.039                    24014819.262
 11  8 13 21 36 30.0000000  0  8G27G04G20G28G17G08G26G24
 124745574.888 7  97204413.25244  23738297.664                    23738305.324
 112408184.718 7  87590904.47245  21390550.500                    21390559.785
 127637804.753 6  99458151.86843  24288685.586                    24288694.613
 111137045.166 8  86600324.48846  21148676.383                    21148682.898
 109389494.767 8  85238633.874 7  20816125.602                    20816132.637
 117377031.879 7  91462636.97944  22336116.313                    22336126.766
 129186696.589 6 100664981.79543  24583423.180                    24583437.430
 126294228.930 6  98411112.37043  24032991.836                    24033002.289
 11  8 13 21 37  0.0000000  0  8G27G04G20G28G17G08G26G24
 124670556.427 7  97145957.34844  23724021.375                    23724030.250
 112319985.166 7  87522177.60646  21373766.453                    21373775.320
 127607073.658 6  99434205.59343  24282837.484                    24282846.555
 111137320.482 8  86600539.00946  21148728.539                    21148735.441
 109399107.242 8  85246124.101 7  20817954.867                    20817961.801
 117483387.953 7  91545511.67744  22356354.805                    22356365.742
 129263457.219 7 100724795.02643  24598031.258                    24598044.406
 126390026.555 6  98485759.81243  24051221.805                    24051231.543
 11  8 13 21 37 30.0000000  0  9G27G04G20G09G28G17G08G26G24
 124595832.744 7  97087731.15844  23709801.719                    23709810.754
 112232164.505 7  87453745.99045  21357054.953                    21357063.980
 127576696.462 6  99410535.10743  24277056.953                    24277066.320
 127102634.91116  99041062.58152  24186832.461                    24186840.086
 111137824.942 8  86600932.08246  21148824.484                    21148831.180
 109408934.897 8  85253782.008 7  20819825.086                    20819831.762
 117590038.475 7  91628615.81144  22376650.281                    22376661.566
 129340291.371 6 100784665.57843  24612652.055                    24612665.863
 126486070.189 6  98560598.92043  24069498.594                    24069508.492
 11  8 13 21 38  0.0000000  0  9G27G04G20G09G28G17G08G26G24
 124521406.507 7  97029736.72544  23695638.813                    23695648.066
 112144725.790 8  87385611.98845  21340416.078                    21340424.992
 127546675.725 6  99387142.35243  24271344.609                    24271352.871
 127000693.548 5  98961627.85442  24167434.063                    24167443.043
 111138560.538 8  86601505.25946  21148964.820                    21148971.336
 109418976.880 8  85261606.929 8  20821735.742                    20821742.848
 117696981.066 7  91711947.54045  22397000.641                    22397011.254
 129417196.166 6 100844591.15643  24627286.633                    24627300.305
 126582357.760 6  98635628.14743  24087821.508                    24087831.391
 11  8 13 21 38 30.0000000  0  9G27G04G20G09G28G17G08G26G24
 124447279.826 7  96971975.71744  23681533.953                    23681542.281
 112057671.581 7  87317777.59746  21323850.188                    21323859.113
 127517013.640 6  99364029.05443  24265700.180                    24265708.793
 126899045.536 6  98882421.65142  24148089.961                    24148100.445
 111139528.880 8  86602259.79646  21149148.781                    21149155.215
 109429232.008 8  85269597.931 7  20823687.367                    20823694.227
 117804212.997 7  91795504.71744  22417407.383                    22417417.230
 129494168.556 6 100904569.41943  24641934.398                    24641947.684
 126678886.363 6  98710845.19043  24106190.320                    24106199.727
 11  8 13 21 39  0.0000000  0  9G27G04G20G09G28G17G08G26G24
 124373454.292 7  96914449.38244  23667484.625                    23667493.598
 111971003.791 8  87250244.31945  21307357.445                    21307366.559
 127487711.960 6  99341196.62943  24260123.969                    24260132.961
 126797693.535 6  98803446.09043  24128803.344                    24128814.250
 111140730.515 8  86603196.11946  21149377.820                    21149384.191
 109439698.201 8  85277753.401 7  20825679.086                    20825686.270
 117911730.903 7  91879284.73944  22437867.227                    22437877.730
 129571204.434 6 100964597.11243  24656593.617                    24656607.707
 126775652.909 6  98786247.64243  24124604.367                    24124614.465
 11  8 13 21 39 30.0000000  0  9G27G04G20G09G28G17G08G26G24
 124299932.152 7  96857159.43844  23653494.273                    23653502.813
 111884724.949 8  87183014.11345  21290939.125                    21290947.770
 127458772.882 6  99318646.73143  24254616.641                    24254626.047
 126696640.552 6  98724703.59842  24109574.055                    24109584.316
 111142167.204 8  86604315.60146  21149650.836                    21149657.348
 109450374.529 8  85286072.622 8  20827710.547                    20827717.758
 118019531.268 7  91963284.85645  22458380.984                    22458391.535
 129648301.166 6 101024672.23943  24671265.133                    24671278.816
 126872654.913 6  98861833.54843  24143063.063                    24143073.301
 11  8 13 21 40  0.0000000  0  9G27G04G20G09G28G17G08G26G24
 124226715.522 7  96800107.53844  23639561.539                    23639569.598
 111798837.827 8  87116089.14245  21274595.414                    21274604.508
 127430198.788 6  99296381.27943  24249179.273                    24249188.504
 126595889.633 6  98646196.44143  24090401.813                    24090411.719
 111143840.232 8  86605619.24746  21149969.102                    21149976.023
 109461259.767 8  85294554.618 7  20829781.945                    20829788.797
 118127611.305 7  92047502.91045  22478948.172                    22478958.414
 129725455.362 6 101084792.16243  24685947.305                    24685961.090
 126969889.699 6  98937600.86843  24161566.789                    24161576.566
 11  8 13 21 40 30.0000000  0  9G27G04G20G09G28G17G08G26G24
 124153806.478 7  96743295.32444  23625686.734                    23625695.879
 111713345.092 8  87049471.48246  21258326.836                    21258335.836
 127401991.706 6  99274401.72743  24243811.430                    24243820.270
 126495443.991 6  98567927.15543  24071287.805                    24071297.742
 111145751.304 8  86607108.37246  21150333.063                    21150339.477
 109472352.673 8  85303198.433 8  20831892.859                    20831899.844
 118235968.301 7  92131936.76744  22499567.992                    22499578.000
 129802664.005 6 101144954.49343  24700639.984                    24700653.699
 127067354.619 6  99013547.52143  24180113.109                    24180123.590
 11  8 13 21 41  0.0000000  0  9G27G04G20G09G28G17G08G26G24
 124081207.141 7  96686724.43244  23611872.070                    23611880.336
 111628249.112 8  86983162.98346  21242133.547                    21242142.500
 127374153.789 6  99252709.91043  24238513.789                    24238523.223
 126395306.666 6  98489898.12543  24052232.672                    24052241.813
 111147901.854 8  86608784.09546  21150741.813                    21150748.820
 109483651.872 8  85312003.003 7  20834042.953                    20834050.176
 118344599.053 7  92216583.93944  22520239.453                    22520250.488
 129879924.018 6 101205156.87043  24715342.141                    24715356.031
 127165047.076 6  99089671.41743  24198703.242                    24198713.840
 11  8 13 21 41 30.0000000  0  9G27G04G20G09G28G17G08G26G24
 124008919.735 7  96630396.59444  23598115.906                    23598124.555
 111543552.439 8  86917165.62645  21226016.016                    21226024.938
 127346687.285 6  99231307.47443  24233286.883                    24233295.898
 126295480.737 6  98412111.74944  24033236.313                    24033245.922
 111150293.118 8  86610647.39846  21151197.258                    21151203.941
 109495156.339 8  85320967.511 8  20836232.586                    20836239.160
 118453500.911 7  92301442.36044  22540963.328                    22540973.016
 129957232.145 6 101265396.74143  24730054.750                    24730066.984
 127262964.332 6  99165970.54043  24217336.047                    24217346.289
 11  8 13 21 42  0.0000000  0  9G27G04G20G09G28G17G08G26G24
 123936946.356 7  96574313.48044  23584419.500                    23584428.672
 111459257.792 8  86851481.54346  21209975.234                    21209984.188
 127319594.318 6  99210196.12943  24228132.047                    24228140.109
 126195969.316 6  98334570.45244  24014299.938                    24014309.230
 111152926.779 8  86612699.58146  21151698.484                    21151705.109
 109506864.651 8  85330090.868 8  20838460.180                    20838467.148
 118562670.611 7  92386509.49145  22561737.547                    22561748.145
 130034585.274 6 101325671.64743  24744772.664                    24744787.047
 127361103.656 6  99242442.69143  24236012.203                    24236022.152
 11  8 13 21 42 30.0000000  0  9G27G04G20G09G28G17G08G26G24
 123865289.144 7  96518476.71644  23570784.320                    23570792.938
 111375367.524 8  86786112.55346  21194011.414                    21194020.195
 127292877.033 6  99189377.49543  24223047.906                    24223056.066
 126096775.526 7  98257276.67943  23995424.164                    23995433.641
 111155804.348 8  86614941.81446  21152246.383                    21152252.902
 109518775.654 8  85339372.159 8  20840727.023                    20840734.098
 118672105.279 7  92471783.09544  22582562.031                    22582572.941
 130111980.407 6 101385979.29543  24759501.617                    24759515.031
 127459462.524 6  99319085.91243  24254729.391                    24254739.090
 11  8 13 21 43  0.0000000  0 10G27G04G20G09G02G28G17G08G26G24
 123793950.091 7  96462887.86544  23557208.633                    23557217.184
 111291884.124 8  86721060.60446  21178125.227                    21178134.469
 127266537.589 6  99168853.29443  24218035.086                    24218043.465
 125997902.349 7  98180232.72143  23976608.820                    23976618.355
 130044687.74116 101333615.74853  24746690.789                    24746704.785
 111158927.099 8  86617375.10346  21152840.203                    21152846.828
 109530888.292 8  85348810.572 8  20843031.883                    20843039.004
 118781801.825 7  92557260.72344  22603436.945                    22603448.273
 130189414.377 6 101446317.22943  24774236.984                    24774250.895
 127558038.372 5  99395898.20942  24273487.016                    24273497.262
 11  8 13 21 43 30.0000000  0 10G27G04G20G09G02G28G17G08G26G24
 123722930.866 7  96407548.23344  23543694.109                    23543703.105
 111208809.430 8  86656327.13146  21162316.359                    21162325.273
 127240577.275 6  99148624.52643  24213095.414                    24213104.207
 125899352.450 7  98103440.67643  23957855.195                    23957865.047
 129941682.755 6 101253352.51143  24727088.945                    24727103.531
 111162295.909 8  86620000.12846  21153481.531                    21153488.195
 109543200.481 8  85358404.479 7  20845374.813                    20845381.898
 118891756.929 7  92642939.85344  22624360.477                    22624372.340
 130266883.404 6 101506682.44743  24788978.766                    24788992.973
 127656827.999 6  99472877.12443  24292286.469                    24292295.848
 11  8 13 21 44  0.0000000  0 10G27G04G20G09G02G28G17G08G26G24
 123652233.890 7  96352459.71544  23530240.875                    23530249.688
 111126146.472 8  86591914.47646  21146585.977                    21146594.723
 127214998.723 6  99128693.20443  24208227.711                    24208236.633
 125801129.088 6  98026903.08243  23939163.148                    23939173.438
 129838725.481 6 101173126.45743  24707496.180                    24707511.309
 111165912.541 8  86622818.26646  21154169.461                    21154176.387
 109555711.373 8  85368153.212 8  20847755.477                    20847762.660
 119001967.518 7  92728818.05044  22645333.266                    22645344.285
 130344384.752 6 101567072.84843  24803727.461                    24803741.488
 127755828.971 6  99550020.69243  24311125.461                    24311135.305
 11  8 13 21 44 30.0000000  0 10G27G04G20G09G02G28G17G08G26G24
 123581861.746 7  96297624.29244  23516849.234                    23516858.301
 111043898.001 8  86527824.81346  21130934.680                    21130943.484
 127189804.401 6  99109061.33643  24203433.563                    24203442.457
 125703235.569 6  97950622.51843  23920534.563                    23920544.906
 129735818.903 6 101092939.90643  24687913.070                    24687928.176
 111169778.913 7  86625831.00246  21154905.711                    21154911.883
 109568420.392 8  85378056.338 7  20850173.906                    20850181.020
 119112430.870 7  92814893.21044  22666353.984                    22666364.773
 130421915.845 6 101627486.47043  24818480.406                    24818494.555
 127855039.092 6  99627327.18943  24330005.328                    24330014.773
 11  8 13 21 45  0.0000000  0 10G27G04G20G09G02G28G17G08G26G24
 123511816.598 7  96243043.68144  23503520.734                    23503529.066
 110962066.387 8  86464059.96946  21115362.828                    21115371.680
 127164996.189 6  99089730.32043  24198712.234                    24198721.293
 125605675.180 6  97874601.49743  23901969.563                    23901979.848
 129632964.651 6 101012794.09143  24668340.914                    24668355.133
 111173896.678 8  86629039.63546  21155688.719                    21155695.773
 109581326.156 8  85388112.770 8  20852630.031                    20852637.137
 119223144.223 7  92901163.19144  22687422.664                    22687432.867
 130499473.581 6 101687920.77643  24833239.930                    24833253.379
 127954455.650 6  99704794.54943  24348924.094                    24348933.016
 11  8 13 21 45 30.0000000  0 10G27G04G20G09G02G28G17G08G26G24
 123442100.245 7  96188719.26044  23490253.859                    23490262.375
 110880654.050 8  86400621.82546  21099870.305                    21099879.180
 127140575.973 6  99070701.65543  24194065.305                    24194074.434
 125508450.760 6  97798842.26343  23883469.094                    23883477.555
 129530165.012 6 100932690.85243  24648778.273                    24648792.469
 111178266.743 8  86632444.86646  21156521.016                    21156527.496
 109594427.328 8  85398321.474 7  20855122.742                    20855129.965
 119334104.362 7  92987625.45344  22708536.844                    22708547.855
 130577054.682 6 101748373.31343  24848002.867                    24848017.203
 128054075.939 6  99782420.71043  24367880.398                    24367890.301
 11  8 13 21 46  0.0000000  0 10G27G04G20G09G02G28G17G08G26G24
 123372714.728 7  96134652.63744  23477050.430                    23477058.617
 110799663.417 8  86337512.29446  21084458.375                    21084467.047
 127116545.903 6  99051976.96743  24189492.422                    24189501.895
 125411565.341 6  97723347.24043  23865031.914                    23865041.398
 129427421.818 6 100852631.55143  24629226.664                    24629240.680
 111182890.845 8  86636048.04346  21157400.445                    21157407.629
 109607722.805 8  85408681.573 7  20857652.813                    20857660.188
 119445308.371 7  93074277.74544  22729699.023                    22729710.035
 130654656.108 6 101808841.68643  24862770.297                    24862785.090
 128153897.430 6  99860203.62143  24386876.297                    24386885.988
 11  8 13 21 46 30.0000000  0 10G27G04G20G09G02G28G17G08G26G24
 123303662.164 7  96080845.46144  23463909.891                    23463918.316
 110719096.812 8  86274733.16546  21069127.023                    21069136.125
 127092907.756 6  99033557.67843  24184994.703                    24185003.813
 125315021.977 6  97648118.66343  23846660.570                    23846669.391
 129324736.929 6 100772617.75944  24609686.117                    24609700.246
 111187770.159 8  86639850.09646  21158329.117                    21158335.684
 109621211.161 8  85419191.978 8  20860219.711                    20860226.598
 119556753.396 7  93161117.84144  22750906.750                    22750917.258
 130732274.755 6 101869323.47243  24877541.531                    24877555.285
 128253917.229 6  99938141.05143  24405909.445                    24405918.848
 11  8 13 21 47  0.0000000  0 10G27G04G20G09G02G28G17G08G26G24
 123234944.473 7  96027299.21644  23450833.125                    23450841.797
 110638956.625 8  86212286.31146  21053877.047                    21053885.492
 127069663.808 6  99015445.56744  24180570.758                    24180580.578
 125218823.749 6  97573159.11442  23828354.172                    23828363.715
 129222112.473 7 100692650.95944  24590156.719                    24590170.758
 111192906.129 8  86643852.13946  21159306.469                    21159313.164
 109634891.125 8  85429851.687 7  20862823.047                    20862830.160
 119668436.245 7  93248143.24944  22772158.727                    22772170.453
 130809907.324 6 101929816.11943  24892314.359                    24892328.715
 128354132.867 6 100016231.10143  24424980.109                    24424989.773
 11  8 13 21 47 30.0000000  0 10G27G04G20G09G02G28G17G08G26G24
 123166563.950 7  95974015.69244  23437820.820                    23437829.637
 110559245.337 8  86150173.67346  21038708.234                    21038716.938
 127046816.038 6  98997642.14343  24176223.820                    24176232.578
 125122973.617 6  97498470.74143  23810114.422                    23810123.750
 129119550.733 7 100612733.03944  24570640.672                    24570653.738
 111198300.430 8  86648055.47146  21160333.070                    21160339.543
 109648761.819 8  85440660.016 8  20865462.367                    20865469.629
 119780353.892 7  93335351.60544  22793456.039                    22793467.500
 130887551.164 6 101990317.54243  24907089.734                    24907104.051
 128454541.590 6 100094471.62543  24444087.266                    24444096.859
 11  8 13 21 48  0.0000000  0 10G27G04G20G09G02G28G17G08G26G24
 123098522.363 7  95920996.30844  23424872.992                    23424881.797
 110479965.151 8  86088396.95546  21023621.688                    21023630.652
 127024366.044 6  98980148.65243  24171951.117                    24171960.629
 125027474.723 6  97424056.09743  23791942.070                    23791950.844
 129017053.612 7 100532865.44844  24551135.188                    24551149.203
 111203954.290 8  86652461.06646  21161409.281                    21161415.734
 109662821.732 8  85451615.788 8  20868138.180                    20868145.281
 119892503.457 7  93422740.69744  22814797.773                    22814808.453
 130965203.111 6 102050825.26143  24921866.211                    24921880.758
 128555140.709 6 100172860.48043  24463230.367                    24463240.582
 11  8 13 21 48 30.0000000  0 10G27G04G20G09G02G28G17G08G26G24
 123030821.892 7  95868242.70744  23411990.125                    23411998.570
 110401118.683 8  86026958.20046  21008617.578                    21008626.590
 127002315.927 6  98962966.79143  24167754.563                    24167763.852
 124932330.018 6  97349917.45043  23773836.086                    23773845.199
 128914623.229 6 100453049.86943  24531643.266                    24531657.051
 111209868.969 8  86657069.88646  21162534.625                    21162541.129
 109677069.896 8  85462718.257 7  20870849.086                    20870856.359
 120004881.638 7  93510307.90944  22836182.891                    22836193.867
 131042859.982 6 102111336.81943  24936644.930                    24936659.441
 128655927.743 6 100251395.76343  24482409.242                    24482419.387
 11  8 13 21 49  0.0000000  0 10G27G04G20G09G02G28G17G08G26G24
 122963464.447 7  95815756.40044  23399172.633                    23399181.328
 110322708.103 8  85965859.10046  20993696.719                    20993705.391
 126980667.813 6  98946098.22143  24163635.414                    24163644.902
 124837542.817 6  97276057.36443  23755798.422                    23755808.258
 128812261.769 6 100373288.00643  24512164.227                    24512178.332
 111216046.122 8  86661883.22946  21163710.125                    21163716.582
 109691505.038 8  85473966.406 7  20873595.953                    20873603.098
 120117485.040 7  93598050.62644  22857610.852                    22857621.699
 131120518.783 6 102171849.89043  24951422.719                    24951437.555
 128756900.016 6 100330075.37343  24501623.758                    24501634.063
 11  8 13 21 49 30.0000000  0 10G27G04G20G09G02G28G17G08G26G24
 122896452.174 7  95763539.06244  23386420.125                    23386428.875
 110244735.828 8  85905101.53846  20978858.648                    20978867.590
 126959423.466 6  98929544.22743  24159592.891                    24159602.168
 124743116.022 7  97202478.12143  23737829.969                    23737839.355
 128709971.267 6 100293581.40843  24492699.039                    24492712.438
 111222487.185 8  86666902.22146  21164935.641                    21164942.125
 109706125.909 8  85485359.294 7  20876378.531                    20876385.660
 120230311.083 7  93685966.82644  22879081.016                    22879092.027
 131198176.454 6 102232362.07343  24966200.641                    24966214.953
 128858054.966 6 100408897.36043  24520873.578                    24520882.965
 11  8 13 21 50  0.0000000  0 10G27G04G20G09G02G28G17G08G26G24
 122829786.773 7  95711591.99744  23373733.969                    23373742.691
 110167203.843 8  85844687.05646  20964104.789                    20964113.477
 126938584.374 6  98913306.04043  24155626.891                    24155636.273
 124649052.296 6  97129181.79743  23719929.961                    23719939.598
 128607752.970 6 100213931.10743  24473247.570                    24473260.715
 111229193.180 8  86672127.65446  21166211.984                    21166218.457
 109720931.076 8  85496895.785 7  20879196.023                    20879203.203
 120343356.548 7  93774054.00344  22900592.586                    22900603.859
 131275829.801 6 102292870.92043  24980977.758                    24980991.934
 128959389.766 6 100487859.49043  24540156.305                    24540166.344
 11  8 13 21 50 30.0000000  0 10G27G04G20G09G02G28G17G08G26G24
 122763470.377 7  95659916.89944  23361114.172                    23361123.426
 110090114.424 8  85784617.42946  20949435.391                    20949444.387
 126918152.725 6  98897385.31043  24151739.320                    24151748.008
 124555354.793 6  97056170.83543  23702099.867                    23702109.008
 128505609.647 6 100134339.19543  24453809.891                    24453823.250
 111236165.711 8  86677560.77646  21167538.438                    21167545.445
 109735919.333 8  85508574.936 8  20882047.969                    20882055.148
 120456618.489 7  93862309.82544  22922146.211                    22922157.645
 131353475.928 6 102353374.11343  24995753.352                    24995768.160
 129060901.801 6 100566959.71242  24559473.563                    24559483.059
 11  8 13 21 51  0.0000000  0 10G27G04G20G09G02G28G17G08G26G24
 122697505.083 7  95608515.38844  23348561.820                    23348570.488
 110013470.059 8  85724894.60046  20934850.148                    20934859.137
 126898130.381 6  98881783.54043  24147928.969                    24147937.730
 124462026.286 6  96983447.39643  23684340.109                    23684349.887
 128403543.430 6 100054807.36643  24434386.688                    24434400.309
 111243406.010 8  86683202.54046  21168916.422                    21168922.914
 109751089.602 8  85520395.914 7  20884934.727                    20884941.988
 120570093.831 7  93950731.95344  22943739.617                    22943751.559
 131431111.812 6 102413869.28243  25010526.992                    25010542.398
 129162588.430 5 100646195.99142  24578824.680                    24578833.309
 11  8 13 21 51 30.0000000  0 10G27G04G20G09G02G28G17G08G26G24
 122631892.582 7  95557388.76845  23336076.188                    23336085.105
 109937272.741 8  85665520.12146  20920350.438                    20920359.648
 126878518.809 6  98866501.84143  24144197.016                    24144205.340
 124369069.599 6  96911013.67543  23666650.984                    23666660.160
 128301556.139 6  99975336.99143  24414979.031                    24414991.816
 111250915.355 8  86689053.96046  21170345.797                    21170352.160
 109766440.565 8  85532357.703 8  20887855.938                    20887863.285
 120683779.351 7  94039317.82644  22965374.078                    22965385.973
 131508734.372 6 102474354.14343  25025299.141                    25025313.703
 129264447.018 5 100725566.24342  24598206.742                    24598216.219
 11  8 13 21 52  0.0000000  0 10G27G04G20G09G02G28G17G08G26G24
 122566635.010 7  95506538.74245  23323657.641                    23323666.723
 109861524.969 8  85606495.93446  20905936.234                    20905944.777
 126859320.101 6  98851541.86543  24140543.711                    24140552.363
 124276488.039 6  96838872.28243  23649032.664                    23649042.711
 128199649.680 6  99895929.65643  24395586.945                    24395599.930
 111258695.341 8  86695116.25746  21171826.133                    21171832.590
 109781971.378 8  85544459.633 7  20890811.234                    20890818.801
 120797671.952 7  94128065.08244  22987047.180                    22987058.281
 131586340.811 5 102534826.36142  25040066.742                    25040082.105
 129366475.089 6 100805068.53442  24617622.398                    24617631.945
 11  8 13 21 52 30.0000000  0 10G27G04G20G09G02G28G17G08G26G24
 122501734.675 7  95455967.08045  23311308.063                    23311316.516
 109786229.316 8  85547824.04246  20891607.844                    20891616.516
 126840536.191 6  98836905.10643  24136969.133                    24136977.707
 124184284.959 6  96767025.79944  23631487.156                    23631496.719
 128097826.580 6  99816587.25943  24376210.078                    24376223.410
 111266747.937 8  86701390.98746  21173358.188                    21173365.277
 109797681.065 8  85556700.943 7  20893801.063                    20893808.207
 120911768.916 7  94216971.60444  23008758.828                    23008770.352
 131663927.923 6 102595283.58143  25054830.594                    25054846.148
 129468670.187 6 100884701.00242  24637069.844                    24637079.168
 11  8 13 21 53  0.0000000  0  9G27G04G20G09G02G28G17G08G26
 122437193.081 7  95405674.94145  23299026.258                    23299034.824
 109711387.308 8  85489505.64346  20877365.422                    20877374.398
 126822168.802 5  98822592.90243  24133473.758                    24133482.527
 124092462.773 6  96695476.11343  23614014.453                    23614023.695
 127996088.239 6  99737310.89544  24356849.977                    24356863.012
 111275073.675 8  86707878.54846  21174942.742                    21174949.137
 109813567.766 8  85569080.176 7  20896824.258                    20896830.922
 121026067.162 7  94306034.96044  23030509.914                    23030521.367
 131741492.527 6 102655723.23742  25069591.617                    25069606.566
 11  8 13 21 53 30.0000000  0  9G27G04G20G09G02G28G17G08G26
 122373012.541 7  95355664.14744  23286812.938                    23286821.594
 109637001.718 8  85431542.88746  20863210.570                    20863219.480
 126804219.721 6  98808606.65343  24130057.211                    24130067.281
 124001024.950 6  96624225.93243  23596614.063                    23596623.465
 127894437.140 6  99658102.56544  24337506.563                    24337519.484
 111283674.333 8  86714580.32946  21176579.516                    21176585.887
 109829630.904 8  85581596.908 7  20899880.727                    20899888.102
 121140563.589 7  94395252.74644  23052297.289                    23052308.695
 131819032.162 6 102716143.39242  25084346.516                    25084362.117
 11  8 13 21 54  0.0000000  0  9G27G04G20G09G02G28G17G08G26
 122309194.708 7  95305935.97845  23274668.469                    23274677.348
 109563074.501 8  85373937.31146  20849142.648                    20849151.078
 126786690.801 6  98794947.79843  24126722.844                    24126731.484
 123909974.167 6  96553277.34443  23579287.789                    23579297.098
 127792875.288 6  99578963.79844  24318179.258                    24318192.352
 111292551.257 8  86721497.38446  21178268.570                    21178275.301
 109845869.182 8  85594250.110 7  20902971.102                    20902978.141
 121255255.101 7  94484622.54143  23074122.492                    23074134.344
 131896543.593 6 102776541.65242  25099097.813                    25099112.258
